PWSweather.com
Personal Weather Stations
Station Observations
OPENSRS
Liberty Village, Toronto, ON M6K 3M1

Liberty VillageToronto, ON M6K 3M1

Lat: 43.63831, Lon: -79.42566

Elevation: 303

Station Type: Davis Instruments Vantage Pro 2

weather.opensrs.com

High Low Average
Temperature 62.2°F16.8°C 50.0°F10.0°C 55.6°F13.1°C
Dew Point 50.6°F10.3°C 39.7°F4.3°C 46.1°F7.8°C
Winds 12.0 mph 19.3 kmh Calm Calm 2.0 mph ESE3.2 kmh ESE
Wind Gusts 14.0 mph22.5 kmh -- 9.0 mph14.5 kmh
Humidity 84% 51% 71%
Pressure 29.84 in1010.5 mb 29.75 in1007.5 mb -
Precipitation 0.00 in0.0 mm - -
Hour Temp Dew Point Humidity Winds Wind Gusts Pressure Precip Precip Rate Daily Precip Total
12:00 AM 53.5°F11.9°C 44.3°F6.8°C 71% Calm Calm -- 29.76 in1007.8 mb 0.00 in0.0 mm 0.00 in0.0 mm 0.00 in0.0 mm
12:03 AM 53.5°F11.9°C 44.3°F6.8°C 71% 1.0 mph ESE1.6 kmh ESE 2.0 mph3.2 kmh 29.76 in1007.8 mb 0.00 in0.0 mm 0.00 in0.0 mm 0.00 in0.0 mm
12:04 AM 53.4°F11.9°C 44.3°F6.8°C 71% 1.0 mph ESE1.6 kmh ESE 2.0 mph3.2 kmh 29.76 in1007.8 mb 0.00 in0.0 mm 0.00 in0.0 mm 0.00 in0.0 mm
12:05 AM 53.4°F11.9°C 44.3°F6.8°C 71% Calm Calm 5.0 mph8.0 kmh 29.76 in1007.8 mb 0.00 in0.0 mm 0.00 in0.0 mm 0.00 in0.0 mm
12:08 AM 53.4°F11.9°C 44.3°F6.8°C 71% 1.0 mph E1.6 kmh E 9.0 mph14.5 kmh 29.76 in1007.8 mb 0.00 in0.0 mm 0.00 in0.0 mm 0.00 in0.0 mm
12:09 AM 53.4°F11.9°C 44.3°F6.8°C 71% 4.0 mph E6.4 kmh E 9.0 mph14.5 kmh 29.76 in1007.8 mb 0.00 in0.0 mm 0.00 in0.0 mm 0.00 in0.0 mm
12:10 AM 53.5°F11.9°C 44.3°F6.8°C 71% 6.0 mph E9.7 kmh E 9.0 mph14.5 kmh 29.76 in1007.8 mb 0.00 in0.0 mm 0.00 in0.0 mm 0.00 in0.0 mm
12:13 AM 53.5°F11.9°C 44.3°F6.8°C 71% 2.0 mph E3.2 kmh E 9.0 mph14.5 kmh 29.76 in1007.8 mb 0.00 in0.0 mm 0.00 in0.0 mm 0.00 in0.0 mm
12:14 AM 53.5°F11.9°C 44.3°F6.8°C 71% 1.0 mph E1.6 kmh E 11.0 mph17.7 kmh 29.76 in1007.8 mb 0.00 in0.0 mm 0.00 in0.0 mm 0.00 in0.0 mm
12:15 AM 53.5°F11.9°C 44.3°F6.8°C 71% 2.0 mph E3.2 kmh E 11.0 mph17.7 kmh 29.76 in1007.8 mb 0.00 in0.0 mm 0.00 in0.0 mm 0.00 in0.0 mm
12:18 AM 53.5°F11.9°C 44.3°F6.8°C 71% Calm Calm 11.0 mph17.7 kmh 29.76 in1007.8 mb 0.00 in0.0 mm 0.00 in0.0 mm 0.00 in0.0 mm
12:19 AM 53.5°F11.9°C 44.3°F6.8°C 71% 4.0 mph E6.4 kmh E 11.0 mph17.7 kmh 29.76 in1007.8 mb 0.00 in0.0 mm 0.00 in0.0 mm 0.00 in0.0 mm
12:20 AM 53.4°F11.9°C 44.3°F6.8°C 71% Calm Calm 11.0 mph17.7 kmh 29.76 in1007.8 mb 0.00 in0.0 mm 0.00 in0.0 mm 0.00 in0.0 mm
12:23 AM 53.4°F11.9°C 44.6°F7.0°C 72% Calm Calm 11.0 mph17.7 kmh 29.76 in1007.8 mb 0.00 in0.0 mm 0.00 in0.0 mm 0.00 in0.0 mm
12:24 AM 53.5°F11.9°C 44.7°F7.1°C 72% 1.0 mph E1.6 kmh E 11.0 mph17.7 kmh 29.76 in1007.8 mb 0.00 in0.0 mm 0.00 in0.0 mm 0.00 in0.0 mm
12:25 AM 53.5°F11.9°C 44.7°F7.1°C 72% 4.0 mph E6.4 kmh E 11.0 mph17.7 kmh 29.76 in1007.8 mb 0.00 in0.0 mm 0.00 in0.0 mm 0.00 in0.0 mm
12:28 AM 53.5°F11.9°C 44.7°F7.1°C 72% 4.0 mph E6.4 kmh E 11.0 mph17.7 kmh 29.76 in1007.8 mb 0.00 in0.0 mm 0.00 in0.0 mm 0.00 in0.0 mm
12:29 AM 53.5°F11.9°C 44.7°F7.1°C 72% 2.0 mph E3.2 kmh E 11.0 mph17.7 kmh 29.76 in1007.8 mb 0.00 in0.0 mm 0.00 in0.0 mm 0.00 in0.0 mm
12:30 AM 53.6°F12.0°C 44.8°F7.1°C 72% 1.0 mph E1.6 kmh E 11.0 mph17.7 kmh 29.76 in1007.8 mb 0.00 in0.0 mm 0.00 in0.0 mm 0.00 in0.0 mm
12:33 AM 53.6°F12.0°C 44.8°F7.1°C 72% 1.0 mph E1.6 kmh E 11.0 mph17.7 kmh 29.76 in1007.8 mb 0.00 in0.0 mm 0.00 in0.0 mm 0.00 in0.0 mm
12:34 AM 53.6°F12.0°C 44.8°F7.1°C 72% Calm Calm 11.0 mph17.7 kmh 29.76 in1007.8 mb 0.00 in0.0 mm 0.00 in0.0 mm 0.00 in0.0 mm
12:35 AM 53.6°F12.0°C 44.8°F7.1°C 72% 7.0 mph E11.3 kmh E 11.0 mph17.7 kmh 29.76 in1007.8 mb 0.00 in0.0 mm 0.00 in0.0 mm 0.00 in0.0 mm
12:38 AM 53.6°F12.0°C 44.8°F7.1°C 72% 1.0 mph E1.6 kmh E 11.0 mph17.7 kmh 29.76 in1007.8 mb 0.00 in0.0 mm 0.00 in0.0 mm 0.00 in0.0 mm
12:39 AM 53.6°F12.0°C 44.8°F7.1°C 72% 1.0 mph E1.6 kmh E 11.0 mph17.7 kmh 29.76 in1007.8 mb 0.00 in0.0 mm 0.00 in0.0 mm 0.00 in0.0 mm
12:40 AM 53.6°F12.0°C 44.8°F7.1°C 72% 6.0 mph E9.7 kmh E 11.0 mph17.7 kmh 29.76 in1007.8 mb 0.00 in0.0 mm 0.00 in0.0 mm 0.00 in0.0 mm
12:43 AM 53.6°F12.0°C 44.8°F7.1°C 72% 1.0 mph E1.6 kmh E 11.0 mph17.7 kmh 29.76 in1007.8 mb 0.00 in0.0 mm 0.00 in0.0 mm 0.00 in0.0 mm
12:44 AM 53.6°F12.0°C 44.8°F7.1°C 72% 2.0 mph E3.2 kmh E 11.0 mph17.7 kmh 29.76 in1007.8 mb 0.00 in0.0 mm 0.00 in0.0 mm 0.00 in0.0 mm
12:45 AM 53.6°F12.0°C 44.8°F7.1°C 72% 2.0 mph E3.2 kmh E 11.0 mph17.7 kmh 29.76 in1007.8 mb 0.00 in0.0 mm 0.00 in0.0 mm 0.00 in0.0 mm
12:48 AM 53.6°F12.0°C 45.2°F7.3°C 73% Calm Calm 11.0 mph17.7 kmh 29.76 in1007.8 mb 0.00 in0.0 mm 0.00 in0.0 mm 0.00 in0.0 mm
12:49 AM 53.6°F12.0°C 45.2°F7.3°C 73% Calm Calm 13.0 mph20.9 kmh 29.76 in1007.8 mb 0.00 in0.0 mm 0.00 in0.0 mm 0.00 in0.0 mm
12:50 AM 53.6°F12.0°C 45.2°F7.3°C 73% Calm Calm 13.0 mph20.9 kmh 29.76 in1007.8 mb 0.00 in0.0 mm 0.00 in0.0 mm 0.00 in0.0 mm
12:53 AM 53.7°F12.1°C 45.3°F7.4°C 73% Calm Calm 13.0 mph20.9 kmh 29.76 in1007.8 mb 0.00 in0.0 mm 0.00 in0.0 mm 0.00 in0.0 mm
12:54 AM 53.7°F12.1°C 45.3°F7.4°C 73% 1.0 mph NE1.6 kmh NE 13.0 mph20.9 kmh 29.76 in1007.8 mb 0.00 in0.0 mm 0.00 in0.0 mm 0.00 in0.0 mm
12:55 AM 53.7°F12.1°C 45.3°F7.4°C 73% 2.0 mph NE3.2 kmh NE 13.0 mph20.9 kmh 29.76 in1007.8 mb 0.00 in0.0 mm 0.00 in0.0 mm 0.00 in0.0 mm
12:58 AM 53.8°F12.1°C 45.4°F7.4°C 73% 1.0 mph NE1.6 kmh NE 13.0 mph20.9 kmh 29.76 in1007.8 mb 0.00 in0.0 mm 0.00 in0.0 mm 0.00 in0.0 mm
12:59 AM 53.7°F12.1°C 45.3°F7.4°C 73% 4.0 mph NE6.4 kmh NE 13.0 mph20.9 kmh 29.76 in1007.8 mb 0.00 in0.0 mm 0.00 in0.0 mm 0.00 in0.0 mm
01:00 AM 53.7°F12.1°C 45.3°F7.4°C 73% 1.0 mph NE1.6 kmh NE 2.0 mph3.2 kmh 29.76 in1007.8 mb 0.00 in0.0 mm 0.00 in0.0 mm 0.00 in0.0 mm
01:03 AM 53.7°F12.1°C 45.3°F7.4°C 73% 1.0 mph NE1.6 kmh NE 10.0 mph16.1 kmh 29.76 in1007.8 mb 0.00 in0.0 mm 0.00 in0.0 mm 0.00 in0.0 mm
01:04 AM 53.7°F12.1°C 45.3°F7.4°C 73% 2.0 mph NE3.2 kmh NE 10.0 mph16.1 kmh 29.76 in1007.8 mb 0.00 in0.0 mm 0.00 in0.0 mm 0.00 in0.0 mm
01:05 AM 53.7°F12.1°C 45.3°F7.4°C 73% Calm Calm 10.0 mph16.1 kmh 29.76 in1007.8 mb 0.00 in0.0 mm 0.00 in0.0 mm 0.00 in0.0 mm
01:08 AM 53.6°F12.0°C 45.5°F7.5°C 74% Calm Calm 10.0 mph16.1 kmh 29.76 in1007.8 mb 0.00 in0.0 mm 0.00 in0.0 mm 0.00 in0.0 mm
01:09 AM 53.6°F12.0°C 45.5°F7.5°C 74% Calm Calm 10.0 mph16.1 kmh 29.76 in1007.8 mb 0.00 in0.0 mm 0.00 in0.0 mm 0.00 in0.0 mm
01:10 AM 53.6°F12.0°C 45.5°F7.5°C 74% 1.0 mph NE1.6 kmh NE 10.0 mph16.1 kmh 29.76 in1007.8 mb 0.00 in0.0 mm 0.00 in0.0 mm 0.00 in0.0 mm
01:13 AM 53.6°F12.0°C 45.5°F7.5°C 74% 3.0 mph NE4.8 kmh NE 10.0 mph16.1 kmh 29.76 in1007.8 mb 0.00 in0.0 mm 0.00 in0.0 mm 0.00 in0.0 mm
01:14 AM 53.6°F12.0°C 45.5°F7.5°C 74% 6.0 mph NE9.7 kmh NE 10.0 mph16.1 kmh 29.76 in1007.8 mb 0.00 in0.0 mm 0.00 in0.0 mm 0.00 in0.0 mm
01:15 AM 53.6°F12.0°C 45.5°F7.5°C 74% 2.0 mph NE3.2 kmh NE 10.0 mph16.1 kmh 29.76 in1007.8 mb 0.00 in0.0 mm 0.00 in0.0 mm 0.00 in0.0 mm
01:18 AM 53.6°F12.0°C 45.5°F7.5°C 74% 1.0 mph NE1.6 kmh NE 12.0 mph19.3 kmh 29.76 in1007.8 mb 0.00 in0.0 mm 0.00 in0.0 mm 0.00 in0.0 mm
01:19 AM 53.6°F12.0°C 45.5°F7.5°C 74% 1.0 mph NE1.6 kmh NE 12.0 mph19.3 kmh 29.76 in1007.8 mb 0.00 in0.0 mm 0.00 in0.0 mm 0.00 in0.0 mm
01:20 AM 53.6°F12.0°C 45.5°F7.5°C 74% Calm Calm 12.0 mph19.3 kmh 29.76 in1007.8 mb 0.00 in0.0 mm 0.00 in0.0 mm 0.00 in0.0 mm
01:23 AM 53.6°F12.0°C 45.5°F7.5°C 74% Calm Calm 12.0 mph19.3 kmh 29.76 in1007.8 mb 0.00 in0.0 mm 0.00 in0.0 mm 0.00 in0.0 mm
01:24 AM 53.6°F12.0°C 45.5°F7.5°C 74% 1.0 mph NE1.6 kmh NE 12.0 mph19.3 kmh 29.76 in1007.8 mb 0.00 in0.0 mm 0.00 in0.0 mm 0.00 in0.0 mm
01:25 AM 53.6°F12.0°C 45.9°F7.7°C 75% Calm Calm 12.0 mph19.3 kmh 29.76 in1007.8 mb 0.00 in0.0 mm 0.00 in0.0 mm 0.00 in0.0 mm
01:28 AM 53.6°F12.0°C 45.5°F7.5°C 74% Calm Calm 12.0 mph19.3 kmh 29.76 in1007.8 mb 0.00 in0.0 mm 0.00 in0.0 mm 0.00 in0.0 mm
01:29 AM 53.6°F12.0°C 45.9°F7.7°C 75% 5.0 mph NE8.0 kmh NE 12.0 mph19.3 kmh 29.76 in1007.8 mb 0.00 in0.0 mm 0.00 in0.0 mm 0.00 in0.0 mm
01:30 AM 53.6°F12.0°C 45.9°F7.7°C 75% Calm Calm 12.0 mph19.3 kmh 29.76 in1007.8 mb 0.00 in0.0 mm 0.00 in0.0 mm 0.00 in0.0 mm
01:33 AM 53.6°F12.0°C 45.9°F7.7°C 75% Calm Calm 12.0 mph19.3 kmh 29.76 in1007.8 mb 0.00 in0.0 mm 0.00 in0.0 mm 0.00 in0.0 mm
01:34 AM 53.6°F12.0°C 45.9°F7.7°C 75% 8.0 mph NE12.9 kmh NE 12.0 mph19.3 kmh 29.76 in1007.8 mb 0.00 in0.0 mm 0.00 in0.0 mm 0.00 in0.0 mm
01:35 AM 53.6°F12.0°C 45.9°F7.7°C 75% 3.0 mph NE4.8 kmh NE 12.0 mph19.3 kmh 29.76 in1007.8 mb 0.00 in0.0 mm 0.00 in0.0 mm 0.00 in0.0 mm
01:38 AM 53.6°F12.0°C 45.9°F7.7°C 75% 5.0 mph NE8.0 kmh NE 12.0 mph19.3 kmh 29.76 in1007.8 mb 0.00 in0.0 mm 0.00 in0.0 mm 0.00 in0.0 mm
01:39 AM 53.6°F12.0°C 45.9°F7.7°C 75% 3.0 mph NE4.8 kmh NE 12.0 mph19.3 kmh 29.76 in1007.8 mb 0.00 in0.0 mm 0.00 in0.0 mm 0.00 in0.0 mm
01:40 AM 53.6°F12.0°C 45.9°F7.7°C 75% 4.0 mph NE6.4 kmh NE 12.0 mph19.3 kmh 29.76 in1007.8 mb 0.00 in0.0 mm 0.00 in0.0 mm 0.00 in0.0 mm
01:43 AM 53.5°F11.9°C 45.8°F7.7°C 75% 4.0 mph NE6.4 kmh NE 12.0 mph19.3 kmh 29.76 in1007.8 mb 0.00 in0.0 mm 0.00 in0.0 mm 0.00 in0.0 mm
01:44 AM 53.5°F11.9°C 45.8°F7.7°C 75% 2.0 mph NE3.2 kmh NE 12.0 mph19.3 kmh 29.76 in1007.8 mb 0.00 in0.0 mm 0.00 in0.0 mm 0.00 in0.0 mm
01:45 AM 53.5°F11.9°C 45.8°F7.7°C 75% 2.0 mph NE3.2 kmh NE 12.0 mph19.3 kmh 29.76 in1007.8 mb 0.00 in0.0 mm 0.00 in0.0 mm 0.00 in0.0 mm
01:48 AM 53.5°F11.9°C 45.8°F7.7°C 75% 2.0 mph NE3.2 kmh NE 12.0 mph19.3 kmh 29.76 in1007.8 mb 0.00 in0.0 mm 0.00 in0.0 mm 0.00 in0.0 mm
01:49 AM 53.5°F11.9°C 45.8°F7.7°C 75% Calm Calm 12.0 mph19.3 kmh 29.76 in1007.8 mb 0.00 in0.0 mm 0.00 in0.0 mm 0.00 in0.0 mm
01:50 AM 53.5°F11.9°C 45.8°F7.7°C 75% 1.0 mph NE1.6 kmh NE 12.0 mph19.3 kmh 29.76 in1007.8 mb 0.00 in0.0 mm 0.00 in0.0 mm 0.00 in0.0 mm
01:53 AM 53.5°F11.9°C 45.8°F7.7°C 75% 2.0 mph NE3.2 kmh NE 12.0 mph19.3 kmh 29.76 in1007.8 mb 0.00 in0.0 mm 0.00 in0.0 mm 0.00 in0.0 mm
01:54 AM 53.4°F11.9°C 45.7°F7.6°C 75% 2.0 mph NE3.2 kmh NE 12.0 mph19.3 kmh 29.76 in1007.8 mb 0.00 in0.0 mm 0.00 in0.0 mm 0.00 in0.0 mm
01:55 AM 53.4°F11.9°C 45.7°F7.6°C 75% 1.0 mph NE1.6 kmh NE 12.0 mph19.3 kmh 29.76 in1007.8 mb 0.00 in0.0 mm 0.00 in0.0 mm 0.00 in0.0 mm
01:58 AM 53.5°F11.9°C 45.4°F7.4°C 74% 2.0 mph NE3.2 kmh NE 12.0 mph19.3 kmh 29.76 in1007.8 mb 0.00 in0.0 mm 0.00 in0.0 mm 0.00 in0.0 mm
01:59 AM 53.4°F11.9°C 45.3°F7.4°C 74% 2.0 mph NE3.2 kmh NE 12.0 mph19.3 kmh 29.76 in1007.8 mb 0.00 in0.0 mm 0.00 in0.0 mm 0.00 in0.0 mm
02:00 AM 53.4°F11.9°C 45.3°F7.4°C 74% Calm Calm 1.0 mph1.6 kmh 29.76 in1007.8 mb 0.00 in0.0 mm 0.00 in0.0 mm 0.00 in0.0 mm
02:03 AM 53.4°F11.9°C 45.3°F7.4°C 74% Calm Calm 1.0 mph1.6 kmh 29.76 in1007.8 mb 0.00 in0.0 mm 0.00 in0.0 mm 0.00 in0.0 mm
02:04 AM 53.4°F11.9°C 45.3°F7.4°C 74% 6.0 mph NE9.7 kmh NE 6.0 mph9.7 kmh 29.76 in1007.8 mb 0.00 in0.0 mm 0.00 in0.0 mm 0.00 in0.0 mm
02:05 AM 53.4°F11.9°C 45.3°F7.4°C 74% Calm Calm 6.0 mph9.7 kmh 29.76 in1007.8 mb 0.00 in0.0 mm 0.00 in0.0 mm 0.00 in0.0 mm
02:08 AM 53.2°F11.8°C 45.1°F7.3°C 74% Calm Calm 6.0 mph9.7 kmh 29.76 in1007.8 mb 0.00 in0.0 mm 0.00 in0.0 mm 0.00 in0.0 mm
02:09 AM 53.2°F11.8°C 45.1°F7.3°C 74% 1.0 mph NE1.6 kmh NE 6.0 mph9.7 kmh 29.76 in1007.8 mb 0.00 in0.0 mm 0.00 in0.0 mm 0.00 in0.0 mm
02:10 AM 53.2°F11.8°C 45.1°F7.3°C 74% Calm Calm 6.0 mph9.7 kmh 29.76 in1007.8 mb 0.00 in0.0 mm 0.00 in0.0 mm 0.00 in0.0 mm
02:13 AM 53.0°F11.7°C 45.0°F7.2°C 74% 1.0 mph NE1.6 kmh NE 6.0 mph9.7 kmh 29.76 in1007.8 mb 0.00 in0.0 mm 0.00 in0.0 mm 0.00 in0.0 mm
02:14 AM 53.0°F11.7°C 45.0°F7.2°C 74% 5.0 mph NE8.0 kmh NE 7.0 mph11.3 kmh 29.76 in1007.8 mb 0.00 in0.0 mm 0.00 in0.0 mm 0.00 in0.0 mm
02:15 AM 53.0°F11.7°C 45.0°F7.2°C 74% Calm Calm 7.0 mph11.3 kmh 29.76 in1007.8 mb 0.00 in0.0 mm 0.00 in0.0 mm 0.00 in0.0 mm
02:18 AM 52.9°F11.6°C 44.9°F7.2°C 74% 1.0 mph NE1.6 kmh NE 8.0 mph12.9 kmh 29.75 in1007.5 mb 0.00 in0.0 mm 0.00 in0.0 mm 0.00 in0.0 mm
02:19 AM 52.9°F11.6°C 44.9°F7.2°C 74% 2.0 mph NE3.2 kmh NE 8.0 mph12.9 kmh 29.76 in1007.8 mb 0.00 in0.0 mm 0.00 in0.0 mm 0.00 in0.0 mm
02:20 AM 52.9°F11.6°C 44.9°F7.2°C 74% 2.0 mph NE3.2 kmh NE 8.0 mph12.9 kmh 29.76 in1007.8 mb 0.00 in0.0 mm 0.00 in0.0 mm 0.00 in0.0 mm
02:23 AM 53.0°F11.7°C 45.3°F7.4°C 75% Calm Calm 10.0 mph16.1 kmh 29.75 in1007.5 mb 0.00 in0.0 mm 0.00 in0.0 mm 0.00 in0.0 mm
02:24 AM 53.0°F11.7°C 45.3°F7.4°C 75% 4.0 mph NE6.4 kmh NE 10.0 mph16.1 kmh 29.75 in1007.5 mb 0.00 in0.0 mm 0.00 in0.0 mm 0.00 in0.0 mm
02:25 AM 53.0°F11.7°C 45.3°F7.4°C 75% 5.0 mph NE8.0 kmh NE 10.0 mph16.1 kmh 29.76 in1007.8 mb 0.00 in0.0 mm 0.00 in0.0 mm 0.00 in0.0 mm
02:28 AM 53.0°F11.7°C 45.3°F7.4°C 75% 1.0 mph NE1.6 kmh NE 10.0 mph16.1 kmh 29.76 in1007.8 mb 0.00 in0.0 mm 0.00 in0.0 mm 0.00 in0.0 mm
02:29 AM 53.0°F11.7°C 45.3°F7.4°C 75% 1.0 mph NE1.6 kmh NE 10.0 mph16.1 kmh 29.76 in1007.8 mb 0.00 in0.0 mm 0.00 in0.0 mm 0.00 in0.0 mm
02:30 AM 53.0°F11.7°C 45.3°F7.4°C 75% Calm Calm 10.0 mph16.1 kmh 29.75 in1007.5 mb 0.00 in0.0 mm 0.00 in0.0 mm 0.00 in0.0 mm
02:33 AM 53.0°F11.7°C 45.3°F7.4°C 75% 2.0 mph NE3.2 kmh NE 10.0 mph16.1 kmh 29.75 in1007.5 mb 0.00 in0.0 mm 0.00 in0.0 mm 0.00 in0.0 mm
02:34 AM 52.9°F11.6°C 45.2°F7.3°C 75% 1.0 mph NE1.6 kmh NE 10.0 mph16.1 kmh 29.75 in1007.5 mb 0.00 in0.0 mm 0.00 in0.0 mm 0.00 in0.0 mm
02:35 AM 52.9°F11.6°C 45.2°F7.3°C 75% 1.0 mph NE1.6 kmh NE 10.0 mph16.1 kmh 29.75 in1007.5 mb 0.00 in0.0 mm 0.00 in0.0 mm 0.00 in0.0 mm
02:38 AM 53.0°F11.7°C 45.3°F7.4°C 75% 1.0 mph NE1.6 kmh NE 10.0 mph16.1 kmh 29.75 in1007.5 mb 0.00 in0.0 mm 0.00 in0.0 mm 0.00 in0.0 mm
02:39 AM 53.0°F11.7°C 45.3°F7.4°C 75% Calm Calm 10.0 mph16.1 kmh 29.75 in1007.5 mb 0.00 in0.0 mm 0.00 in0.0 mm 0.00 in0.0 mm
02:40 AM 52.9°F11.6°C 45.2°F7.3°C 75% Calm Calm 10.0 mph16.1 kmh 29.75 in1007.5 mb 0.00 in0.0 mm 0.00 in0.0 mm 0.00 in0.0 mm
02:43 AM 52.9°F11.6°C 45.2°F7.3°C 75% 4.0 mph NE6.4 kmh NE 10.0 mph16.1 kmh 29.75 in1007.5 mb 0.00 in0.0 mm 0.00 in0.0 mm 0.00 in0.0 mm
02:44 AM 52.9°F11.6°C 45.2°F7.3°C 75% 1.0 mph NE1.6 kmh NE 10.0 mph16.1 kmh 29.75 in1007.5 mb 0.00 in0.0 mm 0.00 in0.0 mm 0.00 in0.0 mm
02:45 AM 52.8°F11.6°C 45.1°F7.3°C 75% 2.0 mph NE3.2 kmh NE 10.0 mph16.1 kmh 29.75 in1007.5 mb 0.00 in0.0 mm 0.00 in0.0 mm 0.00 in0.0 mm
02:48 AM 52.8°F11.6°C 45.1°F7.3°C 75% Calm Calm 10.0 mph16.1 kmh 29.75 in1007.5 mb 0.00 in0.0 mm 0.00 in0.0 mm 0.00 in0.0 mm
02:49 AM 52.7°F11.5°C 45.0°F7.2°C 75% 1.0 mph NE1.6 kmh NE 10.0 mph16.1 kmh 29.75 in1007.5 mb 0.00 in0.0 mm 0.00 in0.0 mm 0.00 in0.0 mm
02:50 AM 52.7°F11.5°C 45.0°F7.2°C 75% 1.0 mph NE1.6 kmh NE 10.0 mph16.1 kmh 29.75 in1007.5 mb 0.00 in0.0 mm 0.00 in0.0 mm 0.00 in0.0 mm
02:53 AM 52.7°F11.5°C 45.0°F7.2°C 75% 1.0 mph NE1.6 kmh NE 10.0 mph16.1 kmh 29.75 in1007.5 mb 0.00 in0.0 mm 0.00 in0.0 mm 0.00 in0.0 mm
02:54 AM 52.7°F11.5°C 45.0°F7.2°C 75% 1.0 mph NE1.6 kmh NE 10.0 mph16.1 kmh 29.75 in1007.5 mb 0.00 in0.0 mm 0.00 in0.0 mm 0.00 in0.0 mm
02:55 AM 52.7°F11.5°C 45.0°F7.2°C 75% Calm Calm 10.0 mph16.1 kmh 29.75 in1007.5 mb 0.00 in0.0 mm 0.00 in0.0 mm 0.00 in0.0 mm
02:58 AM 52.6°F11.4°C 44.9°F7.2°C 75% 1.0 mph NE1.6 kmh NE 10.0 mph16.1 kmh 29.75 in1007.5 mb 0.00 in0.0 mm 0.00 in0.0 mm 0.00 in0.0 mm
02:59 AM 52.6°F11.4°C 44.9°F7.2°C 75% 4.0 mph NE6.4 kmh NE 10.0 mph16.1 kmh 29.75 in1007.5 mb 0.00 in0.0 mm 0.00 in0.0 mm 0.00 in0.0 mm
03:00 AM 52.6°F11.4°C 44.9°F7.2°C 75% 1.0 mph NE1.6 kmh NE 2.0 mph3.2 kmh 29.75 in1007.5 mb 0.00 in0.0 mm 0.00 in0.0 mm 0.00 in0.0 mm
03:03 AM 52.5°F11.4°C 44.8°F7.1°C 75% Calm Calm 4.0 mph6.4 kmh 29.75 in1007.5 mb 0.00 in0.0 mm 0.00 in0.0 mm 0.00 in0.0 mm
03:04 AM 52.5°F11.4°C 44.8°F7.1°C 75% 2.0 mph NE3.2 kmh NE 4.0 mph6.4 kmh 29.75 in1007.5 mb 0.00 in0.0 mm 0.00 in0.0 mm 0.00 in0.0 mm
03:05 AM 52.5°F11.4°C 44.8°F7.1°C 75% 3.0 mph NE4.8 kmh NE 5.0 mph8.0 kmh 29.75 in1007.5 mb 0.00 in0.0 mm 0.00 in0.0 mm 0.00 in0.0 mm
03:08 AM 52.6°F11.4°C 45.3°F7.4°C 76% 1.0 mph NE1.6 kmh NE 6.0 mph9.7 kmh 29.75 in1007.5 mb 0.00 in0.0 mm 0.00 in0.0 mm 0.00 in0.0 mm
03:09 AM 52.6°F11.4°C 45.3°F7.4°C 76% 7.0 mph NE11.3 kmh NE 7.0 mph11.3 kmh 29.75 in1007.5 mb 0.00 in0.0 mm 0.00 in0.0 mm 0.00 in0.0 mm
03:10 AM 52.6°F11.4°C 45.3°F7.4°C 76% 1.0 mph NE1.6 kmh NE 8.0 mph12.9 kmh 29.75 in1007.5 mb 0.00 in0.0 mm 0.00 in0.0 mm 0.00 in0.0 mm
03:13 AM 52.6°F11.4°C 45.3°F7.4°C 76% 1.0 mph NE1.6 kmh NE 8.0 mph12.9 kmh 29.75 in1007.5 mb 0.00 in0.0 mm 0.00 in0.0 mm 0.00 in0.0 mm
03:14 AM 52.6°F11.4°C 45.3°F7.4°C 76% Calm Calm 8.0 mph12.9 kmh 29.75 in1007.5 mb 0.00 in0.0 mm 0.00 in0.0 mm 0.00 in0.0 mm
03:15 AM 52.5°F11.4°C 45.2°F7.3°C 76% Calm Calm 8.0 mph12.9 kmh 29.75 in1007.5 mb 0.00 in0.0 mm 0.00 in0.0 mm 0.00 in0.0 mm
03:18 AM 52.5°F11.4°C 45.2°F7.3°C 76% 1.0 mph NE1.6 kmh NE 8.0 mph12.9 kmh 29.75 in1007.5 mb 0.00 in0.0 mm 0.00 in0.0 mm 0.00 in0.0 mm
03:19 AM 52.5°F11.4°C 45.2°F7.3°C 76% 2.0 mph NE3.2 kmh NE 8.0 mph12.9 kmh 29.75 in1007.5 mb 0.00 in0.0 mm 0.00 in0.0 mm 0.00 in0.0 mm
03:20 AM 52.5°F11.4°C 45.2°F7.3°C 76% Calm Calm 8.0 mph12.9 kmh 29.75 in1007.5 mb 0.00 in0.0 mm 0.00 in0.0 mm 0.00 in0.0 mm
03:23 AM 52.4°F11.3°C 45.1°F7.3°C 76% 4.0 mph NE6.4 kmh NE 8.0 mph12.9 kmh 29.75 in1007.5 mb 0.00 in0.0 mm 0.00 in0.0 mm 0.00 in0.0 mm
03:24 AM 52.4°F11.3°C 45.1°F7.3°C 76% 3.0 mph NE4.8 kmh NE 8.0 mph12.9 kmh 29.75 in1007.5 mb 0.00 in0.0 mm 0.00 in0.0 mm 0.00 in0.0 mm
03:25 AM 52.4°F11.3°C 45.1°F7.3°C 76% 2.0 mph NE3.2 kmh NE 8.0 mph12.9 kmh 29.75 in1007.5 mb 0.00 in0.0 mm 0.00 in0.0 mm 0.00 in0.0 mm
03:28 AM 52.4°F11.3°C 45.1°F7.3°C 76% Calm Calm 8.0 mph12.9 kmh 29.75 in1007.5 mb 0.00 in0.0 mm 0.00 in0.0 mm 0.00 in0.0 mm
03:29 AM 52.3°F11.3°C 45.0°F7.2°C 76% Calm Calm 8.0 mph12.9 kmh 29.75 in1007.5 mb 0.00 in0.0 mm 0.00 in0.0 mm 0.00 in0.0 mm
03:30 AM 52.3°F11.3°C 45.0°F7.2°C 76% Calm Calm 8.0 mph12.9 kmh 29.75 in1007.5 mb 0.00 in0.0 mm 0.00 in0.0 mm 0.00 in0.0 mm
03:33 AM 52.3°F11.3°C 45.3°F7.4°C 77% Calm Calm 8.0 mph12.9 kmh 29.75 in1007.5 mb 0.00 in0.0 mm 0.00 in0.0 mm 0.00 in0.0 mm
03:34 AM 52.2°F11.2°C 45.2°F7.3°C 77% 1.0 mph NE1.6 kmh NE 8.0 mph12.9 kmh 29.75 in1007.5 mb 0.00 in0.0 mm 0.00 in0.0 mm 0.00 in0.0 mm
03:35 AM 52.3°F11.3°C 45.3°F7.4°C 77% 3.0 mph NE4.8 kmh NE 8.0 mph12.9 kmh 29.75 in1007.5 mb 0.00 in0.0 mm 0.00 in0.0 mm 0.00 in0.0 mm
03:38 AM 52.2°F11.2°C 45.2°F7.3°C 77% Calm Calm 8.0 mph12.9 kmh 29.75 in1007.5 mb 0.00 in0.0 mm 0.00 in0.0 mm 0.00 in0.0 mm
03:39 AM 52.2°F11.2°C 45.2°F7.3°C 77% 1.0 mph NE1.6 kmh NE 8.0 mph12.9 kmh 29.75 in1007.5 mb 0.00 in0.0 mm 0.00 in0.0 mm 0.00 in0.0 mm
03:40 AM 52.2°F11.2°C 45.2°F7.3°C 77% Calm Calm 8.0 mph12.9 kmh 29.75 in1007.5 mb 0.00 in0.0 mm 0.00 in0.0 mm 0.00 in0.0 mm
03:43 AM 52.1°F11.2°C 45.1°F7.3°C 77% 4.0 mph NE6.4 kmh NE 8.0 mph12.9 kmh 29.75 in1007.5 mb 0.00 in0.0 mm 0.00 in0.0 mm 0.00 in0.0 mm
03:44 AM 52.1°F11.2°C 45.1°F7.3°C 77% 3.0 mph NE4.8 kmh NE 8.0 mph12.9 kmh 29.75 in1007.5 mb 0.00 in0.0 mm 0.00 in0.0 mm 0.00 in0.0 mm
03:45 AM 52.1°F11.2°C 45.1°F7.3°C 77% 5.0 mph NE8.0 kmh NE 8.0 mph12.9 kmh 29.75 in1007.5 mb 0.00 in0.0 mm 0.00 in0.0 mm 0.00 in0.0 mm
03:48 AM 52.1°F11.2°C 45.1°F7.3°C 77% Calm Calm 8.0 mph12.9 kmh 29.75 in1007.5 mb 0.00 in0.0 mm 0.00 in0.0 mm 0.00 in0.0 mm
03:49 AM 52.1°F11.2°C 45.1°F7.3°C 77% Calm Calm 8.0 mph12.9 kmh 29.75 in1007.5 mb 0.00 in0.0 mm 0.00 in0.0 mm 0.00 in0.0 mm
03:50 AM 52.1°F11.2°C 45.1°F7.3°C 77% 1.0 mph NE1.6 kmh NE 8.0 mph12.9 kmh 29.75 in1007.5 mb 0.00 in0.0 mm 0.00 in0.0 mm 0.00 in0.0 mm
03:53 AM 52.0°F11.1°C 45.0°F7.2°C 77% Calm Calm 8.0 mph12.9 kmh 29.75 in1007.5 mb 0.00 in0.0 mm 0.00 in0.0 mm 0.00 in0.0 mm
03:54 AM 52.0°F11.1°C 45.0°F7.2°C 77% 3.0 mph NE4.8 kmh NE 8.0 mph12.9 kmh 29.75 in1007.5 mb 0.00 in0.0 mm 0.00 in0.0 mm 0.00 in0.0 mm
03:55 AM 52.0°F11.1°C 45.0°F7.2°C 77% Calm Calm 8.0 mph12.9 kmh 29.75 in1007.5 mb 0.00 in0.0 mm 0.00 in0.0 mm 0.00 in0.0 mm
03:58 AM 52.0°F11.1°C 45.0°F7.2°C 77% Calm Calm 8.0 mph12.9 kmh 29.75 in1007.5 mb 0.00 in0.0 mm 0.00 in0.0 mm 0.00 in0.0 mm
03:59 AM 52.0°F11.1°C 45.0°F7.2°C 77% 1.0 mph NE1.6 kmh NE 8.0 mph12.9 kmh 29.75 in1007.5 mb 0.00 in0.0 mm 0.00 in0.0 mm 0.00 in0.0 mm
04:00 AM 52.0°F11.1°C 45.0°F7.2°C 77% Calm Calm -- 29.75 in1007.5 mb 0.00 in0.0 mm 0.00 in0.0 mm 0.00 in0.0 mm
04:03 AM 51.9°F11.1°C 45.3°F7.4°C 78% 1.0 mph NE1.6 kmh NE 4.0 mph6.4 kmh 29.75 in1007.5 mb 0.00 in0.0 mm 0.00 in0.0 mm 0.00 in0.0 mm
04:04 AM 51.9°F11.1°C 45.3°F7.4°C 78% 1.0 mph NE1.6 kmh NE 4.0 mph6.4 kmh 29.75 in1007.5 mb 0.00 in0.0 mm 0.00 in0.0 mm 0.00 in0.0 mm
04:05 AM 51.9°F11.1°C 45.3°F7.4°C 78% Calm Calm 4.0 mph6.4 kmh 29.75 in1007.5 mb 0.00 in0.0 mm 0.00 in0.0 mm 0.00 in0.0 mm
04:08 AM 51.8°F11.0°C 45.2°F7.3°C 78% Calm Calm 5.0 mph8.0 kmh 29.75 in1007.5 mb 0.00 in0.0 mm 0.00 in0.0 mm 0.00 in0.0 mm
04:09 AM 51.8°F11.0°C 45.2°F7.3°C 78% Calm Calm 5.0 mph8.0 kmh 29.75 in1007.5 mb 0.00 in0.0 mm 0.00 in0.0 mm 0.00 in0.0 mm
04:10 AM 51.8°F11.0°C 45.2°F7.3°C 78% Calm Calm 5.0 mph8.0 kmh 29.75 in1007.5 mb 0.00 in0.0 mm 0.00 in0.0 mm 0.00 in0.0 mm
04:13 AM 51.8°F11.0°C 45.2°F7.3°C 78% Calm Calm 5.0 mph8.0 kmh 29.76 in1007.8 mb 0.00 in0.0 mm 0.00 in0.0 mm 0.00 in0.0 mm
04:14 AM 51.7°F10.9°C 45.1°F7.3°C 78% Calm Calm 5.0 mph8.0 kmh 29.76 in1007.8 mb 0.00 in0.0 mm 0.00 in0.0 mm 0.00 in0.0 mm
04:15 AM 51.7°F10.9°C 45.1°F7.3°C 78% Calm Calm 5.0 mph8.0 kmh 29.75 in1007.5 mb 0.00 in0.0 mm 0.00 in0.0 mm 0.00 in0.0 mm
04:18 AM 51.6°F10.9°C 45.0°F7.2°C 78% 1.0 mph NE1.6 kmh NE 5.0 mph8.0 kmh 29.76 in1007.8 mb 0.00 in0.0 mm 0.00 in0.0 mm 0.00 in0.0 mm
04:19 AM 51.6°F10.9°C 45.0°F7.2°C 78% Calm Calm 5.0 mph8.0 kmh 29.76 in1007.8 mb 0.00 in0.0 mm 0.00 in0.0 mm 0.00 in0.0 mm
04:20 AM 51.6°F10.9°C 45.0°F7.2°C 78% Calm Calm 5.0 mph8.0 kmh 29.76 in1007.8 mb 0.00 in0.0 mm 0.00 in0.0 mm 0.00 in0.0 mm
04:23 AM 51.5°F10.8°C 44.9°F7.2°C 78% Calm Calm 5.0 mph8.0 kmh 29.76 in1007.8 mb 0.00 in0.0 mm 0.00 in0.0 mm 0.00 in0.0 mm
04:24 AM 51.5°F10.8°C 45.2°F7.3°C 79% 3.0 mph NE4.8 kmh NE 7.0 mph11.3 kmh 29.76 in1007.8 mb 0.00 in0.0 mm 0.00 in0.0 mm 0.00 in0.0 mm
04:25 AM 51.5°F10.8°C 45.2°F7.3°C 79% Calm Calm 7.0 mph11.3 kmh 29.76 in1007.8 mb 0.00 in0.0 mm 0.00 in0.0 mm 0.00 in0.0 mm
04:28 AM 51.5°F10.8°C 45.2°F7.3°C 79% Calm Calm 7.0 mph11.3 kmh 29.76 in1007.8 mb 0.00 in0.0 mm 0.00 in0.0 mm 0.00 in0.0 mm
04:29 AM 51.5°F10.8°C 45.2°F7.3°C 79% Calm Calm 7.0 mph11.3 kmh 29.76 in1007.8 mb 0.00 in0.0 mm 0.00 in0.0 mm 0.00 in0.0 mm
04:30 AM 51.5°F10.8°C 45.2°F7.3°C 79% 2.0 mph NE3.2 kmh NE 7.0 mph11.3 kmh 29.76 in1007.8 mb 0.00 in0.0 mm 0.00 in0.0 mm 0.00 in0.0 mm
04:33 AM 51.5°F10.8°C 45.2°F7.3°C 79% Calm Calm 7.0 mph11.3 kmh 29.76 in1007.8 mb 0.00 in0.0 mm 0.00 in0.0 mm 0.00 in0.0 mm
04:34 AM 51.4°F10.8°C 45.1°F7.3°C 79% 1.0 mph NE1.6 kmh NE 7.0 mph11.3 kmh 29.76 in1007.8 mb 0.00 in0.0 mm 0.00 in0.0 mm 0.00 in0.0 mm
04:35 AM 51.4°F10.8°C 45.1°F7.3°C 79% 1.0 mph NE1.6 kmh NE 7.0 mph11.3 kmh 29.76 in1007.8 mb 0.00 in0.0 mm 0.00 in0.0 mm 0.00 in0.0 mm
04:38 AM 51.4°F10.8°C 45.1°F7.3°C 79% 4.0 mph NE6.4 kmh NE 7.0 mph11.3 kmh 29.76 in1007.8 mb 0.00 in0.0 mm 0.00 in0.0 mm 0.00 in0.0 mm
04:39 AM 51.4°F10.8°C 45.1°F7.3°C 79% Calm Calm 7.0 mph11.3 kmh 29.76 in1007.8 mb 0.00 in0.0 mm 0.00 in0.0 mm 0.00 in0.0 mm
04:40 AM 51.4°F10.8°C 45.1°F7.3°C 79% 1.0 mph NE1.6 kmh NE 7.0 mph11.3 kmh 29.76 in1007.8 mb 0.00 in0.0 mm 0.00 in0.0 mm 0.00 in0.0 mm
04:43 AM 51.3°F10.7°C 45.0°F7.2°C 79% 3.0 mph NE4.8 kmh NE 7.0 mph11.3 kmh 29.76 in1007.8 mb 0.00 in0.0 mm 0.00 in0.0 mm 0.00 in0.0 mm
04:44 AM 51.3°F10.7°C 45.0°F7.2°C 79% 1.0 mph NE1.6 kmh NE 7.0 mph11.3 kmh 29.76 in1007.8 mb 0.00 in0.0 mm 0.00 in0.0 mm 0.00 in0.0 mm
04:45 AM 51.2°F10.7°C 44.9°F7.2°C 79% Calm Calm 7.0 mph11.3 kmh 29.76 in1007.8 mb 0.00 in0.0 mm 0.00 in0.0 mm 0.00 in0.0 mm
04:48 AM 51.1°F10.6°C 45.2°F7.3°C 80% 3.0 mph NE4.8 kmh NE 7.0 mph11.3 kmh 29.76 in1007.8 mb 0.00 in0.0 mm 0.00 in0.0 mm 0.00 in0.0 mm
04:49 AM 51.1°F10.6°C 45.2°F7.3°C 80% Calm Calm 7.0 mph11.3 kmh 29.76 in1007.8 mb 0.00 in0.0 mm 0.00 in0.0 mm 0.00 in0.0 mm
04:50 AM 51.1°F10.6°C 45.2°F7.3°C 80% Calm Calm 7.0 mph11.3 kmh 29.76 in1007.8 mb 0.00 in0.0 mm 0.00 in0.0 mm 0.00 in0.0 mm
04:53 AM 51.0°F10.6°C 45.1°F7.3°C 80% 1.0 mph NE1.6 kmh NE 7.0 mph11.3 kmh 29.76 in1007.8 mb 0.00 in0.0 mm 0.00 in0.0 mm 0.00 in0.0 mm
04:54 AM 51.0°F10.6°C 45.1°F7.3°C 80% Calm Calm 7.0 mph11.3 kmh 29.76 in1007.8 mb 0.00 in0.0 mm 0.00 in0.0 mm 0.00 in0.0 mm
04:55 AM 51.0°F10.6°C 45.1°F7.3°C 80% 1.0 mph NE1.6 kmh NE 7.0 mph11.3 kmh 29.76 in1007.8 mb 0.00 in0.0 mm 0.00 in0.0 mm 0.00 in0.0 mm
04:58 AM 51.0°F10.6°C 45.1°F7.3°C 80% Calm Calm 7.0 mph11.3 kmh 29.76 in1007.8 mb 0.00 in0.0 mm 0.00 in0.0 mm 0.00 in0.0 mm
04:59 AM 50.9°F10.5°C 45.0°F7.2°C 80% Calm Calm 7.0 mph11.3 kmh 29.76 in1007.8 mb 0.00 in0.0 mm 0.00 in0.0 mm 0.00 in0.0 mm
05:00 AM 50.9°F10.5°C 45.0°F7.2°C 80% Calm Calm -- 29.76 in1007.8 mb 0.00 in0.0 mm 0.00 in0.0 mm 0.00 in0.0 mm
05:03 AM 50.9°F10.5°C 45.3°F7.4°C 81% 2.0 mph NE3.2 kmh NE 4.0 mph6.4 kmh 29.76 in1007.8 mb 0.00 in0.0 mm 0.00 in0.0 mm 0.00 in0.0 mm
05:04 AM 50.9°F10.5°C 45.3°F7.4°C 81% Calm Calm 4.0 mph6.4 kmh 29.77 in1008.1 mb 0.00 in0.0 mm 0.00 in0.0 mm 0.00 in0.0 mm
05:05 AM 50.9°F10.5°C 45.3°F7.4°C 81% Calm Calm 4.0 mph6.4 kmh 29.77 in1008.1 mb 0.00 in0.0 mm 0.00 in0.0 mm 0.00 in0.0 mm
05:08 AM 50.8°F10.4°C 45.2°F7.3°C 81% Calm Calm 5.0 mph8.0 kmh 29.77 in1008.1 mb 0.00 in0.0 mm 0.00 in0.0 mm 0.00 in0.0 mm
05:09 AM 50.8°F10.4°C 45.2°F7.3°C 81% Calm Calm 5.0 mph8.0 kmh 29.77 in1008.1 mb 0.00 in0.0 mm 0.00 in0.0 mm 0.00 in0.0 mm
05:10 AM 50.8°F10.4°C 45.2°F7.3°C 81% Calm Calm 5.0 mph8.0 kmh 29.77 in1008.1 mb 0.00 in0.0 mm 0.00 in0.0 mm 0.00 in0.0 mm
05:13 AM 50.7°F10.4°C 45.1°F7.3°C 81% Calm Calm 5.0 mph8.0 kmh 29.77 in1008.1 mb 0.00 in0.0 mm 0.00 in0.0 mm 0.00 in0.0 mm
05:14 AM 50.7°F10.4°C 45.1°F7.3°C 81% Calm Calm 5.0 mph8.0 kmh 29.77 in1008.1 mb 0.00 in0.0 mm 0.00 in0.0 mm 0.00 in0.0 mm
05:15 AM 50.7°F10.4°C 45.1°F7.3°C 81% Calm Calm 5.0 mph8.0 kmh 29.77 in1008.1 mb 0.00 in0.0 mm 0.00 in0.0 mm 0.00 in0.0 mm
05:18 AM 50.7°F10.4°C 45.1°F7.3°C 81% Calm Calm 5.0 mph8.0 kmh 29.77 in1008.1 mb 0.00 in0.0 mm 0.00 in0.0 mm 0.00 in0.0 mm
05:19 AM 50.6°F10.3°C 45.0°F7.2°C 81% Calm Calm 5.0 mph8.0 kmh 29.77 in1008.1 mb 0.00 in0.0 mm 0.00 in0.0 mm 0.00 in0.0 mm
05:20 AM 50.7°F10.4°C 45.1°F7.3°C 81% 2.0 mph NE3.2 kmh NE 5.0 mph8.0 kmh 29.77 in1008.1 mb 0.00 in0.0 mm 0.00 in0.0 mm 0.00 in0.0 mm
05:23 AM 50.7°F10.4°C 45.1°F7.3°C 81% Calm Calm 5.0 mph8.0 kmh 29.77 in1008.1 mb 0.00 in0.0 mm 0.00 in0.0 mm 0.00 in0.0 mm
05:24 AM 50.7°F10.4°C 45.1°F7.3°C 81% Calm Calm 5.0 mph8.0 kmh 29.77 in1008.1 mb 0.00 in0.0 mm 0.00 in0.0 mm 0.00 in0.0 mm
05:25 AM 50.7°F10.4°C 45.1°F7.3°C 81% 6.0 mph NE9.7 kmh NE 6.0 mph9.7 kmh 29.77 in1008.1 mb 0.00 in0.0 mm 0.00 in0.0 mm 0.00 in0.0 mm
05:28 AM 50.7°F10.4°C 45.1°F7.3°C 81% Calm Calm 7.0 mph11.3 kmh 29.77 in1008.1 mb 0.00 in0.0 mm 0.00 in0.0 mm 0.00 in0.0 mm
05:29 AM 50.7°F10.4°C 45.1°F7.3°C 81% Calm Calm 7.0 mph11.3 kmh 29.77 in1008.1 mb 0.00 in0.0 mm 0.00 in0.0 mm 0.00 in0.0 mm
05:30 AM 50.7°F10.4°C 45.1°F7.3°C 81% Calm Calm 7.0 mph11.3 kmh 29.77 in1008.1 mb 0.00 in0.0 mm 0.00 in0.0 mm 0.00 in0.0 mm
05:33 AM 50.6°F10.3°C 45.0°F7.2°C 81% Calm Calm 7.0 mph11.3 kmh 29.78 in1008.5 mb 0.00 in0.0 mm 0.00 in0.0 mm 0.00 in0.0 mm
05:34 AM 50.6°F10.3°C 45.0°F7.2°C 81% Calm Calm 7.0 mph11.3 kmh 29.77 in1008.1 mb 0.00 in0.0 mm 0.00 in0.0 mm 0.00 in0.0 mm
05:35 AM 50.6°F10.3°C 45.0°F7.2°C 81% Calm Calm 7.0 mph11.3 kmh 29.78 in1008.5 mb 0.00 in0.0 mm 0.00 in0.0 mm 0.00 in0.0 mm
05:38 AM 50.5°F10.3°C 45.2°F7.3°C 82% Calm Calm 7.0 mph11.3 kmh 29.78 in1008.5 mb 0.00 in0.0 mm 0.00 in0.0 mm 0.00 in0.0 mm
05:39 AM 50.4°F10.2°C 45.1°F7.3°C 82% Calm Calm 7.0 mph11.3 kmh 29.78 in1008.5 mb 0.00 in0.0 mm 0.00 in0.0 mm 0.00 in0.0 mm
05:40 AM 50.4°F10.2°C 45.1°F7.3°C 82% Calm Calm 7.0 mph11.3 kmh 29.78 in1008.5 mb 0.00 in0.0 mm 0.00 in0.0 mm 0.00 in0.0 mm
05:43 AM 50.4°F10.2°C 45.1°F7.3°C 82% Calm Calm 7.0 mph11.3 kmh 29.78 in1008.5 mb 0.00 in0.0 mm 0.00 in0.0 mm 0.00 in0.0 mm
05:44 AM 50.4°F10.2°C 45.1°F7.3°C 82% 1.0 mph NE1.6 kmh NE 7.0 mph11.3 kmh 29.78 in1008.5 mb 0.00 in0.0 mm 0.00 in0.0 mm 0.00 in0.0 mm
05:45 AM 50.4°F10.2°C 45.1°F7.3°C 82% Calm Calm 7.0 mph11.3 kmh 29.78 in1008.5 mb 0.00 in0.0 mm 0.00 in0.0 mm 0.00 in0.0 mm
05:48 AM 50.3°F10.2°C 45.0°F7.2°C 82% Calm Calm 7.0 mph11.3 kmh 29.78 in1008.5 mb 0.00 in0.0 mm 0.00 in0.0 mm 0.00 in0.0 mm
05:49 AM 50.3°F10.2°C 45.0°F7.2°C 82% Calm Calm 7.0 mph11.3 kmh 29.78 in1008.5 mb 0.00 in0.0 mm 0.00 in0.0 mm 0.00 in0.0 mm
05:50 AM 50.3°F10.2°C 45.0°F7.2°C 82% Calm Calm 7.0 mph11.3 kmh 29.78 in1008.5 mb 0.00 in0.0 mm 0.00 in0.0 mm 0.00 in0.0 mm
05:53 AM 50.3°F10.2°C 45.0°F7.2°C 82% 2.0 mph NE3.2 kmh NE 7.0 mph11.3 kmh 29.78 in1008.5 mb 0.00 in0.0 mm 0.00 in0.0 mm 0.00 in0.0 mm
05:54 AM 50.2°F10.1°C 44.9°F7.2°C 82% 3.0 mph NE4.8 kmh NE 7.0 mph11.3 kmh 29.78 in1008.5 mb 0.00 in0.0 mm 0.00 in0.0 mm 0.00 in0.0 mm
05:55 AM 50.2°F10.1°C 44.9°F7.2°C 82% 2.0 mph NE3.2 kmh NE 7.0 mph11.3 kmh 29.78 in1008.5 mb 0.00 in0.0 mm 0.00 in0.0 mm 0.00 in0.0 mm
05:58 AM 50.2°F10.1°C 44.9°F7.2°C 82% Calm Calm 7.0 mph11.3 kmh 29.78 in1008.5 mb 0.00 in0.0 mm 0.00 in0.0 mm 0.00 in0.0 mm
05:59 AM 50.2°F10.1°C 44.9°F7.2°C 82% Calm Calm 7.0 mph11.3 kmh 29.78 in1008.5 mb 0.00 in0.0 mm 0.00 in0.0 mm 0.00 in0.0 mm
06:00 AM 50.2°F10.1°C 44.9°F7.2°C 82% 3.0 mph NE4.8 kmh NE 3.0 mph4.8 kmh 29.78 in1008.5 mb 0.00 in0.0 mm 0.00 in0.0 mm 0.00 in0.0 mm
06:03 AM 50.1°F10.1°C 45.2°F7.3°C 83% Calm Calm 4.0 mph6.4 kmh 29.78 in1008.5 mb 0.00 in0.0 mm 0.00 in0.0 mm 0.00 in0.0 mm
06:04 AM 50.1°F10.1°C 45.2°F7.3°C 83% Calm Calm 4.0 mph6.4 kmh 29.78 in1008.5 mb 0.00 in0.0 mm 0.00 in0.0 mm 0.00 in0.0 mm
06:05 AM 50.2°F10.1°C 45.2°F7.3°C 83% 1.0 mph NE1.6 kmh NE 4.0 mph6.4 kmh 29.78 in1008.5 mb 0.00 in0.0 mm 0.00 in0.0 mm 0.00 in0.0 mm
06:08 AM 50.1°F10.1°C 45.2°F7.3°C 83% Calm Calm 4.0 mph6.4 kmh 29.78 in1008.5 mb 0.00 in0.0 mm 0.00 in0.0 mm 0.00 in0.0 mm
06:09 AM 50.1°F10.1°C 45.2°F7.3°C 83% 4.0 mph NE6.4 kmh NE 4.0 mph6.4 kmh 29.78 in1008.5 mb 0.00 in0.0 mm 0.00 in0.0 mm 0.00 in0.0 mm
06:10 AM 50.1°F10.1°C 45.2°F7.3°C 83% 2.0 mph NE3.2 kmh NE 6.0 mph9.7 kmh 29.78 in1008.5 mb 0.00 in0.0 mm 0.00 in0.0 mm 0.00 in0.0 mm
06:13 AM 50.2°F10.1°C 45.2°F7.3°C 83% Calm Calm 6.0 mph9.7 kmh 29.78 in1008.5 mb 0.00 in0.0 mm 0.00 in0.0 mm 0.00 in0.0 mm
06:14 AM 50.2°F10.1°C 45.2°F7.3°C 83% Calm Calm 6.0 mph9.7 kmh 29.78 in1008.5 mb 0.00 in0.0 mm 0.00 in0.0 mm 0.00 in0.0 mm
06:15 AM 50.2°F10.1°C 45.2°F7.3°C 83% Calm Calm 6.0 mph9.7 kmh 29.78 in1008.5 mb 0.00 in0.0 mm 0.00 in0.0 mm 0.00 in0.0 mm
06:18 AM 50.2°F10.1°C 45.2°F7.3°C 83% Calm Calm 6.0 mph9.7 kmh 29.78 in1008.5 mb 0.00 in0.0 mm 0.00 in0.0 mm 0.00 in0.0 mm
06:19 AM 50.2°F10.1°C 45.2°F7.3°C 83% 2.0 mph NE3.2 kmh NE 6.0 mph9.7 kmh 29.79 in1008.8 mb 0.00 in0.0 mm 0.00 in0.0 mm 0.00 in0.0 mm
06:20 AM 50.2°F10.1°C 45.2°F7.3°C 83% Calm Calm 6.0 mph9.7 kmh 29.79 in1008.8 mb 0.00 in0.0 mm 0.00 in0.0 mm 0.00 in0.0 mm
06:23 AM 50.3°F10.2°C 45.3°F7.4°C 83% 3.0 mph NE4.8 kmh NE 6.0 mph9.7 kmh 29.79 in1008.8 mb 0.00 in0.0 mm 0.00 in0.0 mm 0.00 in0.0 mm
06:24 AM 50.2°F10.1°C 45.2°F7.3°C 83% 1.0 mph NE1.6 kmh NE 6.0 mph9.7 kmh 29.79 in1008.8 mb 0.00 in0.0 mm 0.00 in0.0 mm 0.00 in0.0 mm
06:25 AM 50.2°F10.1°C 45.2°F7.3°C 83% 1.0 mph NE1.6 kmh NE 6.0 mph9.7 kmh 29.79 in1008.8 mb 0.00 in0.0 mm 0.00 in0.0 mm 0.00 in0.0 mm
06:28 AM 50.2°F10.1°C 45.6°F7.6°C 84% 3.0 mph NE4.8 kmh NE 6.0 mph9.7 kmh 29.79 in1008.8 mb 0.00 in0.0 mm 0.00 in0.0 mm 0.00 in0.0 mm
06:29 AM 50.2°F10.1°C 45.6°F7.6°C 84% 1.0 mph NE1.6 kmh NE 6.0 mph9.7 kmh 29.79 in1008.8 mb 0.00 in0.0 mm 0.00 in0.0 mm 0.00 in0.0 mm
06:30 AM 50.2°F10.1°C 45.6°F7.6°C 84% Calm Calm 6.0 mph9.7 kmh 29.79 in1008.8 mb 0.00 in0.0 mm 0.00 in0.0 mm 0.00 in0.0 mm
06:33 AM 50.2°F10.1°C 45.6°F7.6°C 84% Calm Calm 6.0 mph9.7 kmh 29.79 in1008.8 mb 0.00 in0.0 mm 0.00 in0.0 mm 0.00 in0.0 mm
06:34 AM 50.1°F10.1°C 45.5°F7.5°C 84% Calm Calm 6.0 mph9.7 kmh 29.79 in1008.8 mb 0.00 in0.0 mm 0.00 in0.0 mm 0.00 in0.0 mm
06:35 AM 50.1°F10.1°C 45.5°F7.5°C 84% Calm Calm 6.0 mph9.7 kmh 29.79 in1008.8 mb 0.00 in0.0 mm 0.00 in0.0 mm 0.00 in0.0 mm
06:38 AM 50.1°F10.1°C 45.5°F7.5°C 84% 2.0 mph NE3.2 kmh NE 6.0 mph9.7 kmh 29.79 in1008.8 mb 0.00 in0.0 mm 0.00 in0.0 mm 0.00 in0.0 mm
06:39 AM 50.1°F10.1°C 45.5°F7.5°C 84% 1.0 mph NE1.6 kmh NE 6.0 mph9.7 kmh 29.79 in1008.8 mb 0.00 in0.0 mm 0.00 in0.0 mm 0.00 in0.0 mm
06:40 AM 50.1°F10.1°C 45.5°F7.5°C 84% 1.0 mph NE1.6 kmh NE 6.0 mph9.7 kmh 29.79 in1008.8 mb 0.00 in0.0 mm 0.00 in0.0 mm 0.00 in0.0 mm
06:43 AM 50.0°F10.0°C 45.4°F7.4°C 84% 1.0 mph NE1.6 kmh NE 6.0 mph9.7 kmh 29.79 in1008.8 mb 0.00 in0.0 mm 0.00 in0.0 mm 0.00 in0.0 mm
06:44 AM 50.0°F10.0°C 45.4°F7.4°C 84% 1.0 mph NE1.6 kmh NE 6.0 mph9.7 kmh 29.79 in1008.8 mb 0.00 in0.0 mm 0.00 in0.0 mm 0.00 in0.0 mm
06:45 AM 50.0°F10.0°C 45.4°F7.4°C 84% Calm Calm 6.0 mph9.7 kmh 29.79 in1008.8 mb 0.00 in0.0 mm 0.00 in0.0 mm 0.00 in0.0 mm
06:48 AM 50.0°F10.0°C 45.4°F7.4°C 84% Calm Calm 6.0 mph9.7 kmh 29.79 in1008.8 mb 0.00 in0.0 mm 0.00 in0.0 mm 0.00 in0.0 mm
06:49 AM 50.0°F10.0°C 45.4°F7.4°C 84% Calm Calm 6.0 mph9.7 kmh 29.79 in1008.8 mb 0.00 in0.0 mm 0.00 in0.0 mm 0.00 in0.0 mm
06:50 AM 50.0°F10.0°C 45.4°F7.4°C 84% Calm Calm 6.0 mph9.7 kmh 29.79 in1008.8 mb 0.00 in0.0 mm 0.00 in0.0 mm 0.00 in0.0 mm
06:53 AM 50.0°F10.0°C 45.4°F7.4°C 84% Calm Calm 6.0 mph9.7 kmh 29.79 in1008.8 mb 0.00 in0.0 mm 0.00 in0.0 mm 0.00 in0.0 mm
06:54 AM 50.0°F10.0°C 45.4°F7.4°C 84% Calm Calm 6.0 mph9.7 kmh 29.79 in1008.8 mb 0.00 in0.0 mm 0.00 in0.0 mm 0.00 in0.0 mm
06:55 AM 50.0°F10.0°C 45.4°F7.4°C 84% Calm Calm 6.0 mph9.7 kmh 29.79 in1008.8 mb 0.00 in0.0 mm 0.00 in0.0 mm 0.00 in0.0 mm
06:58 AM 50.1°F10.1°C 45.5°F7.5°C 84% 2.0 mph NE3.2 kmh NE 6.0 mph9.7 kmh 29.79 in1008.8 mb 0.00 in0.0 mm 0.00 in0.0 mm 0.00 in0.0 mm
06:59 AM 50.1°F10.1°C 45.5°F7.5°C 84% 2.0 mph NE3.2 kmh NE 6.0 mph9.7 kmh 29.79 in1008.8 mb 0.00 in0.0 mm 0.00 in0.0 mm 0.00 in0.0 mm
07:00 AM 50.1°F10.1°C 45.5°F7.5°C 84% 4.0 mph NE6.4 kmh NE 6.0 mph9.7 kmh 29.79 in1008.8 mb 0.00 in0.0 mm 0.00 in0.0 mm 0.00 in0.0 mm
07:03 AM 50.2°F10.1°C 45.6°F7.6°C 84% 2.0 mph NE3.2 kmh NE 6.0 mph9.7 kmh 29.79 in1008.8 mb 0.00 in0.0 mm 0.00 in0.0 mm 0.00 in0.0 mm
07:04 AM 50.2°F10.1°C 45.6°F7.6°C 84% 1.0 mph NE1.6 kmh NE 6.0 mph9.7 kmh 29.79 in1008.8 mb 0.00 in0.0 mm 0.00 in0.0 mm 0.00 in0.0 mm
07:05 AM 50.3°F10.2°C 45.7°F7.6°C 84% Calm Calm 6.0 mph9.7 kmh 29.79 in1008.8 mb 0.00 in0.0 mm 0.00 in0.0 mm 0.00 in0.0 mm
07:08 AM 50.3°F10.2°C 45.7°F7.6°C 84% 2.0 mph NE3.2 kmh NE 6.0 mph9.7 kmh 29.79 in1008.8 mb 0.00 in0.0 mm 0.00 in0.0 mm 0.00 in0.0 mm
07:09 AM 50.4°F10.2°C 45.8°F7.7°C 84% Calm Calm 6.0 mph9.7 kmh 29.79 in1008.8 mb 0.00 in0.0 mm 0.00 in0.0 mm 0.00 in0.0 mm
07:10 AM 50.4°F10.2°C 45.8°F7.7°C 84% Calm Calm 6.0 mph9.7 kmh 29.79 in1008.8 mb 0.00 in0.0 mm 0.00 in0.0 mm 0.00 in0.0 mm
07:13 AM 50.5°F10.3°C 45.9°F7.7°C 84% Calm Calm 6.0 mph9.7 kmh 29.80 in1009.1 mb 0.00 in0.0 mm 0.00 in0.0 mm 0.00 in0.0 mm
07:14 AM 50.5°F10.3°C 45.9°F7.7°C 84% Calm Calm 6.0 mph9.7 kmh 29.80 in1009.1 mb 0.00 in0.0 mm 0.00 in0.0 mm 0.00 in0.0 mm
07:15 AM 50.5°F10.3°C 45.9°F7.7°C 84% Calm Calm 6.0 mph9.7 kmh 29.80 in1009.1 mb 0.00 in0.0 mm 0.00 in0.0 mm 0.00 in0.0 mm
07:18 AM 50.6°F10.3°C 46.0°F7.8°C 84% 1.0 mph NE1.6 kmh NE 6.0 mph9.7 kmh 29.80 in1009.1 mb 0.00 in0.0 mm 0.00 in0.0 mm 0.00 in0.0 mm
07:19 AM 50.6°F10.3°C 46.0°F7.8°C 84% 2.0 mph NE3.2 kmh NE 6.0 mph9.7 kmh 29.80 in1009.1 mb 0.00 in0.0 mm 0.00 in0.0 mm 0.00 in0.0 mm
07:20 AM 50.7°F10.4°C 46.1°F7.8°C 84% Calm Calm 6.0 mph9.7 kmh 29.80 in1009.1 mb 0.00 in0.0 mm 0.00 in0.0 mm 0.00 in0.0 mm
07:23 AM 50.7°F10.4°C 46.1°F7.8°C 84% 4.0 mph NE6.4 kmh NE 6.0 mph9.7 kmh 29.80 in1009.1 mb 0.00 in0.0 mm 0.00 in0.0 mm 0.00 in0.0 mm
07:24 AM 50.8°F10.4°C 46.2°F7.9°C 84% Calm Calm 6.0 mph9.7 kmh 29.80 in1009.1 mb 0.00 in0.0 mm 0.00 in0.0 mm 0.00 in0.0 mm
07:25 AM 50.8°F10.4°C 46.2°F7.9°C 84% Calm Calm 6.0 mph9.7 kmh 29.80 in1009.1 mb 0.00 in0.0 mm 0.00 in0.0 mm 0.00 in0.0 mm
07:28 AM 50.9°F10.5°C 46.3°F7.9°C 84% 1.0 mph NE1.6 kmh NE 6.0 mph9.7 kmh 29.80 in1009.1 mb 0.00 in0.0 mm 0.00 in0.0 mm 0.00 in0.0 mm
07:29 AM 51.0°F10.6°C 46.3°F7.9°C 84% 5.0 mph NE8.0 kmh NE 10.0 mph16.1 kmh 29.80 in1009.1 mb 0.00 in0.0 mm 0.00 in0.0 mm 0.00 in0.0 mm
07:30 AM 51.0°F10.6°C 46.3°F7.9°C 84% Calm Calm 10.0 mph16.1 kmh 29.80 in1009.1 mb 0.00 in0.0 mm 0.00 in0.0 mm 0.00 in0.0 mm
07:33 AM 51.1°F10.6°C 46.4°F8.0°C 84% Calm Calm 10.0 mph16.1 kmh 29.80 in1009.1 mb 0.00 in0.0 mm 0.00 in0.0 mm 0.00 in0.0 mm
07:34 AM 51.1°F10.6°C 46.4°F8.0°C 84% Calm Calm 10.0 mph16.1 kmh 29.80 in1009.1 mb 0.00 in0.0 mm 0.00 in0.0 mm 0.00 in0.0 mm
07:35 AM 51.2°F10.7°C 46.5°F8.1°C 84% 3.0 mph NE4.8 kmh NE 10.0 mph16.1 kmh 29.80 in1009.1 mb 0.00 in0.0 mm 0.00 in0.0 mm 0.00 in0.0 mm
07:38 AM 51.3°F10.7°C 46.6°F8.1°C 84% 2.0 mph NE3.2 kmh NE 10.0 mph16.1 kmh 29.80 in1009.1 mb 0.00 in0.0 mm 0.00 in0.0 mm 0.00 in0.0 mm
07:39 AM 51.4°F10.8°C 46.7°F8.2°C 84% 1.0 mph NE1.6 kmh NE 10.0 mph16.1 kmh 29.80 in1009.1 mb 0.00 in0.0 mm 0.00 in0.0 mm 0.00 in0.0 mm
07:40 AM 51.4°F10.8°C 46.4°F8.0°C 83% 4.0 mph NE6.4 kmh NE 10.0 mph16.1 kmh 29.80 in1009.1 mb 0.00 in0.0 mm 0.00 in0.0 mm 0.00 in0.0 mm
07:43 AM 51.6°F10.9°C 46.6°F8.1°C 83% 3.0 mph NE4.8 kmh NE 11.0 mph17.7 kmh 29.80 in1009.1 mb 0.00 in0.0 mm 0.00 in0.0 mm 0.00 in0.0 mm
07:44 AM 51.6°F10.9°C 46.6°F8.1°C 83% 6.0 mph NE9.7 kmh NE 11.0 mph17.7 kmh 29.81 in1009.5 mb 0.00 in0.0 mm 0.00 in0.0 mm 0.00 in0.0 mm
07:45 AM 51.6°F10.9°C 46.6°F8.1°C 83% 1.0 mph NE1.6 kmh NE 11.0 mph17.7 kmh 29.80 in1009.1 mb 0.00 in0.0 mm 0.00 in0.0 mm 0.00 in0.0 mm
07:48 AM 51.8°F11.0°C 46.8°F8.2°C 83% 6.0 mph NE9.7 kmh NE 11.0 mph17.7 kmh 29.81 in1009.5 mb 0.00 in0.0 mm 0.00 in0.0 mm 0.00 in0.0 mm
07:49 AM 51.8°F11.0°C 46.8°F8.2°C 83% 3.0 mph NE4.8 kmh NE 11.0 mph17.7 kmh 29.81 in1009.5 mb 0.00 in0.0 mm 0.00 in0.0 mm 0.00 in0.0 mm
07:50 AM 51.8°F11.0°C 46.8°F8.2°C 83% 1.0 mph NE1.6 kmh NE 11.0 mph17.7 kmh 29.81 in1009.5 mb 0.00 in0.0 mm 0.00 in0.0 mm 0.00 in0.0 mm
07:53 AM 52.0°F11.1°C 47.0°F8.3°C 83% 1.0 mph NE1.6 kmh NE 11.0 mph17.7 kmh 29.81 in1009.5 mb 0.00 in0.0 mm 0.00 in0.0 mm 0.00 in0.0 mm
07:54 AM 52.0°F11.1°C 47.0°F8.3°C 83% Calm Calm 11.0 mph17.7 kmh 29.81 in1009.5 mb 0.00 in0.0 mm 0.00 in0.0 mm 0.00 in0.0 mm
07:55 AM 52.0°F11.1°C 47.0°F8.3°C 83% 1.0 mph NE1.6 kmh NE 11.0 mph17.7 kmh 29.81 in1009.5 mb 0.00 in0.0 mm 0.00 in0.0 mm 0.00 in0.0 mm
07:58 AM 52.2°F11.2°C 46.9°F8.3°C 82% 5.0 mph NE8.0 kmh NE 11.0 mph17.7 kmh 29.81 in1009.5 mb 0.00 in0.0 mm 0.00 in0.0 mm 0.00 in0.0 mm
07:59 AM 52.2°F11.2°C 46.9°F8.3°C 82% 6.0 mph NE9.7 kmh NE 11.0 mph17.7 kmh 29.81 in1009.5 mb 0.00 in0.0 mm 0.00 in0.0 mm 0.00 in0.0 mm
08:00 AM 52.2°F11.2°C 46.9°F8.3°C 82% 4.0 mph NE6.4 kmh NE 6.0 mph9.7 kmh 29.81 in1009.5 mb 0.00 in0.0 mm 0.00 in0.0 mm 0.00 in0.0 mm
08:03 AM 52.3°F11.3°C 47.0°F8.3°C 82% 1.0 mph NE1.6 kmh NE 6.0 mph9.7 kmh 29.81 in1009.5 mb 0.00 in0.0 mm 0.00 in0.0 mm 0.00 in0.0 mm
08:04 AM 52.3°F11.3°C 47.0°F8.3°C 82% 3.0 mph NE4.8 kmh NE 6.0 mph9.7 kmh 29.81 in1009.5 mb 0.00 in0.0 mm 0.00 in0.0 mm 0.00 in0.0 mm
08:05 AM 52.3°F11.3°C 47.0°F8.3°C 82% 3.0 mph NE4.8 kmh NE 6.0 mph9.7 kmh 29.81 in1009.5 mb 0.00 in0.0 mm 0.00 in0.0 mm 0.00 in0.0 mm
08:08 AM 52.4°F11.3°C 47.1°F8.4°C 82% Calm Calm 6.0 mph9.7 kmh 29.81 in1009.5 mb 0.00 in0.0 mm 0.00 in0.0 mm 0.00 in0.0 mm
08:09 AM 52.5°F11.4°C 47.2°F8.4°C 82% 1.0 mph NE1.6 kmh NE 6.0 mph9.7 kmh 29.81 in1009.5 mb 0.00 in0.0 mm 0.00 in0.0 mm 0.00 in0.0 mm
08:10 AM 52.5°F11.4°C 47.2°F8.4°C 82% 2.0 mph NE3.2 kmh NE 8.0 mph12.9 kmh 29.81 in1009.5 mb 0.00 in0.0 mm 0.00 in0.0 mm 0.00 in0.0 mm
08:13 AM 52.5°F11.4°C 46.9°F8.3°C 81% Calm Calm 9.0 mph14.5 kmh 29.81 in1009.5 mb 0.00 in0.0 mm 0.00 in0.0 mm 0.00 in0.0 mm
08:14 AM 52.5°F11.4°C 46.9°F8.3°C 81% 2.0 mph NE3.2 kmh NE 9.0 mph14.5 kmh 29.81 in1009.5 mb 0.00 in0.0 mm 0.00 in0.0 mm 0.00 in0.0 mm
08:15 AM 52.6°F11.4°C 46.9°F8.3°C 81% 3.0 mph NE4.8 kmh NE 9.0 mph14.5 kmh 29.81 in1009.5 mb 0.00 in0.0 mm 0.00 in0.0 mm 0.00 in0.0 mm
08:18 AM 52.7°F11.5°C 47.0°F8.3°C 81% 3.0 mph NE4.8 kmh NE 9.0 mph14.5 kmh 29.81 in1009.5 mb 0.00 in0.0 mm 0.00 in0.0 mm 0.00 in0.0 mm
08:19 AM 52.7°F11.5°C 47.0°F8.3°C 81% 1.0 mph NE1.6 kmh NE 9.0 mph14.5 kmh 29.81 in1009.5 mb 0.00 in0.0 mm 0.00 in0.0 mm 0.00 in0.0 mm
08:20 AM 52.7°F11.5°C 47.0°F8.3°C 81% 1.0 mph NE1.6 kmh NE 9.0 mph14.5 kmh 29.81 in1009.5 mb 0.00 in0.0 mm 0.00 in0.0 mm 0.00 in0.0 mm
08:23 AM 52.7°F11.5°C 47.0°F8.3°C 81% Calm Calm 9.0 mph14.5 kmh 29.82 in1009.8 mb 0.00 in0.0 mm 0.00 in0.0 mm 0.00 in0.0 mm
08:24 AM 52.7°F11.5°C 46.7°F8.2°C 80% 2.0 mph NE3.2 kmh NE 9.0 mph14.5 kmh 29.82 in1009.8 mb 0.00 in0.0 mm 0.00 in0.0 mm 0.00 in0.0 mm
08:25 AM 52.7°F11.5°C 46.7°F8.2°C 80% 2.0 mph NE3.2 kmh NE 9.0 mph14.5 kmh 29.82 in1009.8 mb 0.00 in0.0 mm 0.00 in0.0 mm 0.00 in0.0 mm
08:28 AM 52.7°F11.5°C 46.7°F8.2°C 80% 1.0 mph NE1.6 kmh NE 9.0 mph14.5 kmh 29.82 in1009.8 mb 0.00 in0.0 mm 0.00 in0.0 mm 0.00 in0.0 mm
08:29 AM 52.7°F11.5°C 46.7°F8.2°C 80% Calm Calm 9.0 mph14.5 kmh 29.82 in1009.8 mb 0.00 in0.0 mm 0.00 in0.0 mm 0.00 in0.0 mm
08:30 AM 52.7°F11.5°C 46.7°F8.2°C 80% 4.0 mph NE6.4 kmh NE 9.0 mph14.5 kmh 29.82 in1009.8 mb 0.00 in0.0 mm 0.00 in0.0 mm 0.00 in0.0 mm
08:33 AM 52.7°F11.5°C 46.7°F8.2°C 80% 4.0 mph NE6.4 kmh NE 9.0 mph14.5 kmh 29.82 in1009.8 mb 0.00 in0.0 mm 0.00 in0.0 mm 0.00 in0.0 mm
08:34 AM 52.8°F11.6°C 46.8°F8.2°C 80% 4.0 mph NE6.4 kmh NE 9.0 mph14.5 kmh 29.82 in1009.8 mb 0.00 in0.0 mm 0.00 in0.0 mm 0.00 in0.0 mm
08:35 AM 52.8°F11.6°C 46.8°F8.2°C 80% 2.0 mph NE3.2 kmh NE 9.0 mph14.5 kmh 29.82 in1009.8 mb 0.00 in0.0 mm 0.00 in0.0 mm 0.00 in0.0 mm
08:38 AM 52.8°F11.6°C 46.8°F8.2°C 80% 4.0 mph NE6.4 kmh NE 9.0 mph14.5 kmh 29.82 in1009.8 mb 0.00 in0.0 mm 0.00 in0.0 mm 0.00 in0.0 mm
08:39 AM 52.7°F11.5°C 46.7°F8.2°C 80% 6.0 mph NE9.7 kmh NE 9.0 mph14.5 kmh 29.82 in1009.8 mb 0.00 in0.0 mm 0.00 in0.0 mm 0.00 in0.0 mm
08:40 AM 52.7°F11.5°C 46.7°F8.2°C 80% 3.0 mph NE4.8 kmh NE 9.0 mph14.5 kmh 29.82 in1009.8 mb 0.00 in0.0 mm 0.00 in0.0 mm 0.00 in0.0 mm
08:43 AM 52.7°F11.5°C 46.7°F8.2°C 80% Calm Calm 9.0 mph14.5 kmh 29.82 in1009.8 mb 0.00 in0.0 mm 0.00 in0.0 mm 0.00 in0.0 mm
08:44 AM 52.7°F11.5°C 46.7°F8.2°C 80% 6.0 mph NE9.7 kmh NE 10.0 mph16.1 kmh 29.82 in1009.8 mb 0.00 in0.0 mm 0.00 in0.0 mm 0.00 in0.0 mm
08:45 AM 52.7°F11.5°C 46.7°F8.2°C 80% 7.0 mph NE11.3 kmh NE 13.0 mph20.9 kmh 29.82 in1009.8 mb 0.00 in0.0 mm 0.00 in0.0 mm 0.00 in0.0 mm
08:48 AM 52.6°F11.4°C 46.6°F8.1°C 80% 5.0 mph NE8.0 kmh NE 14.0 mph22.5 kmh 29.82 in1009.8 mb 0.00 in0.0 mm 0.00 in0.0 mm 0.00 in0.0 mm
08:49 AM 52.6°F11.4°C 46.6°F8.1°C 80% 8.0 mph NE12.9 kmh NE 14.0 mph22.5 kmh 29.82 in1009.8 mb 0.00 in0.0 mm 0.00 in0.0 mm 0.00 in0.0 mm
08:50 AM 52.5°F11.4°C 46.5°F8.1°C 80% 7.0 mph NE11.3 kmh NE 14.0 mph22.5 kmh 29.82 in1009.8 mb 0.00 in0.0 mm 0.00 in0.0 mm 0.00 in0.0 mm
08:53 AM 52.5°F11.4°C 46.5°F8.1°C 80% 1.0 mph NE1.6 kmh NE 14.0 mph22.5 kmh 29.82 in1009.8 mb 0.00 in0.0 mm 0.00 in0.0 mm 0.00 in0.0 mm
08:54 AM 52.5°F11.4°C 46.5°F8.1°C 80% 7.0 mph NE11.3 kmh NE 14.0 mph22.5 kmh 29.82 in1009.8 mb 0.00 in0.0 mm 0.00 in0.0 mm 0.00 in0.0 mm
08:55 AM 52.6°F11.4°C 46.6°F8.1°C 80% 4.0 mph NE6.4 kmh NE 14.0 mph22.5 kmh 29.82 in1009.8 mb 0.00 in0.0 mm 0.00 in0.0 mm 0.00 in0.0 mm
08:58 AM 52.5°F11.4°C 46.5°F8.1°C 80% 6.0 mph NE9.7 kmh NE 14.0 mph22.5 kmh 29.82 in1009.8 mb 0.00 in0.0 mm 0.00 in0.0 mm 0.00 in0.0 mm
08:59 AM 52.5°F11.4°C 46.5°F8.1°C 80% 3.0 mph NE4.8 kmh NE 14.0 mph22.5 kmh 29.82 in1009.8 mb 0.00 in0.0 mm 0.00 in0.0 mm 0.00 in0.0 mm
09:00 AM 52.5°F11.4°C 46.5°F8.1°C 80% 9.0 mph NE14.5 kmh NE 12.0 mph19.3 kmh 29.82 in1009.8 mb 0.00 in0.0 mm 0.00 in0.0 mm 0.00 in0.0 mm
09:03 AM 52.5°F11.4°C 46.5°F8.1°C 80% 2.0 mph NE3.2 kmh NE 12.0 mph19.3 kmh 29.82 in1009.8 mb 0.00 in0.0 mm 0.00 in0.0 mm 0.00 in0.0 mm
09:04 AM 52.6°F11.4°C 46.6°F8.1°C 80% Calm Calm 12.0 mph19.3 kmh 29.82 in1009.8 mb 0.00 in0.0 mm 0.00 in0.0 mm 0.00 in0.0 mm
09:05 AM 52.6°F11.4°C 46.6°F8.1°C 80% Calm Calm 12.0 mph19.3 kmh 29.82 in1009.8 mb 0.00 in0.0 mm 0.00 in0.0 mm 0.00 in0.0 mm
09:08 AM 52.8°F11.6°C 47.1°F8.4°C 81% 10.0 mph NE16.1 kmh NE 13.0 mph20.9 kmh 29.82 in1009.8 mb 0.00 in0.0 mm 0.00 in0.0 mm 0.00 in0.0 mm
09:09 AM 52.8°F11.6°C 46.8°F8.2°C 80% 4.0 mph NE6.4 kmh NE 13.0 mph20.9 kmh 29.82 in1009.8 mb 0.00 in0.0 mm 0.00 in0.0 mm 0.00 in0.0 mm
09:10 AM 52.8°F11.6°C 46.8°F8.2°C 80% 2.0 mph NE3.2 kmh NE 13.0 mph20.9 kmh 29.82 in1009.8 mb 0.00 in0.0 mm 0.00 in0.0 mm 0.00 in0.0 mm
09:13 AM 52.9°F11.6°C 46.9°F8.3°C 80% 2.0 mph NE3.2 kmh NE 13.0 mph20.9 kmh 29.82 in1009.8 mb 0.00 in0.0 mm 0.00 in0.0 mm 0.00 in0.0 mm
09:14 AM 53.0°F11.7°C 47.0°F8.3°C 80% Calm Calm 13.0 mph20.9 kmh 29.82 in1009.8 mb 0.00 in0.0 mm 0.00 in0.0 mm 0.00 in0.0 mm
09:15 AM 53.1°F11.7°C 47.1°F8.4°C 80% 5.0 mph NE8.0 kmh NE 13.0 mph20.9 kmh 29.82 in1009.8 mb 0.00 in0.0 mm 0.00 in0.0 mm 0.00 in0.0 mm
09:18 AM 53.2°F11.8°C 46.9°F8.3°C 79% 4.0 mph NE6.4 kmh NE 13.0 mph20.9 kmh 29.82 in1009.8 mb 0.00 in0.0 mm 0.00 in0.0 mm 0.00 in0.0 mm
09:19 AM 53.3°F11.8°C 47.3°F8.5°C 80% Calm Calm 13.0 mph20.9 kmh 29.82 in1009.8 mb 0.00 in0.0 mm 0.00 in0.0 mm 0.00 in0.0 mm
09:20 AM 53.4°F11.9°C 47.4°F8.6°C 80% 2.0 mph NE3.2 kmh NE 13.0 mph20.9 kmh 29.82 in1009.8 mb 0.00 in0.0 mm 0.00 in0.0 mm 0.00 in0.0 mm
09:23 AM 53.5°F11.9°C 47.2°F8.4°C 79% 11.0 mph NE17.7 kmh NE 13.0 mph20.9 kmh 29.82 in1009.8 mb 0.00 in0.0 mm 0.00 in0.0 mm 0.00 in0.0 mm
09:24 AM 53.6°F12.0°C 47.3°F8.5°C 79% 3.0 mph NE4.8 kmh NE 13.0 mph20.9 kmh 29.82 in1009.8 mb 0.00 in0.0 mm 0.00 in0.0 mm 0.00 in0.0 mm
09:25 AM 53.6°F12.0°C 46.9°F8.3°C 78% 5.0 mph NE8.0 kmh NE 13.0 mph20.9 kmh 29.83 in1010.2 mb 0.00 in0.0 mm 0.00 in0.0 mm 0.00 in0.0 mm
09:28 AM 53.6°F12.0°C 46.9°F8.3°C 78% Calm Calm 13.0 mph20.9 kmh 29.83 in1010.2 mb 0.00 in0.0 mm 0.00 in0.0 mm 0.00 in0.0 mm
09:29 AM 53.6°F12.0°C 46.9°F8.3°C 78% 5.0 mph NE8.0 kmh NE 13.0 mph20.9 kmh 29.83 in1010.2 mb 0.00 in0.0 mm 0.00 in0.0 mm 0.00 in0.0 mm
09:30 AM 53.7°F12.1°C 47.0°F8.3°C 78% 4.0 mph NE6.4 kmh NE 13.0 mph20.9 kmh 29.83 in1010.2 mb 0.00 in0.0 mm 0.00 in0.0 mm 0.00 in0.0 mm
09:33 AM 53.8°F12.1°C 47.1°F8.4°C 78% 6.0 mph NE9.7 kmh NE 13.0 mph20.9 kmh 29.83 in1010.2 mb 0.00 in0.0 mm 0.00 in0.0 mm 0.00 in0.0 mm
09:34 AM 53.7°F12.1°C 46.7°F8.2°C 77% 1.0 mph NE1.6 kmh NE 13.0 mph20.9 kmh 29.83 in1010.2 mb 0.00 in0.0 mm 0.00 in0.0 mm 0.00 in0.0 mm
09:35 AM 53.7°F12.1°C 47.0°F8.3°C 78% 6.0 mph NE9.7 kmh NE 13.0 mph20.9 kmh 29.83 in1010.2 mb 0.00 in0.0 mm 0.00 in0.0 mm 0.00 in0.0 mm
09:38 AM 53.7°F12.1°C 47.0°F8.3°C 78% 2.0 mph NE3.2 kmh NE 13.0 mph20.9 kmh 29.83 in1010.2 mb 0.00 in0.0 mm 0.00 in0.0 mm 0.00 in0.0 mm
09:39 AM 53.8°F12.1°C 47.1°F8.4°C 78% Calm Calm 13.0 mph20.9 kmh 29.83 in1010.2 mb 0.00 in0.0 mm 0.00 in0.0 mm 0.00 in0.0 mm
09:40 AM 53.8°F12.1°C 47.1°F8.4°C 78% 1.0 mph NE1.6 kmh NE 13.0 mph20.9 kmh 29.83 in1010.2 mb 0.00 in0.0 mm 0.00 in0.0 mm 0.00 in0.0 mm
09:43 AM 53.9°F12.2°C 47.2°F8.4°C 78% 3.0 mph NE4.8 kmh NE 13.0 mph20.9 kmh 29.83 in1010.2 mb 0.00 in0.0 mm 0.00 in0.0 mm 0.00 in0.0 mm
09:44 AM 53.9°F12.2°C 47.2°F8.4°C 78% Calm Calm 13.0 mph20.9 kmh 29.83 in1010.2 mb 0.00 in0.0 mm 0.00 in0.0 mm 0.00 in0.0 mm
09:45 AM 54.0°F12.2°C 47.3°F8.5°C 78% 4.0 mph NE6.4 kmh NE 13.0 mph20.9 kmh 29.83 in1010.2 mb 0.00 in0.0 mm 0.00 in0.0 mm 0.00 in0.0 mm
09:48 AM 54.2°F12.3°C 47.2°F8.4°C 77% 2.0 mph NE3.2 kmh NE 13.0 mph20.9 kmh 29.83 in1010.2 mb 0.00 in0.0 mm 0.00 in0.0 mm 0.00 in0.0 mm
09:49 AM 54.2°F12.3°C 47.2°F8.4°C 77% Calm Calm 13.0 mph20.9 kmh 29.83 in1010.2 mb 0.00 in0.0 mm 0.00 in0.0 mm 0.00 in0.0 mm
09:50 AM 54.2°F12.3°C 47.2°F8.4°C 77% 4.0 mph NE6.4 kmh NE 13.0 mph20.9 kmh 29.83 in1010.2 mb 0.00 in0.0 mm 0.00 in0.0 mm 0.00 in0.0 mm
09:53 AM 54.2°F12.3°C 47.2°F8.4°C 77% 1.0 mph NE1.6 kmh NE 13.0 mph20.9 kmh 29.83 in1010.2 mb 0.00 in0.0 mm 0.00 in0.0 mm 0.00 in0.0 mm
09:54 AM 54.2°F12.3°C 47.2°F8.4°C 77% 4.0 mph NE6.4 kmh NE 13.0 mph20.9 kmh 29.83 in1010.2 mb 0.00 in0.0 mm 0.00 in0.0 mm 0.00 in0.0 mm
09:55 AM 54.2°F12.3°C 47.2°F8.4°C 77% 2.0 mph NE3.2 kmh NE 13.0 mph20.9 kmh 29.83 in1010.2 mb 0.00 in0.0 mm 0.00 in0.0 mm 0.00 in0.0 mm
09:58 AM 54.3°F12.4°C 47.3°F8.5°C 77% 4.0 mph NE6.4 kmh NE 13.0 mph20.9 kmh 29.83 in1010.2 mb 0.00 in0.0 mm 0.00 in0.0 mm 0.00 in0.0 mm
09:59 AM 54.3°F12.4°C 47.3°F8.5°C 77% Calm Calm 13.0 mph20.9 kmh 29.83 in1010.2 mb 0.00 in0.0 mm 0.00 in0.0 mm 0.00 in0.0 mm
10:00 AM 54.5°F12.5°C 47.5°F8.6°C 77% Calm Calm -- 29.83 in1010.2 mb 0.00 in0.0 mm 0.00 in0.0 mm 0.00 in0.0 mm
10:03 AM 54.7°F12.6°C 47.6°F8.7°C 77% Calm Calm 11.0 mph17.7 kmh 29.83 in1010.2 mb 0.00 in0.0 mm 0.00 in0.0 mm 0.00 in0.0 mm
10:04 AM 54.8°F12.7°C 47.7°F8.7°C 77% 4.0 mph NE6.4 kmh NE 11.0 mph17.7 kmh 29.83 in1010.2 mb 0.00 in0.0 mm 0.00 in0.0 mm 0.00 in0.0 mm
10:05 AM 54.9°F12.7°C 47.5°F8.6°C 76% 4.0 mph NE6.4 kmh NE 11.0 mph17.7 kmh 29.83 in1010.2 mb 0.00 in0.0 mm 0.00 in0.0 mm 0.00 in0.0 mm
10:08 AM 54.9°F12.7°C 47.5°F8.6°C 76% 2.0 mph NE3.2 kmh NE 11.0 mph17.7 kmh 29.83 in1010.2 mb 0.00 in0.0 mm 0.00 in0.0 mm 0.00 in0.0 mm
10:09 AM 54.9°F12.7°C 47.5°F8.6°C 76% 1.0 mph NE1.6 kmh NE 11.0 mph17.7 kmh 29.83 in1010.2 mb 0.00 in0.0 mm 0.00 in0.0 mm 0.00 in0.0 mm
10:10 AM 55.0°F12.8°C 47.6°F8.7°C 76% Calm Calm 11.0 mph17.7 kmh 29.83 in1010.2 mb 0.00 in0.0 mm 0.00 in0.0 mm 0.00 in0.0 mm
10:13 AM 55.2°F12.9°C 47.4°F8.6°C 75% 1.0 mph NE1.6 kmh NE 11.0 mph17.7 kmh 29.83 in1010.2 mb 0.00 in0.0 mm 0.00 in0.0 mm 0.00 in0.0 mm
10:14 AM 55.3°F12.9°C 47.5°F8.6°C 75% 1.0 mph NE1.6 kmh NE 11.0 mph17.7 kmh 29.83 in1010.2 mb 0.00 in0.0 mm 0.00 in0.0 mm 0.00 in0.0 mm
10:15 AM 55.4°F13.0°C 47.6°F8.7°C 75% 8.0 mph NE12.9 kmh NE 11.0 mph17.7 kmh 29.83 in1010.2 mb 0.00 in0.0 mm 0.00 in0.0 mm 0.00 in0.0 mm
10:18 AM 55.5°F13.1°C 47.4°F8.6°C 74% 3.0 mph NE4.8 kmh NE 11.0 mph17.7 kmh 29.83 in1010.2 mb 0.00 in0.0 mm 0.00 in0.0 mm 0.00 in0.0 mm
10:19 AM 55.5°F13.1°C 47.4°F8.6°C 74% 5.0 mph NE8.0 kmh NE 11.0 mph17.7 kmh 29.83 in1010.2 mb 0.00 in0.0 mm 0.00 in0.0 mm 0.00 in0.0 mm
10:20 AM 55.4°F13.0°C 47.3°F8.5°C 74% Calm Calm 11.0 mph17.7 kmh 29.83 in1010.2 mb 0.00 in0.0 mm 0.00 in0.0 mm 0.00 in0.0 mm
10:23 AM 55.7°F13.2°C 47.9°F8.8°C 75% Calm Calm 11.0 mph17.7 kmh 29.83 in1010.2 mb 0.00 in0.0 mm 0.00 in0.0 mm 0.00 in0.0 mm
10:24 AM 55.9°F13.3°C 48.1°F8.9°C 75% 1.0 mph NE1.6 kmh NE 11.0 mph17.7 kmh 29.83 in1010.2 mb 0.00 in0.0 mm 0.00 in0.0 mm 0.00 in0.0 mm
10:25 AM 56.0°F13.3°C 48.2°F9.0°C 75% 4.0 mph NE6.4 kmh NE 11.0 mph17.7 kmh 29.83 in1010.2 mb 0.00 in0.0 mm 0.00 in0.0 mm 0.00 in0.0 mm
10:28 AM 55.6°F13.1°C 47.5°F8.6°C 74% 3.0 mph NE4.8 kmh NE 11.0 mph17.7 kmh 29.83 in1010.2 mb 0.00 in0.0 mm 0.00 in0.0 mm 0.00 in0.0 mm
10:29 AM 55.6°F13.1°C 47.5°F8.6°C 74% 3.0 mph NE4.8 kmh NE 11.0 mph17.7 kmh 29.83 in1010.2 mb 0.00 in0.0 mm 0.00 in0.0 mm 0.00 in0.0 mm
10:30 AM 55.6°F13.1°C 47.5°F8.6°C 74% 3.0 mph NE4.8 kmh NE 11.0 mph17.7 kmh 29.83 in1010.2 mb 0.00 in0.0 mm 0.00 in0.0 mm 0.00 in0.0 mm
10:33 AM 55.7°F13.2°C 47.6°F8.7°C 74% 5.0 mph NE8.0 kmh NE 11.0 mph17.7 kmh 29.83 in1010.2 mb 0.00 in0.0 mm 0.00 in0.0 mm 0.00 in0.0 mm
10:34 AM 55.7°F13.2°C 47.6°F8.7°C 74% 1.0 mph NE1.6 kmh NE 11.0 mph17.7 kmh 29.83 in1010.2 mb 0.00 in0.0 mm 0.00 in0.0 mm 0.00 in0.0 mm
10:35 AM 55.7°F13.2°C 47.6°F8.7°C 74% 2.0 mph NE3.2 kmh NE 11.0 mph17.7 kmh 29.83 in1010.2 mb 0.00 in0.0 mm 0.00 in0.0 mm 0.00 in0.0 mm
10:38 AM 55.6°F13.1°C 47.5°F8.6°C 74% 2.0 mph NE3.2 kmh NE 11.0 mph17.7 kmh 29.83 in1010.2 mb 0.00 in0.0 mm 0.00 in0.0 mm 0.00 in0.0 mm
10:39 AM 55.6°F13.1°C 47.5°F8.6°C 74% Calm Calm 11.0 mph17.7 kmh 29.83 in1010.2 mb 0.00 in0.0 mm 0.00 in0.0 mm 0.00 in0.0 mm
10:40 AM 55.5°F13.1°C 47.4°F8.6°C 74% 1.0 mph NE1.6 kmh NE 11.0 mph17.7 kmh 29.83 in1010.2 mb 0.00 in0.0 mm 0.00 in0.0 mm 0.00 in0.0 mm
10:43 AM 55.7°F13.2°C 47.9°F8.8°C 75% Calm Calm 11.0 mph17.7 kmh 29.83 in1010.2 mb 0.00 in0.0 mm 0.00 in0.0 mm 0.00 in0.0 mm
10:44 AM 55.8°F13.2°C 48.0°F8.9°C 75% Calm Calm 11.0 mph17.7 kmh 29.83 in1010.2 mb 0.00 in0.0 mm 0.00 in0.0 mm 0.00 in0.0 mm
10:45 AM 55.9°F13.3°C 47.7°F8.7°C 74% Calm Calm 11.0 mph17.7 kmh 29.83 in1010.2 mb 0.00 in0.0 mm 0.00 in0.0 mm 0.00 in0.0 mm
10:48 AM 56.3°F13.5°C 48.1°F8.9°C 74% Calm Calm 11.0 mph17.7 kmh 29.83 in1010.2 mb 0.00 in0.0 mm 0.00 in0.0 mm 0.00 in0.0 mm
10:49 AM 56.4°F13.6°C 48.2°F9.0°C 74% Calm Calm 11.0 mph17.7 kmh 29.83 in1010.2 mb 0.00 in0.0 mm 0.00 in0.0 mm 0.00 in0.0 mm
10:50 AM 56.4°F13.6°C 47.9°F8.8°C 73% Calm Calm 11.0 mph17.7 kmh 29.83 in1010.2 mb 0.00 in0.0 mm 0.00 in0.0 mm 0.00 in0.0 mm
10:53 AM 56.5°F13.6°C 48.0°F8.9°C 73% Calm Calm 11.0 mph17.7 kmh 29.83 in1010.2 mb 0.00 in0.0 mm 0.00 in0.0 mm 0.00 in0.0 mm
10:54 AM 56.6°F13.7°C 48.1°F8.9°C 73% 1.0 mph NE1.6 kmh NE 11.0 mph17.7 kmh 29.83 in1010.2 mb 0.00 in0.0 mm 0.00 in0.0 mm 0.00 in0.0 mm
10:55 AM 56.7°F13.7°C 48.2°F9.0°C 73% 1.0 mph NE1.6 kmh NE 11.0 mph17.7 kmh 29.83 in1010.2 mb 0.00 in0.0 mm 0.00 in0.0 mm 0.00 in0.0 mm
10:58 AM 56.7°F13.7°C 48.2°F9.0°C 73% Calm Calm 11.0 mph17.7 kmh 29.83 in1010.2 mb 0.00 in0.0 mm 0.00 in0.0 mm 0.00 in0.0 mm
10:59 AM 56.7°F13.7°C 48.2°F9.0°C 73% Calm Calm 11.0 mph17.7 kmh 29.84 in1010.5 mb 0.00 in0.0 mm 0.00 in0.0 mm 0.00 in0.0 mm
11:00 AM 56.6°F13.7°C 47.7°F8.7°C 72% 3.0 mph NE4.8 kmh NE 3.0 mph4.8 kmh 29.84 in1010.5 mb 0.00 in0.0 mm 0.00 in0.0 mm 0.00 in0.0 mm
11:03 AM 56.6°F13.7°C 48.1°F8.9°C 73% Calm Calm 4.0 mph6.4 kmh 29.84 in1010.5 mb 0.00 in0.0 mm 0.00 in0.0 mm 0.00 in0.0 mm
11:04 AM 56.6°F13.7°C 48.1°F8.9°C 73% 2.0 mph NE3.2 kmh NE 5.0 mph8.0 kmh 29.83 in1010.2 mb 0.00 in0.0 mm 0.00 in0.0 mm 0.00 in0.0 mm
11:05 AM 56.6°F13.7°C 48.1°F8.9°C 73% 1.0 mph NE1.6 kmh NE 5.0 mph8.0 kmh 29.83 in1010.2 mb 0.00 in0.0 mm 0.00 in0.0 mm 0.00 in0.0 mm
11:08 AM 56.5°F13.6°C 48.0°F8.9°C 73% Calm Calm 5.0 mph8.0 kmh 29.83 in1010.2 mb 0.00 in0.0 mm 0.00 in0.0 mm 0.00 in0.0 mm
11:09 AM 56.5°F13.6°C 48.0°F8.9°C 73% 3.0 mph NE4.8 kmh NE 5.0 mph8.0 kmh 29.83 in1010.2 mb 0.00 in0.0 mm 0.00 in0.0 mm 0.00 in0.0 mm
11:10 AM 56.5°F13.6°C 48.0°F8.9°C 73% 3.0 mph NE4.8 kmh NE 5.0 mph8.0 kmh 29.83 in1010.2 mb 0.00 in0.0 mm 0.00 in0.0 mm 0.00 in0.0 mm
11:13 AM 56.4°F13.6°C 47.9°F8.8°C 73% 2.0 mph NE3.2 kmh NE 5.0 mph8.0 kmh 29.83 in1010.2 mb 0.00 in0.0 mm 0.00 in0.0 mm 0.00 in0.0 mm
11:14 AM 56.4°F13.6°C 47.9°F8.8°C 73% 1.0 mph NE1.6 kmh NE 5.0 mph8.0 kmh 29.83 in1010.2 mb 0.00 in0.0 mm 0.00 in0.0 mm 0.00 in0.0 mm
11:15 AM 56.4°F13.6°C 47.9°F8.8°C 73% 2.0 mph ENE3.2 kmh ENE 5.0 mph8.0 kmh 29.83 in1010.2 mb 0.00 in0.0 mm 0.00 in0.0 mm 0.00 in0.0 mm
11:18 AM 56.4°F13.6°C 47.9°F8.8°C 73% 2.0 mph ENE3.2 kmh ENE 5.0 mph8.0 kmh 29.83 in1010.2 mb 0.00 in0.0 mm 0.00 in0.0 mm 0.00 in0.0 mm
11:19 AM 56.6°F13.7°C 48.1°F8.9°C 73% Calm Calm 5.0 mph8.0 kmh 29.83 in1010.2 mb 0.00 in0.0 mm 0.00 in0.0 mm 0.00 in0.0 mm
11:20 AM 56.7°F13.7°C 48.2°F9.0°C 73% Calm Calm 5.0 mph8.0 kmh 29.83 in1010.2 mb 0.00 in0.0 mm 0.00 in0.0 mm 0.00 in0.0 mm
11:23 AM 56.9°F13.8°C 48.0°F8.9°C 72% Calm Calm 5.0 mph8.0 kmh 29.83 in1010.2 mb 0.00 in0.0 mm 0.00 in0.0 mm 0.00 in0.0 mm
11:24 AM 56.8°F13.8°C 47.9°F8.8°C 72% 1.0 mph ENE1.6 kmh ENE 5.0 mph8.0 kmh 29.83 in1010.2 mb 0.00 in0.0 mm 0.00 in0.0 mm 0.00 in0.0 mm
11:25 AM 56.7°F13.7°C 47.8°F8.8°C 72% Calm Calm 5.0 mph8.0 kmh 29.83 in1010.2 mb 0.00 in0.0 mm 0.00 in0.0 mm 0.00 in0.0 mm
11:28 AM 56.7°F13.7°C 47.8°F8.8°C 72% 2.0 mph ENE3.2 kmh ENE 5.0 mph8.0 kmh 29.83 in1010.2 mb 0.00 in0.0 mm 0.00 in0.0 mm 0.00 in0.0 mm
11:29 AM 56.6°F13.7°C 47.7°F8.7°C 72% 6.0 mph ENE9.7 kmh ENE 6.0 mph9.7 kmh 29.83 in1010.2 mb 0.00 in0.0 mm 0.00 in0.0 mm 0.00 in0.0 mm
11:30 AM 56.6°F13.7°C 47.7°F8.7°C 72% 2.0 mph ENE3.2 kmh ENE 6.0 mph9.7 kmh 29.83 in1010.2 mb 0.00 in0.0 mm 0.00 in0.0 mm 0.00 in0.0 mm
11:33 AM 56.4°F13.6°C 47.5°F8.6°C 72% Calm Calm 6.0 mph9.7 kmh 29.83 in1010.2 mb 0.00 in0.0 mm 0.00 in0.0 mm 0.00 in0.0 mm
11:34 AM 56.3°F13.5°C 47.4°F8.6°C 72% 3.0 mph ENE4.8 kmh ENE 6.0 mph9.7 kmh 29.83 in1010.2 mb 0.00 in0.0 mm 0.00 in0.0 mm 0.00 in0.0 mm
11:35 AM 56.3°F13.5°C 47.4°F8.6°C 72% 2.0 mph ENE3.2 kmh ENE 6.0 mph9.7 kmh 29.83 in1010.2 mb 0.00 in0.0 mm 0.00 in0.0 mm 0.00 in0.0 mm
11:38 AM 56.1°F13.4°C 47.6°F8.7°C 73% Calm Calm 6.0 mph9.7 kmh 29.84 in1010.5 mb 0.00 in0.0 mm 0.00 in0.0 mm 0.00 in0.0 mm
11:39 AM 56.1°F13.4°C 47.6°F8.7°C 73% Calm Calm 7.0 mph11.3 kmh 29.83 in1010.2 mb 0.00 in0.0 mm 0.00 in0.0 mm 0.00 in0.0 mm
11:40 AM 56.1°F13.4°C 47.6°F8.7°C 73% 1.0 mph E1.6 kmh E 7.0 mph11.3 kmh 29.83 in1010.2 mb 0.00 in0.0 mm 0.00 in0.0 mm 0.00 in0.0 mm
11:43 AM 56.2°F13.4°C 47.7°F8.7°C 73% 1.0 mph E1.6 kmh E 7.0 mph11.3 kmh 29.84 in1010.5 mb 0.00 in0.0 mm 0.00 in0.0 mm 0.00 in0.0 mm
11:44 AM 56.2°F13.4°C 47.7°F8.7°C 73% 1.0 mph E1.6 kmh E 7.0 mph11.3 kmh 29.84 in1010.5 mb 0.00 in0.0 mm 0.00 in0.0 mm 0.00 in0.0 mm
11:45 AM 56.2°F13.4°C 47.7°F8.7°C 73% Calm Calm 7.0 mph11.3 kmh 29.84 in1010.5 mb 0.00 in0.0 mm 0.00 in0.0 mm 0.00 in0.0 mm
11:48 AM 56.2°F13.4°C 47.7°F8.7°C 73% 2.0 mph E3.2 kmh E 7.0 mph11.3 kmh 29.84 in1010.5 mb 0.00 in0.0 mm 0.00 in0.0 mm 0.00 in0.0 mm
11:49 AM 56.2°F13.4°C 47.7°F8.7°C 73% 2.0 mph E3.2 kmh E 7.0 mph11.3 kmh 29.84 in1010.5 mb 0.00 in0.0 mm 0.00 in0.0 mm 0.00 in0.0 mm
11:50 AM 56.3°F13.5°C 47.8°F8.8°C 73% 2.0 mph E3.2 kmh E 7.0 mph11.3 kmh 29.84 in1010.5 mb 0.00 in0.0 mm 0.00 in0.0 mm 0.00 in0.0 mm
11:53 AM 56.4°F13.6°C 47.9°F8.8°C 73% 4.0 mph E6.4 kmh E 7.0 mph11.3 kmh 29.84 in1010.5 mb 0.00 in0.0 mm 0.00 in0.0 mm 0.00 in0.0 mm
11:54 AM 56.3°F13.5°C 47.4°F8.6°C 72% 1.0 mph E1.6 kmh E 7.0 mph11.3 kmh 29.84 in1010.5 mb 0.00 in0.0 mm 0.00 in0.0 mm 0.00 in0.0 mm
11:55 AM 56.3°F13.5°C 47.8°F8.8°C 73% 1.0 mph E1.6 kmh E 7.0 mph11.3 kmh 29.84 in1010.5 mb 0.00 in0.0 mm 0.00 in0.0 mm 0.00 in0.0 mm
11:58 AM 56.3°F13.5°C 47.8°F8.8°C 73% 1.0 mph E1.6 kmh E 7.0 mph11.3 kmh 29.84 in1010.5 mb 0.00 in0.0 mm 0.00 in0.0 mm 0.00 in0.0 mm
11:59 AM 56.2°F13.4°C 47.7°F8.7°C 73% 2.0 mph E3.2 kmh E 7.0 mph11.3 kmh 29.84 in1010.5 mb 0.00 in0.0 mm 0.00 in0.0 mm 0.00 in0.0 mm
12:00 PM 56.1°F13.4°C 47.6°F8.7°C 73% Calm Calm -- 29.84 in1010.5 mb 0.00 in0.0 mm 0.00 in0.0 mm 0.00 in0.0 mm
12:03 PM 56.2°F13.4°C 47.7°F8.7°C 73% 1.0 mph E1.6 kmh E 4.0 mph6.4 kmh 29.84 in1010.5 mb 0.00 in0.0 mm 0.00 in0.0 mm 0.00 in0.0 mm
12:04 PM 56.2°F13.4°C 47.7°F8.7°C 73% 7.0 mph E11.3 kmh E 7.0 mph11.3 kmh 29.84 in1010.5 mb 0.00 in0.0 mm 0.00 in0.0 mm 0.00 in0.0 mm
12:05 PM 56.2°F13.4°C 47.7°F8.7°C 73% 1.0 mph E1.6 kmh E 7.0 mph11.3 kmh 29.84 in1010.5 mb 0.00 in0.0 mm 0.00 in0.0 mm 0.00 in0.0 mm
12:08 PM 56.1°F13.4°C 47.6°F8.7°C 73% Calm Calm 7.0 mph11.3 kmh 29.84 in1010.5 mb 0.00 in0.0 mm 0.00 in0.0 mm 0.00 in0.0 mm
12:09 PM 56.0°F13.3°C 47.5°F8.6°C 73% 2.0 mph E3.2 kmh E 9.0 mph14.5 kmh 29.84 in1010.5 mb 0.00 in0.0 mm 0.00 in0.0 mm 0.00 in0.0 mm
12:10 PM 56.0°F13.3°C 47.5°F8.6°C 73% 2.0 mph E3.2 kmh E 9.0 mph14.5 kmh 29.84 in1010.5 mb 0.00 in0.0 mm 0.00 in0.0 mm 0.00 in0.0 mm
12:13 PM 55.7°F13.2°C 47.2°F8.4°C 73% 1.0 mph E1.6 kmh E 9.0 mph14.5 kmh 29.84 in1010.5 mb 0.00 in0.0 mm 0.00 in0.0 mm 0.00 in0.0 mm
12:14 PM 55.7°F13.2°C 47.2°F8.4°C 73% 1.0 mph E1.6 kmh E 9.0 mph14.5 kmh 29.84 in1010.5 mb 0.00 in0.0 mm 0.00 in0.0 mm 0.00 in0.0 mm
12:15 PM 55.7°F13.2°C 47.2°F8.4°C 73% Calm Calm 9.0 mph14.5 kmh 29.84 in1010.5 mb 0.00 in0.0 mm 0.00 in0.0 mm 0.00 in0.0 mm
12:18 PM 55.9°F13.3°C 47.4°F8.6°C 73% 1.0 mph E1.6 kmh E 9.0 mph14.5 kmh 29.84 in1010.5 mb 0.00 in0.0 mm 0.00 in0.0 mm 0.00 in0.0 mm
12:19 PM 55.9°F13.3°C 47.4°F8.6°C 73% Calm Calm 9.0 mph14.5 kmh 29.84 in1010.5 mb 0.00 in0.0 mm 0.00 in0.0 mm 0.00 in0.0 mm
12:20 PM 55.9°F13.3°C 47.4°F8.6°C 73% 1.0 mph E1.6 kmh E 9.0 mph14.5 kmh 29.84 in1010.5 mb 0.00 in0.0 mm 0.00 in0.0 mm 0.00 in0.0 mm
12:23 PM 56.0°F13.3°C 47.5°F8.6°C 73% 2.0 mph E3.2 kmh E 9.0 mph14.5 kmh 29.84 in1010.5 mb 0.00 in0.0 mm 0.00 in0.0 mm 0.00 in0.0 mm
12:24 PM 55.9°F13.3°C 47.4°F8.6°C 73% 1.0 mph E1.6 kmh E 9.0 mph14.5 kmh 29.84 in1010.5 mb 0.00 in0.0 mm 0.00 in0.0 mm 0.00 in0.0 mm
12:25 PM 55.8°F13.2°C 47.3°F8.5°C 73% Calm Calm 9.0 mph14.5 kmh 29.84 in1010.5 mb 0.00 in0.0 mm 0.00 in0.0 mm 0.00 in0.0 mm
12:28 PM 55.8°F13.2°C 47.3°F8.5°C 73% Calm Calm 9.0 mph14.5 kmh 29.84 in1010.5 mb 0.00 in0.0 mm 0.00 in0.0 mm 0.00 in0.0 mm
12:29 PM 55.9°F13.3°C 47.4°F8.6°C 73% Calm Calm 9.0 mph14.5 kmh 29.84 in1010.5 mb 0.00 in0.0 mm 0.00 in0.0 mm 0.00 in0.0 mm
12:30 PM 55.9°F13.3°C 47.4°F8.6°C 73% Calm Calm 9.0 mph14.5 kmh 29.84 in1010.5 mb 0.00 in0.0 mm 0.00 in0.0 mm 0.00 in0.0 mm
12:33 PM 55.7°F13.2°C 47.2°F8.4°C 73% 4.0 mph E6.4 kmh E 9.0 mph14.5 kmh 29.84 in1010.5 mb 0.00 in0.0 mm 0.00 in0.0 mm 0.00 in0.0 mm
12:34 PM 55.6°F13.1°C 47.1°F8.4°C 73% 6.0 mph ESE9.7 kmh ESE 9.0 mph14.5 kmh 29.84 in1010.5 mb 0.00 in0.0 mm 0.00 in0.0 mm 0.00 in0.0 mm
12:35 PM 55.4°F13.0°C 46.9°F8.3°C 73% 2.0 mph ESE3.2 kmh ESE 9.0 mph14.5 kmh 29.84 in1010.5 mb 0.00 in0.0 mm 0.00 in0.0 mm 0.00 in0.0 mm
12:38 PM 54.9°F12.7°C 46.8°F8.2°C 74% 1.0 mph ESE1.6 kmh ESE 9.0 mph14.5 kmh 29.84 in1010.5 mb 0.00 in0.0 mm 0.00 in0.0 mm 0.00 in0.0 mm
12:39 PM 54.8°F12.7°C 46.7°F8.2°C 74% 2.0 mph ESE3.2 kmh ESE 9.0 mph14.5 kmh 29.84 in1010.5 mb 0.00 in0.0 mm 0.00 in0.0 mm 0.00 in0.0 mm
12:40 PM 54.8°F12.7°C 46.7°F8.2°C 74% 5.0 mph ESE8.0 kmh ESE 9.0 mph14.5 kmh 29.84 in1010.5 mb 0.00 in0.0 mm 0.00 in0.0 mm 0.00 in0.0 mm
12:43 PM 54.6°F12.6°C 46.9°F8.3°C 75% Calm Calm 9.0 mph14.5 kmh 29.84 in1010.5 mb 0.00 in0.0 mm 0.00 in0.0 mm 0.00 in0.0 mm
12:44 PM 54.7°F12.6°C 47.3°F8.5°C 76% 4.0 mph ESE6.4 kmh ESE 9.0 mph14.5 kmh 29.84 in1010.5 mb 0.00 in0.0 mm 0.00 in0.0 mm 0.00 in0.0 mm
12:45 PM 54.7°F12.6°C 46.9°F8.3°C 75% 2.0 mph ESE3.2 kmh ESE 9.0 mph14.5 kmh 29.84 in1010.5 mb 0.00 in0.0 mm 0.00 in0.0 mm 0.00 in0.0 mm
12:48 PM 54.9°F12.7°C 47.1°F8.4°C 75% 7.0 mph ESE11.3 kmh ESE 9.0 mph14.5 kmh 29.84 in1010.5 mb 0.00 in0.0 mm 0.00 in0.0 mm 0.00 in0.0 mm
12:49 PM 54.9°F12.7°C 47.1°F8.4°C 75% 2.0 mph ESE3.2 kmh ESE 9.0 mph14.5 kmh 29.84 in1010.5 mb 0.00 in0.0 mm 0.00 in0.0 mm 0.00 in0.0 mm
12:50 PM 55.0°F12.8°C 47.2°F8.4°C 75% 8.0 mph ESE12.9 kmh ESE 9.0 mph14.5 kmh 29.84 in1010.5 mb 0.00 in0.0 mm 0.00 in0.0 mm 0.00 in0.0 mm
12:53 PM 55.0°F12.8°C 46.9°F8.3°C 74% 4.0 mph SE6.4 kmh SE 12.0 mph19.3 kmh 29.84 in1010.5 mb 0.00 in0.0 mm 0.00 in0.0 mm 0.00 in0.0 mm
12:54 PM 55.1°F12.8°C 47.0°F8.3°C 74% 1.0 mph SE1.6 kmh SE 12.0 mph19.3 kmh 29.84 in1010.5 mb 0.00 in0.0 mm 0.00 in0.0 mm 0.00 in0.0 mm
12:55 PM 55.0°F12.8°C 46.9°F8.3°C 74% 2.0 mph SE3.2 kmh SE 12.0 mph19.3 kmh 29.84 in1010.5 mb 0.00 in0.0 mm 0.00 in0.0 mm 0.00 in0.0 mm
12:58 PM 54.9°F12.7°C 46.8°F8.2°C 74% Calm Calm 12.0 mph19.3 kmh 29.84 in1010.5 mb 0.00 in0.0 mm 0.00 in0.0 mm 0.00 in0.0 mm
12:59 PM 55.0°F12.8°C 47.2°F8.4°C 75% 1.0 mph SE1.6 kmh SE 12.0 mph19.3 kmh 29.84 in1010.5 mb 0.00 in0.0 mm 0.00 in0.0 mm 0.00 in0.0 mm
01:00 PM 55.1°F12.8°C 47.3°F8.5°C 75% Calm Calm 1.0 mph1.6 kmh 29.84 in1010.5 mb 0.00 in0.0 mm 0.00 in0.0 mm 0.00 in0.0 mm
01:03 PM 55.3°F12.9°C 47.2°F8.4°C 74% 2.0 mph SE3.2 kmh SE 5.0 mph8.0 kmh 29.84 in1010.5 mb 0.00 in0.0 mm 0.00 in0.0 mm 0.00 in0.0 mm
01:04 PM 55.3°F12.9°C 47.2°F8.4°C 74% 2.0 mph SE3.2 kmh SE 5.0 mph8.0 kmh 29.84 in1010.5 mb 0.00 in0.0 mm 0.00 in0.0 mm 0.00 in0.0 mm
01:05 PM 55.3°F12.9°C 47.2°F8.4°C 74% 4.0 mph SE6.4 kmh SE 9.0 mph14.5 kmh 29.83 in1010.2 mb 0.00 in0.0 mm 0.00 in0.0 mm 0.00 in0.0 mm
01:08 PM 55.1°F12.8°C 47.0°F8.3°C 74% 4.0 mph SE6.4 kmh SE 10.0 mph16.1 kmh 29.83 in1010.2 mb 0.00 in0.0 mm 0.00 in0.0 mm 0.00 in0.0 mm
01:09 PM 55.1°F12.8°C 47.0°F8.3°C 74% 1.0 mph SE1.6 kmh SE 10.0 mph16.1 kmh 29.83 in1010.2 mb 0.00 in0.0 mm 0.00 in0.0 mm 0.00 in0.0 mm
01:10 PM 55.1°F12.8°C 47.0°F8.3°C 74% 2.0 mph SE3.2 kmh SE 10.0 mph16.1 kmh 29.83 in1010.2 mb 0.00 in0.0 mm 0.00 in0.0 mm 0.00 in0.0 mm
01:13 PM 55.0°F12.8°C 46.9°F8.3°C 74% 1.0 mph SE1.6 kmh SE 10.0 mph16.1 kmh 29.83 in1010.2 mb 0.00 in0.0 mm 0.00 in0.0 mm 0.00 in0.0 mm
01:14 PM 54.9°F12.7°C 46.8°F8.2°C 74% 7.0 mph SE11.3 kmh SE 10.0 mph16.1 kmh 29.83 in1010.2 mb 0.00 in0.0 mm 0.00 in0.0 mm 0.00 in0.0 mm
01:15 PM 54.9°F12.7°C 47.1°F8.4°C 75% 2.0 mph SE3.2 kmh SE 10.0 mph16.1 kmh 29.83 in1010.2 mb 0.00 in0.0 mm 0.00 in0.0 mm 0.00 in0.0 mm
01:18 PM 54.9°F12.7°C 47.1°F8.4°C 75% 1.0 mph SE1.6 kmh SE 10.0 mph16.1 kmh 29.83 in1010.2 mb 0.00 in0.0 mm 0.00 in0.0 mm 0.00 in0.0 mm
01:19 PM 55.0°F12.8°C 47.2°F8.4°C 75% Calm Calm 10.0 mph16.1 kmh 29.83 in1010.2 mb 0.00 in0.0 mm 0.00 in0.0 mm 0.00 in0.0 mm
01:20 PM 55.2°F12.9°C 47.8°F8.8°C 76% 1.0 mph SE1.6 kmh SE 10.0 mph16.1 kmh 29.83 in1010.2 mb 0.00 in0.0 mm 0.00 in0.0 mm 0.00 in0.0 mm
01:23 PM 55.8°F13.2°C 48.0°F8.9°C 75% Calm Calm 10.0 mph16.1 kmh 29.83 in1010.2 mb 0.00 in0.0 mm 0.00 in0.0 mm 0.00 in0.0 mm
01:24 PM 56.0°F13.3°C 48.2°F9.0°C 75% Calm Calm 10.0 mph16.1 kmh 29.83 in1010.2 mb 0.00 in0.0 mm 0.00 in0.0 mm 0.00 in0.0 mm
01:25 PM 56.1°F13.4°C 48.3°F9.1°C 75% Calm Calm 10.0 mph16.1 kmh 29.83 in1010.2 mb 0.00 in0.0 mm 0.00 in0.0 mm 0.00 in0.0 mm
01:28 PM 56.4°F13.6°C 47.9°F8.8°C 73% Calm Calm 10.0 mph16.1 kmh 29.83 in1010.2 mb 0.00 in0.0 mm 0.00 in0.0 mm 0.00 in0.0 mm
01:29 PM 56.6°F13.7°C 48.1°F8.9°C 73% Calm Calm 10.0 mph16.1 kmh 29.83 in1010.2 mb 0.00 in0.0 mm 0.00 in0.0 mm 0.00 in0.0 mm
01:30 PM 56.6°F13.7°C 48.1°F8.9°C 73% Calm Calm 10.0 mph16.1 kmh 29.83 in1010.2 mb 0.00 in0.0 mm 0.00 in0.0 mm 0.00 in0.0 mm
01:33 PM 56.9°F13.8°C 48.4°F9.1°C 73% 4.0 mph SE6.4 kmh SE 10.0 mph16.1 kmh 29.83 in1010.2 mb 0.00 in0.0 mm 0.00 in0.0 mm 0.00 in0.0 mm
01:34 PM 57.0°F13.9°C 48.4°F9.1°C 73% 6.0 mph SE9.7 kmh SE 10.0 mph16.1 kmh 29.83 in1010.2 mb 0.00 in0.0 mm 0.00 in0.0 mm 0.00 in0.0 mm
01:35 PM 57.2°F14.0°C 48.3°F9.1°C 72% 5.0 mph SE8.0 kmh SE 10.0 mph16.1 kmh 29.83 in1010.2 mb 0.00 in0.0 mm 0.00 in0.0 mm 0.00 in0.0 mm
01:38 PM 57.4°F14.1°C 48.1°F8.9°C 71% 1.0 mph SE1.6 kmh SE 10.0 mph16.1 kmh 29.83 in1010.2 mb 0.00 in0.0 mm 0.00 in0.0 mm 0.00 in0.0 mm
01:39 PM 57.4°F14.1°C 48.1°F8.9°C 71% 1.0 mph SE1.6 kmh SE 10.0 mph16.1 kmh 29.83 in1010.2 mb 0.00 in0.0 mm 0.00 in0.0 mm 0.00 in0.0 mm
01:40 PM 57.7°F14.3°C 48.4°F9.1°C 71% Calm Calm 10.0 mph16.1 kmh 29.83 in1010.2 mb 0.00 in0.0 mm 0.00 in0.0 mm 0.00 in0.0 mm
01:43 PM 58.4°F14.7°C 48.7°F9.3°C 70% Calm Calm 10.0 mph16.1 kmh 29.83 in1010.2 mb 0.00 in0.0 mm 0.00 in0.0 mm 0.00 in0.0 mm
01:44 PM 58.6°F14.8°C 48.9°F9.4°C 70% 1.0 mph SE1.6 kmh SE 10.0 mph16.1 kmh 29.83 in1010.2 mb 0.00 in0.0 mm 0.00 in0.0 mm 0.00 in0.0 mm
01:45 PM 58.7°F14.8°C 48.6°F9.2°C 69% 2.0 mph SE3.2 kmh SE 10.0 mph16.1 kmh 29.83 in1010.2 mb 0.00 in0.0 mm 0.00 in0.0 mm 0.00 in0.0 mm
01:48 PM 58.7°F14.8°C 47.8°F8.8°C 67% 1.0 mph SE1.6 kmh SE 10.0 mph16.1 kmh 29.83 in1010.2 mb 0.00 in0.0 mm 0.00 in0.0 mm 0.00 in0.0 mm
01:49 PM 58.7°F14.8°C 47.8°F8.8°C 67% 5.0 mph SE8.0 kmh SE 10.0 mph16.1 kmh 29.83 in1010.2 mb 0.00 in0.0 mm 0.00 in0.0 mm 0.00 in0.0 mm
01:50 PM 58.6°F14.8°C 47.7°F8.7°C 67% Calm Calm 10.0 mph16.1 kmh 29.83 in1010.2 mb 0.00 in0.0 mm 0.00 in0.0 mm 0.00 in0.0 mm
01:53 PM 58.7°F14.8°C 47.8°F8.8°C 67% 2.0 mph SE3.2 kmh SE 10.0 mph16.1 kmh 29.83 in1010.2 mb 0.00 in0.0 mm 0.00 in0.0 mm 0.00 in0.0 mm
01:54 PM 58.6°F14.8°C 47.7°F8.7°C 67% 1.0 mph SE1.6 kmh SE 10.0 mph16.1 kmh 29.83 in1010.2 mb 0.00 in0.0 mm 0.00 in0.0 mm 0.00 in0.0 mm
01:55 PM 58.5°F14.7°C 47.6°F8.7°C 67% 5.0 mph SE8.0 kmh SE 10.0 mph16.1 kmh 29.83 in1010.2 mb 0.00 in0.0 mm 0.00 in0.0 mm 0.00 in0.0 mm
01:58 PM 58.7°F14.8°C 47.8°F8.8°C 67% Calm Calm 10.0 mph16.1 kmh 29.83 in1010.2 mb 0.00 in0.0 mm 0.00 in0.0 mm 0.00 in0.0 mm
01:59 PM 58.7°F14.8°C 47.8°F8.8°C 67% Calm Calm 10.0 mph16.1 kmh 29.83 in1010.2 mb 0.00 in0.0 mm 0.00 in0.0 mm 0.00 in0.0 mm
02:00 PM 58.8°F14.9°C 47.9°F8.8°C 67% Calm Calm -- 29.83 in1010.2 mb 0.00 in0.0 mm 0.00 in0.0 mm 0.00 in0.0 mm
02:03 PM 58.9°F14.9°C 48.0°F8.9°C 67% 4.0 mph SE6.4 kmh SE 8.0 mph12.9 kmh 29.83 in1010.2 mb 0.00 in0.0 mm 0.00 in0.0 mm 0.00 in0.0 mm
02:04 PM 58.9°F14.9°C 48.0°F8.9°C 67% 1.0 mph SE1.6 kmh SE 8.0 mph12.9 kmh 29.83 in1010.2 mb 0.00 in0.0 mm 0.00 in0.0 mm 0.00 in0.0 mm
02:05 PM 59.0°F15.0°C 48.1°F8.9°C 67% 1.0 mph SE1.6 kmh SE 8.0 mph12.9 kmh 29.83 in1010.2 mb 0.00 in0.0 mm 0.00 in0.0 mm 0.00 in0.0 mm
02:08 PM 59.0°F15.0°C 48.1°F8.9°C 67% 2.0 mph SE3.2 kmh SE 8.0 mph12.9 kmh 29.83 in1010.2 mb 0.00 in0.0 mm 0.00 in0.0 mm 0.00 in0.0 mm
02:09 PM 59.1°F15.1°C 48.2°F9.0°C 67% Calm Calm 8.0 mph12.9 kmh 29.83 in1010.2 mb 0.00 in0.0 mm 0.00 in0.0 mm 0.00 in0.0 mm
02:10 PM 59.2°F15.1°C 48.7°F9.3°C 68% 1.0 mph SE1.6 kmh SE 8.0 mph12.9 kmh 29.83 in1010.2 mb 0.00 in0.0 mm 0.00 in0.0 mm 0.00 in0.0 mm
02:13 PM 59.2°F15.1°C 48.3°F9.1°C 67% 2.0 mph SE3.2 kmh SE 8.0 mph12.9 kmh 29.83 in1010.2 mb 0.00 in0.0 mm 0.00 in0.0 mm 0.00 in0.0 mm
02:14 PM 59.2°F15.1°C 48.3°F9.1°C 67% Calm Calm 8.0 mph12.9 kmh 29.83 in1010.2 mb 0.00 in0.0 mm 0.00 in0.0 mm 0.00 in0.0 mm
02:15 PM 59.2°F15.1°C 48.3°F9.1°C 67% Calm Calm 8.0 mph12.9 kmh 29.83 in1010.2 mb 0.00 in0.0 mm 0.00 in0.0 mm 0.00 in0.0 mm
02:18 PM 58.6°F14.8°C 48.5°F9.2°C 69% 1.0 mph SE1.6 kmh SE 8.0 mph12.9 kmh 29.83 in1010.2 mb 0.00 in0.0 mm 0.00 in0.0 mm 0.00 in0.0 mm
02:19 PM 58.6°F14.8°C 48.5°F9.2°C 69% Calm Calm 8.0 mph12.9 kmh 29.83 in1010.2 mb 0.00 in0.0 mm 0.00 in0.0 mm 0.00 in0.0 mm
02:20 PM 58.6°F14.8°C 48.5°F9.2°C 69% 1.0 mph SE1.6 kmh SE 8.0 mph12.9 kmh 29.83 in1010.2 mb 0.00 in0.0 mm 0.00 in0.0 mm 0.00 in0.0 mm
02:23 PM 58.8°F14.9°C 48.7°F9.3°C 69% Calm Calm 8.0 mph12.9 kmh 29.83 in1010.2 mb 0.00 in0.0 mm 0.00 in0.0 mm 0.00 in0.0 mm
02:24 PM 58.9°F14.9°C 48.8°F9.3°C 69% 5.0 mph SE8.0 kmh SE 8.0 mph12.9 kmh 29.83 in1010.2 mb 0.00 in0.0 mm 0.00 in0.0 mm 0.00 in0.0 mm
02:25 PM 58.9°F14.9°C 48.4°F9.1°C 68% 1.0 mph SE1.6 kmh SE 8.0 mph12.9 kmh 29.83 in1010.2 mb 0.00 in0.0 mm 0.00 in0.0 mm 0.00 in0.0 mm
02:28 PM 58.8°F14.9°C 48.3°F9.1°C 68% 4.0 mph SE6.4 kmh SE 8.0 mph12.9 kmh 29.83 in1010.2 mb 0.00 in0.0 mm 0.00 in0.0 mm 0.00 in0.0 mm
02:29 PM 58.8°F14.9°C 48.3°F9.1°C 68% 2.0 mph SE3.2 kmh SE 8.0 mph12.9 kmh 29.83 in1010.2 mb 0.00 in0.0 mm 0.00 in0.0 mm 0.00 in0.0 mm
02:30 PM 58.9°F14.9°C 48.4°F9.1°C 68% 5.0 mph SE8.0 kmh SE 8.0 mph12.9 kmh 29.83 in1010.2 mb 0.00 in0.0 mm 0.00 in0.0 mm 0.00 in0.0 mm
02:33 PM 59.0°F15.0°C 48.5°F9.2°C 68% 2.0 mph SE3.2 kmh SE 8.0 mph12.9 kmh 29.83 in1010.2 mb 0.00 in0.0 mm 0.00 in0.0 mm 0.00 in0.0 mm
02:34 PM 59.1°F15.1°C 49.0°F9.4°C 69% 2.0 mph SE3.2 kmh SE 8.0 mph12.9 kmh 29.83 in1010.2 mb 0.00 in0.0 mm 0.00 in0.0 mm 0.00 in0.0 mm
02:35 PM 59.2°F15.1°C 48.7°F9.3°C 68% Calm Calm 8.0 mph12.9 kmh 29.83 in1010.2 mb 0.00 in0.0 mm 0.00 in0.0 mm 0.00 in0.0 mm
02:38 PM 59.3°F15.2°C 48.4°F9.1°C 67% Calm Calm 8.0 mph12.9 kmh 29.83 in1010.2 mb 0.00 in0.0 mm 0.00 in0.0 mm 0.00 in0.0 mm
02:39 PM 59.3°F15.2°C 48.4°F9.1°C 67% 4.0 mph SE6.4 kmh SE 8.0 mph12.9 kmh 29.83 in1010.2 mb 0.00 in0.0 mm 0.00 in0.0 mm 0.00 in0.0 mm
02:40 PM 59.2°F15.1°C 47.9°F8.8°C 66% 2.0 mph SE3.2 kmh SE 8.0 mph12.9 kmh 29.83 in1010.2 mb 0.00 in0.0 mm 0.00 in0.0 mm 0.00 in0.0 mm
02:43 PM 58.2°F14.6°C 47.3°F8.5°C 67% Calm Calm 8.0 mph12.9 kmh 29.83 in1010.2 mb 0.00 in0.0 mm 0.00 in0.0 mm 0.00 in0.0 mm
02:44 PM 58.1°F14.5°C 47.6°F8.7°C 68% 1.0 mph SE1.6 kmh SE 8.0 mph12.9 kmh 29.83 in1010.2 mb 0.00 in0.0 mm 0.00 in0.0 mm 0.00 in0.0 mm
02:45 PM 58.1°F14.5°C 47.6°F8.7°C 68% 1.0 mph SE1.6 kmh SE 8.0 mph12.9 kmh 29.83 in1010.2 mb 0.00 in0.0 mm 0.00 in0.0 mm 0.00 in0.0 mm
02:48 PM 57.9°F14.4°C 47.8°F8.8°C 69% 2.0 mph SE3.2 kmh SE 9.0 mph14.5 kmh 29.83 in1010.2 mb 0.00 in0.0 mm 0.00 in0.0 mm 0.00 in0.0 mm
02:49 PM 57.9°F14.4°C 47.8°F8.8°C 69% 2.0 mph SE3.2 kmh SE 9.0 mph14.5 kmh 29.83 in1010.2 mb 0.00 in0.0 mm 0.00 in0.0 mm 0.00 in0.0 mm
02:50 PM 57.8°F14.3°C 47.3°F8.5°C 68% 4.0 mph SE6.4 kmh SE 9.0 mph14.5 kmh 29.83 in1010.2 mb 0.00 in0.0 mm 0.00 in0.0 mm 0.00 in0.0 mm
02:53 PM 57.3°F14.1°C 46.5°F8.1°C 67% Calm Calm 9.0 mph14.5 kmh 29.83 in1010.2 mb 0.00 in0.0 mm 0.00 in0.0 mm 0.00 in0.0 mm
02:54 PM 57.1°F13.9°C 46.7°F8.2°C 68% 2.0 mph SE3.2 kmh SE 9.0 mph14.5 kmh 29.83 in1010.2 mb 0.00 in0.0 mm 0.00 in0.0 mm 0.00 in0.0 mm
02:55 PM 56.9°F13.8°C 46.1°F7.8°C 67% 1.0 mph SE1.6 kmh SE 9.0 mph14.5 kmh 29.83 in1010.2 mb 0.00 in0.0 mm 0.00 in0.0 mm 0.00 in0.0 mm
02:58 PM 56.7°F13.7°C 46.7°F8.2°C 69% 4.0 mph SE6.4 kmh SE 9.0 mph14.5 kmh 29.83 in1010.2 mb 0.00 in0.0 mm 0.00 in0.0 mm 0.00 in0.0 mm
02:59 PM 56.8°F13.8°C 46.8°F8.2°C 69% 1.0 mph SE1.6 kmh SE 9.0 mph14.5 kmh 29.83 in1010.2 mb 0.00 in0.0 mm 0.00 in0.0 mm 0.00 in0.0 mm
03:00 PM 56.8°F13.8°C 47.1°F8.4°C 70% 4.0 mph SE6.4 kmh SE 5.0 mph8.0 kmh 29.83 in1010.2 mb 0.00 in0.0 mm 0.00 in0.0 mm 0.00 in0.0 mm
03:03 PM 56.9°F13.8°C 47.2°F8.4°C 70% 5.0 mph SE8.0 kmh SE 9.0 mph14.5 kmh 29.83 in1010.2 mb 0.00 in0.0 mm 0.00 in0.0 mm 0.00 in0.0 mm
03:04 PM 56.9°F13.8°C 47.2°F8.4°C 70% 4.0 mph SE6.4 kmh SE 9.0 mph14.5 kmh 29.83 in1010.2 mb 0.00 in0.0 mm 0.00 in0.0 mm 0.00 in0.0 mm
03:05 PM 56.9°F13.8°C 47.2°F8.4°C 70% Calm Calm 9.0 mph14.5 kmh 29.83 in1010.2 mb 0.00 in0.0 mm 0.00 in0.0 mm 0.00 in0.0 mm
03:08 PM 57.0°F13.9°C 47.3°F8.5°C 70% 5.0 mph SE8.0 kmh SE 9.0 mph14.5 kmh 29.83 in1010.2 mb 0.00 in0.0 mm 0.00 in0.0 mm 0.00 in0.0 mm
03:09 PM 57.1°F13.9°C 47.4°F8.6°C 70% 2.0 mph SE3.2 kmh SE 9.0 mph14.5 kmh 29.83 in1010.2 mb 0.00 in0.0 mm 0.00 in0.0 mm 0.00 in0.0 mm
03:10 PM 57.2°F14.0°C 47.5°F8.6°C 70% Calm Calm 9.0 mph14.5 kmh 29.83 in1010.2 mb 0.00 in0.0 mm 0.00 in0.0 mm 0.00 in0.0 mm
03:13 PM 57.7°F14.3°C 47.6°F8.7°C 69% 4.0 mph SE6.4 kmh SE 9.0 mph14.5 kmh 29.83 in1010.2 mb 0.00 in0.0 mm 0.00 in0.0 mm 0.00 in0.0 mm
03:14 PM 57.9°F14.4°C 47.8°F8.8°C 69% Calm Calm 9.0 mph14.5 kmh 29.83 in1010.2 mb 0.00 in0.0 mm 0.00 in0.0 mm 0.00 in0.0 mm
03:15 PM 58.1°F14.5°C 48.0°F8.9°C 69% 2.0 mph SE3.2 kmh SE 9.0 mph14.5 kmh 29.83 in1010.2 mb 0.00 in0.0 mm 0.00 in0.0 mm 0.00 in0.0 mm
03:18 PM 58.6°F14.8°C 48.1°F8.9°C 68% 4.0 mph SE6.4 kmh SE 9.0 mph14.5 kmh 29.82 in1009.8 mb 0.00 in0.0 mm 0.00 in0.0 mm 0.00 in0.0 mm
03:19 PM 58.8°F14.9°C 48.3°F9.1°C 68% 4.0 mph SE6.4 kmh SE 9.0 mph14.5 kmh 29.82 in1009.8 mb 0.00 in0.0 mm 0.00 in0.0 mm 0.00 in0.0 mm
03:20 PM 59.0°F15.0°C 48.1°F8.9°C 67% Calm Calm 9.0 mph14.5 kmh 29.82 in1009.8 mb 0.00 in0.0 mm 0.00 in0.0 mm 0.00 in0.0 mm
03:23 PM 59.1°F15.1°C 48.6°F9.2°C 68% 1.0 mph SE1.6 kmh SE 9.0 mph14.5 kmh 29.82 in1009.8 mb 0.00 in0.0 mm 0.00 in0.0 mm 0.00 in0.0 mm
03:24 PM 59.2°F15.1°C 48.7°F9.3°C 68% 2.0 mph SE3.2 kmh SE 9.0 mph14.5 kmh 29.82 in1009.8 mb 0.00 in0.0 mm 0.00 in0.0 mm 0.00 in0.0 mm
03:25 PM 59.4°F15.2°C 48.9°F9.4°C 68% Calm Calm 9.0 mph14.5 kmh 29.82 in1009.8 mb 0.00 in0.0 mm 0.00 in0.0 mm 0.00 in0.0 mm
03:28 PM 60.0°F15.6°C 49.0°F9.4°C 67% 1.0 mph SE1.6 kmh SE 9.0 mph14.5 kmh 29.82 in1009.8 mb 0.00 in0.0 mm 0.00 in0.0 mm 0.00 in0.0 mm
03:29 PM 60.2°F15.7°C 49.2°F9.6°C 67% Calm Calm 9.0 mph14.5 kmh 29.82 in1009.8 mb 0.00 in0.0 mm 0.00 in0.0 mm 0.00 in0.0 mm
03:30 PM 60.4°F15.8°C 49.0°F9.4°C 66% 2.0 mph SE3.2 kmh SE 9.0 mph14.5 kmh 29.82 in1009.8 mb 0.00 in0.0 mm 0.00 in0.0 mm 0.00 in0.0 mm
03:33 PM 60.7°F15.9°C 48.9°F9.4°C 65% 4.0 mph SE6.4 kmh SE 9.0 mph14.5 kmh 29.82 in1009.8 mb 0.00 in0.0 mm 0.00 in0.0 mm 0.00 in0.0 mm
03:34 PM 60.6°F15.9°C 48.8°F9.3°C 65% 2.0 mph SE3.2 kmh SE 9.0 mph14.5 kmh 29.82 in1009.8 mb 0.00 in0.0 mm 0.00 in0.0 mm 0.00 in0.0 mm
03:35 PM 60.4°F15.8°C 48.6°F9.2°C 65% 4.0 mph SE6.4 kmh SE 9.0 mph14.5 kmh 29.82 in1009.8 mb 0.00 in0.0 mm 0.00 in0.0 mm 0.00 in0.0 mm
03:39 PM 60.4°F15.8°C 49.0°F9.4°C 66% 6.0 mph SE9.7 kmh SE 9.0 mph14.5 kmh 29.82 in1009.8 mb 0.00 in0.0 mm 0.00 in0.0 mm 0.00 in0.0 mm
03:40 PM 60.0°F15.6°C 48.2°F9.0°C 65% 1.0 mph SE1.6 kmh SE 9.0 mph14.5 kmh 29.82 in1009.8 mb 0.00 in0.0 mm 0.00 in0.0 mm 0.00 in0.0 mm
03:43 PM 58.6°F14.8°C 47.7°F8.7°C 67% 5.0 mph SE8.0 kmh SE 9.0 mph14.5 kmh 29.82 in1009.8 mb 0.00 in0.0 mm 0.00 in0.0 mm 0.00 in0.0 mm
03:44 PM 58.4°F14.7°C 47.9°F8.8°C 68% 1.0 mph SE1.6 kmh SE 9.0 mph14.5 kmh 29.82 in1009.8 mb 0.00 in0.0 mm 0.00 in0.0 mm 0.00 in0.0 mm
03:45 PM 58.4°F14.7°C 48.3°F9.1°C 69% 5.0 mph SE8.0 kmh SE 9.0 mph14.5 kmh 29.82 in1009.8 mb 0.00 in0.0 mm 0.00 in0.0 mm 0.00 in0.0 mm
03:48 PM 57.3°F14.1°C 46.8°F8.2°C 68% 4.0 mph SE6.4 kmh SE 9.0 mph14.5 kmh 29.82 in1009.8 mb 0.00 in0.0 mm 0.00 in0.0 mm 0.00 in0.0 mm
03:49 PM 57.2°F14.0°C 47.5°F8.6°C 70% 1.0 mph SE1.6 kmh SE 9.0 mph14.5 kmh 29.82 in1009.8 mb 0.00 in0.0 mm 0.00 in0.0 mm 0.00 in0.0 mm
03:50 PM 57.1°F13.9°C 47.4°F8.6°C 70% Calm Calm 9.0 mph14.5 kmh 29.82 in1009.8 mb 0.00 in0.0 mm 0.00 in0.0 mm 0.00 in0.0 mm
03:53 PM 57.4°F14.1°C 48.1°F8.9°C 71% 1.0 mph SE1.6 kmh SE 9.0 mph14.5 kmh 29.82 in1009.8 mb 0.00 in0.0 mm 0.00 in0.0 mm 0.00 in0.0 mm
03:54 PM 57.6°F14.2°C 48.3°F9.1°C 71% 4.0 mph SE6.4 kmh SE 9.0 mph14.5 kmh 29.82 in1009.8 mb 0.00 in0.0 mm 0.00 in0.0 mm 0.00 in0.0 mm
03:55 PM 57.6°F14.2°C 47.9°F8.8°C 70% Calm Calm 9.0 mph14.5 kmh 29.82 in1009.8 mb 0.00 in0.0 mm 0.00 in0.0 mm 0.00 in0.0 mm
03:58 PM 57.7°F14.3°C 48.0°F8.9°C 70% 1.0 mph SE1.6 kmh SE 9.0 mph14.5 kmh 29.82 in1009.8 mb 0.00 in0.0 mm 0.00 in0.0 mm 0.00 in0.0 mm
03:59 PM 57.6°F14.2°C 47.5°F8.6°C 69% 1.0 mph SE1.6 kmh SE 9.0 mph14.5 kmh 29.81 in1009.5 mb 0.00 in0.0 mm 0.00 in0.0 mm 0.00 in0.0 mm
04:00 PM 57.3°F14.1°C 47.2°F8.4°C 69% 5.0 mph SE8.0 kmh SE 6.0 mph9.7 kmh 29.81 in1009.5 mb 0.00 in0.0 mm 0.00 in0.0 mm 0.00 in0.0 mm
04:03 PM 57.1°F13.9°C 47.8°F8.8°C 71% 2.0 mph SE3.2 kmh SE 6.0 mph9.7 kmh 29.82 in1009.8 mb 0.00 in0.0 mm 0.00 in0.0 mm 0.00 in0.0 mm
04:04 PM 57.2°F14.0°C 47.9°F8.8°C 71% Calm Calm 6.0 mph9.7 kmh 29.82 in1009.8 mb 0.00 in0.0 mm 0.00 in0.0 mm 0.00 in0.0 mm
04:05 PM 57.4°F14.1°C 48.1°F8.9°C 71% 1.0 mph SE1.6 kmh SE 6.0 mph9.7 kmh 29.82 in1009.8 mb 0.00 in0.0 mm 0.00 in0.0 mm 0.00 in0.0 mm
04:08 PM 58.1°F14.5°C 48.4°F9.1°C 70% 1.0 mph SE1.6 kmh SE 6.0 mph9.7 kmh 29.81 in1009.5 mb 0.00 in0.0 mm 0.00 in0.0 mm 0.00 in0.0 mm
04:09 PM 58.2°F14.6°C 48.1°F8.9°C 69% 4.0 mph SE6.4 kmh SE 9.0 mph14.5 kmh 29.81 in1009.5 mb 0.00 in0.0 mm 0.00 in0.0 mm 0.00 in0.0 mm
04:10 PM 58.3°F14.6°C 48.2°F9.0°C 69% Calm Calm 9.0 mph14.5 kmh 29.81 in1009.5 mb 0.00 in0.0 mm 0.00 in0.0 mm 0.00 in0.0 mm
04:13 PM 58.1°F14.5°C 48.0°F8.9°C 69% 4.0 mph SE6.4 kmh SE 9.0 mph14.5 kmh 29.81 in1009.5 mb 0.00 in0.0 mm 0.00 in0.0 mm 0.00 in0.0 mm
04:14 PM 58.1°F14.5°C 48.0°F8.9°C 69% Calm Calm 9.0 mph14.5 kmh 29.81 in1009.5 mb 0.00 in0.0 mm 0.00 in0.0 mm 0.00 in0.0 mm
04:15 PM 58.2°F14.6°C 48.1°F8.9°C 69% Calm Calm 9.0 mph14.5 kmh 29.81 in1009.5 mb 0.00 in0.0 mm 0.00 in0.0 mm 0.00 in0.0 mm
04:18 PM 59.0°F15.0°C 48.5°F9.2°C 68% Calm Calm 9.0 mph14.5 kmh 29.81 in1009.5 mb 0.00 in0.0 mm 0.00 in0.0 mm 0.00 in0.0 mm
04:19 PM 59.3°F15.2°C 48.8°F9.3°C 68% Calm Calm 9.0 mph14.5 kmh 29.81 in1009.5 mb 0.00 in0.0 mm 0.00 in0.0 mm 0.00 in0.0 mm
04:20 PM 59.5°F15.3°C 48.9°F9.4°C 68% Calm Calm 9.0 mph14.5 kmh 29.81 in1009.5 mb 0.00 in0.0 mm 0.00 in0.0 mm 0.00 in0.0 mm
04:23 PM 59.6°F15.3°C 48.6°F9.2°C 67% 4.0 mph SE6.4 kmh SE 9.0 mph14.5 kmh 29.81 in1009.5 mb 0.00 in0.0 mm 0.00 in0.0 mm 0.00 in0.0 mm
04:24 PM 59.7°F15.4°C 48.7°F9.3°C 67% Calm Calm 9.0 mph14.5 kmh 29.81 in1009.5 mb 0.00 in0.0 mm 0.00 in0.0 mm 0.00 in0.0 mm
04:25 PM 59.8°F15.4°C 48.8°F9.3°C 67% Calm Calm 9.0 mph14.5 kmh 29.81 in1009.5 mb 0.00 in0.0 mm 0.00 in0.0 mm 0.00 in0.0 mm
04:28 PM 60.1°F15.6°C 48.7°F9.3°C 66% 5.0 mph SE8.0 kmh SE 9.0 mph14.5 kmh 29.81 in1009.5 mb 0.00 in0.0 mm 0.00 in0.0 mm 0.00 in0.0 mm
04:29 PM 60.0°F15.6°C 48.6°F9.2°C 66% 2.0 mph SE3.2 kmh SE 9.0 mph14.5 kmh 29.81 in1009.5 mb 0.00 in0.0 mm 0.00 in0.0 mm 0.00 in0.0 mm
04:30 PM 59.9°F15.5°C 48.5°F9.2°C 66% 6.0 mph SE9.7 kmh SE 9.0 mph14.5 kmh 29.81 in1009.5 mb 0.00 in0.0 mm 0.00 in0.0 mm 0.00 in0.0 mm
04:33 PM 59.7°F15.4°C 48.3°F9.1°C 66% 1.0 mph SE1.6 kmh SE 9.0 mph14.5 kmh 29.81 in1009.5 mb 0.00 in0.0 mm 0.00 in0.0 mm 0.00 in0.0 mm
04:34 PM 59.6°F15.3°C 48.2°F9.0°C 66% Calm Calm 9.0 mph14.5 kmh 29.81 in1009.5 mb 0.00 in0.0 mm 0.00 in0.0 mm 0.00 in0.0 mm
04:35 PM 59.6°F15.3°C 48.2°F9.0°C 66% Calm Calm 9.0 mph14.5 kmh 29.81 in1009.5 mb 0.00 in0.0 mm 0.00 in0.0 mm 0.00 in0.0 mm
04:38 PM 59.4°F15.2°C 48.5°F9.2°C 67% Calm Calm 9.0 mph14.5 kmh 29.80 in1009.1 mb 0.00 in0.0 mm 0.00 in0.0 mm 0.00 in0.0 mm
04:39 PM 59.5°F15.3°C 48.6°F9.2°C 67% Calm Calm 9.0 mph14.5 kmh 29.80 in1009.1 mb 0.00 in0.0 mm 0.00 in0.0 mm 0.00 in0.0 mm
04:40 PM 59.6°F15.3°C 48.6°F9.2°C 67% Calm Calm 9.0 mph14.5 kmh 29.80 in1009.1 mb 0.00 in0.0 mm 0.00 in0.0 mm 0.00 in0.0 mm
04:43 PM 58.8°F14.9°C 47.5°F8.6°C 66% 2.0 mph SE3.2 kmh SE 9.0 mph14.5 kmh 29.80 in1009.1 mb 0.00 in0.0 mm 0.00 in0.0 mm 0.00 in0.0 mm
04:44 PM 58.3°F14.6°C 47.0°F8.3°C 66% 2.0 mph SE3.2 kmh SE 9.0 mph14.5 kmh 29.80 in1009.1 mb 0.00 in0.0 mm 0.00 in0.0 mm 0.00 in0.0 mm
04:45 PM 57.8°F14.3°C 46.9°F8.3°C 67% 4.0 mph SE6.4 kmh SE 9.0 mph14.5 kmh 29.80 in1009.1 mb 0.00 in0.0 mm 0.00 in0.0 mm 0.00 in0.0 mm
04:48 PM 56.9°F13.8°C 47.6°F8.7°C 71% Calm Calm 9.0 mph14.5 kmh 29.80 in1009.1 mb 0.00 in0.0 mm 0.00 in0.0 mm 0.00 in0.0 mm
04:49 PM 56.9°F13.8°C 48.0°F8.9°C 72% 4.0 mph SE6.4 kmh SE 9.0 mph14.5 kmh 29.80 in1009.1 mb 0.00 in0.0 mm 0.00 in0.0 mm 0.00 in0.0 mm
04:50 PM 56.8°F13.8°C 47.5°F8.6°C 71% Calm Calm 9.0 mph14.5 kmh 29.80 in1009.1 mb 0.00 in0.0 mm 0.00 in0.0 mm 0.00 in0.0 mm
04:53 PM 56.5°F13.6°C 47.6°F8.7°C 72% 1.0 mph SE1.6 kmh SE 9.0 mph14.5 kmh 29.80 in1009.1 mb 0.00 in0.0 mm 0.00 in0.0 mm 0.00 in0.0 mm
04:54 PM 56.4°F13.6°C 47.5°F8.6°C 72% 4.0 mph SE6.4 kmh SE 9.0 mph14.5 kmh 29.80 in1009.1 mb 0.00 in0.0 mm 0.00 in0.0 mm 0.00 in0.0 mm
04:55 PM 56.3°F13.5°C 47.4°F8.6°C 72% 1.0 mph SE1.6 kmh SE 9.0 mph14.5 kmh 29.80 in1009.1 mb 0.00 in0.0 mm 0.00 in0.0 mm 0.00 in0.0 mm
04:58 PM 55.8°F13.2°C 46.9°F8.3°C 72% 4.0 mph SE6.4 kmh SE 9.0 mph14.5 kmh 29.80 in1009.1 mb 0.00 in0.0 mm 0.00 in0.0 mm 0.00 in0.0 mm
04:59 PM 55.7°F13.2°C 47.2°F8.4°C 73% 2.0 mph SE3.2 kmh SE 9.0 mph14.5 kmh 29.80 in1009.1 mb 0.00 in0.0 mm 0.00 in0.0 mm 0.00 in0.0 mm
05:00 PM 55.5°F13.1°C 47.0°F8.3°C 73% 1.0 mph SE1.6 kmh SE 1.0 mph1.6 kmh 29.80 in1009.1 mb 0.00 in0.0 mm 0.00 in0.0 mm 0.00 in0.0 mm
05:03 PM 55.4°F13.0°C 47.3°F8.5°C 74% Calm Calm 2.0 mph3.2 kmh 29.80 in1009.1 mb 0.00 in0.0 mm 0.00 in0.0 mm 0.00 in0.0 mm
05:04 PM 55.4°F13.0°C 47.3°F8.5°C 74% 2.0 mph SE3.2 kmh SE 2.0 mph3.2 kmh 29.80 in1009.1 mb 0.00 in0.0 mm 0.00 in0.0 mm 0.00 in0.0 mm
05:05 PM 55.6°F13.1°C 47.5°F8.6°C 74% 1.0 mph SE1.6 kmh SE 2.0 mph3.2 kmh 29.80 in1009.1 mb 0.00 in0.0 mm 0.00 in0.0 mm 0.00 in0.0 mm
05:08 PM 55.8°F13.2°C 47.7°F8.7°C 74% 1.0 mph SE1.6 kmh SE 2.0 mph3.2 kmh 29.80 in1009.1 mb 0.00 in0.0 mm 0.00 in0.0 mm 0.00 in0.0 mm
05:09 PM 55.9°F13.3°C 47.7°F8.7°C 74% Calm Calm 2.0 mph3.2 kmh 29.80 in1009.1 mb 0.00 in0.0 mm 0.00 in0.0 mm 0.00 in0.0 mm
05:10 PM 56.0°F13.3°C 47.8°F8.8°C 74% Calm Calm 2.0 mph3.2 kmh 29.80 in1009.1 mb 0.00 in0.0 mm 0.00 in0.0 mm 0.00 in0.0 mm
05:13 PM 56.3°F13.5°C 48.1°F8.9°C 74% 1.0 mph SE1.6 kmh SE 2.0 mph3.2 kmh 29.80 in1009.1 mb 0.00 in0.0 mm 0.00 in0.0 mm 0.00 in0.0 mm
05:14 PM 56.3°F13.5°C 47.8°F8.8°C 73% 1.0 mph SE1.6 kmh SE 2.0 mph3.2 kmh 29.80 in1009.1 mb 0.00 in0.0 mm 0.00 in0.0 mm 0.00 in0.0 mm
05:15 PM 56.3°F13.5°C 47.8°F8.8°C 73% 1.0 mph SE1.6 kmh SE 2.0 mph3.2 kmh 29.80 in1009.1 mb 0.00 in0.0 mm 0.00 in0.0 mm 0.00 in0.0 mm
05:18 PM 56.3°F13.5°C 47.8°F8.8°C 73% 1.0 mph SE1.6 kmh SE 2.0 mph3.2 kmh 29.80 in1009.1 mb 0.00 in0.0 mm 0.00 in0.0 mm 0.00 in0.0 mm
05:19 PM 56.3°F13.5°C 47.8°F8.8°C 73% 2.0 mph SE3.2 kmh SE 2.0 mph3.2 kmh 29.80 in1009.1 mb 0.00 in0.0 mm 0.00 in0.0 mm 0.00 in0.0 mm
05:20 PM 56.3°F13.5°C 47.8°F8.8°C 73% 1.0 mph SE1.6 kmh SE 2.0 mph3.2 kmh 29.80 in1009.1 mb 0.00 in0.0 mm 0.00 in0.0 mm 0.00 in0.0 mm
05:23 PM 56.1°F13.4°C 47.6°F8.7°C 73% 1.0 mph SE1.6 kmh SE 4.0 mph6.4 kmh 29.80 in1009.1 mb 0.00 in0.0 mm 0.00 in0.0 mm 0.00 in0.0 mm
05:24 PM 56.0°F13.3°C 47.5°F8.6°C 73% Calm Calm 4.0 mph6.4 kmh 29.80 in1009.1 mb 0.00 in0.0 mm 0.00 in0.0 mm 0.00 in0.0 mm
05:25 PM 56.1°F13.4°C 47.6°F8.7°C 73% 1.0 mph SE1.6 kmh SE 4.0 mph6.4 kmh 29.80 in1009.1 mb 0.00 in0.0 mm 0.00 in0.0 mm 0.00 in0.0 mm
05:28 PM 56.3°F13.5°C 47.8°F8.8°C 73% Calm Calm 4.0 mph6.4 kmh 29.80 in1009.1 mb 0.00 in0.0 mm 0.00 in0.0 mm 0.00 in0.0 mm
05:29 PM 56.4°F13.6°C 47.9°F8.8°C 73% Calm Calm 4.0 mph6.4 kmh 29.80 in1009.1 mb 0.00 in0.0 mm 0.00 in0.0 mm 0.00 in0.0 mm
05:30 PM 56.4°F13.6°C 47.9°F8.8°C 73% 1.0 mph SE1.6 kmh SE 4.0 mph6.4 kmh 29.80 in1009.1 mb 0.00 in0.0 mm 0.00 in0.0 mm 0.00 in0.0 mm
05:33 PM 56.6°F13.7°C 47.7°F8.7°C 72% 2.0 mph SE3.2 kmh SE 4.0 mph6.4 kmh 29.80 in1009.1 mb 0.00 in0.0 mm 0.00 in0.0 mm 0.00 in0.0 mm
05:34 PM 56.7°F13.7°C 47.8°F8.8°C 72% 1.0 mph SE1.6 kmh SE 4.0 mph6.4 kmh 29.80 in1009.1 mb 0.00 in0.0 mm 0.00 in0.0 mm 0.00 in0.0 mm
05:35 PM 56.8°F13.8°C 48.3°F9.1°C 73% Calm Calm 4.0 mph6.4 kmh 29.80 in1009.1 mb 0.00 in0.0 mm 0.00 in0.0 mm 0.00 in0.0 mm
05:38 PM 57.2°F14.0°C 48.3°F9.1°C 72% 1.0 mph SE1.6 kmh SE 4.0 mph6.4 kmh 29.80 in1009.1 mb 0.00 in0.0 mm 0.00 in0.0 mm 0.00 in0.0 mm
05:39 PM 57.2°F14.0°C 47.9°F8.8°C 71% 2.0 mph SE3.2 kmh SE 4.0 mph6.4 kmh 29.80 in1009.1 mb 0.00 in0.0 mm 0.00 in0.0 mm 0.00 in0.0 mm
05:40 PM 57.2°F14.0°C 47.9°F8.8°C 71% Calm Calm 4.0 mph6.4 kmh 29.80 in1009.1 mb 0.00 in0.0 mm 0.00 in0.0 mm 0.00 in0.0 mm
05:43 PM 57.4°F14.1°C 48.1°F8.9°C 71% 1.0 mph SE1.6 kmh SE 4.0 mph6.4 kmh 29.80 in1009.1 mb 0.00 in0.0 mm 0.00 in0.0 mm 0.00 in0.0 mm
05:44 PM 57.5°F14.2°C 48.2°F9.0°C 71% 2.0 mph SE3.2 kmh SE 4.0 mph6.4 kmh 29.80 in1009.1 mb 0.00 in0.0 mm 0.00 in0.0 mm 0.00 in0.0 mm
05:45 PM 57.6°F14.2°C 48.3°F9.1°C 71% 1.0 mph SE1.6 kmh SE 6.0 mph9.7 kmh 29.80 in1009.1 mb 0.00 in0.0 mm 0.00 in0.0 mm 0.00 in0.0 mm
05:48 PM 57.2°F14.0°C 47.5°F8.6°C 70% 1.0 mph SE1.6 kmh SE 6.0 mph9.7 kmh 29.80 in1009.1 mb 0.00 in0.0 mm 0.00 in0.0 mm 0.00 in0.0 mm
05:49 PM 57.2°F14.0°C 47.9°F8.8°C 71% 4.0 mph SE6.4 kmh SE 6.0 mph9.7 kmh 29.80 in1009.1 mb 0.00 in0.0 mm 0.00 in0.0 mm 0.00 in0.0 mm
05:50 PM 57.1°F13.9°C 47.8°F8.8°C 71% Calm Calm 6.0 mph9.7 kmh 29.80 in1009.1 mb 0.00 in0.0 mm 0.00 in0.0 mm 0.00 in0.0 mm
05:53 PM 57.7°F14.3°C 48.8°F9.3°C 72% 2.0 mph SE3.2 kmh SE 6.0 mph9.7 kmh 29.79 in1008.8 mb 0.00 in0.0 mm 0.00 in0.0 mm 0.00 in0.0 mm
05:54 PM 57.9°F14.4°C 48.6°F9.2°C 71% Calm Calm 6.0 mph9.7 kmh 29.80 in1009.1 mb 0.00 in0.0 mm 0.00 in0.0 mm 0.00 in0.0 mm
05:55 PM 58.0°F14.4°C 48.7°F9.3°C 71% Calm Calm 6.0 mph9.7 kmh 29.79 in1008.8 mb 0.00 in0.0 mm 0.00 in0.0 mm 0.00 in0.0 mm
05:58 PM 58.7°F14.8°C 49.0°F9.4°C 70% 2.0 mph SE3.2 kmh SE 6.0 mph9.7 kmh 29.79 in1008.8 mb 0.00 in0.0 mm 0.00 in0.0 mm 0.00 in0.0 mm
05:59 PM 59.0°F15.0°C 49.2°F9.6°C 70% Calm Calm 6.0 mph9.7 kmh 29.79 in1008.8 mb 0.00 in0.0 mm 0.00 in0.0 mm 0.00 in0.0 mm
06:00 PM 59.3°F15.2°C 49.1°F9.5°C 69% Calm Calm -- 29.79 in1008.8 mb 0.00 in0.0 mm 0.00 in0.0 mm 0.00 in0.0 mm
06:03 PM 60.0°F15.6°C 49.0°F9.4°C 67% 1.0 mph SE1.6 kmh SE 7.0 mph11.3 kmh 29.79 in1008.8 mb 0.00 in0.0 mm 0.00 in0.0 mm 0.00 in0.0 mm
06:04 PM 60.2°F15.7°C 49.2°F9.6°C 67% Calm Calm 7.0 mph11.3 kmh 29.79 in1008.8 mb 0.00 in0.0 mm 0.00 in0.0 mm 0.00 in0.0 mm
06:05 PM 60.3°F15.7°C 48.9°F9.4°C 66% 5.0 mph SE8.0 kmh SE 7.0 mph11.3 kmh 29.79 in1008.8 mb 0.00 in0.0 mm 0.00 in0.0 mm 0.00 in0.0 mm
06:08 PM 60.2°F15.7°C 48.4°F9.1°C 65% 1.0 mph SE1.6 kmh SE 7.0 mph11.3 kmh 29.79 in1008.8 mb 0.00 in0.0 mm 0.00 in0.0 mm 0.00 in0.0 mm
06:09 PM 60.0°F15.6°C 48.2°F9.0°C 65% 2.0 mph SE3.2 kmh SE 7.0 mph11.3 kmh 29.79 in1008.8 mb 0.00 in0.0 mm 0.00 in0.0 mm 0.00 in0.0 mm
06:10 PM 59.8°F15.4°C 48.4°F9.1°C 66% Calm Calm 7.0 mph11.3 kmh 29.79 in1008.8 mb 0.00 in0.0 mm 0.00 in0.0 mm 0.00 in0.0 mm
06:13 PM 59.8°F15.4°C 48.4°F9.1°C 66% 1.0 mph SE1.6 kmh SE 7.0 mph11.3 kmh 29.79 in1008.8 mb 0.00 in0.0 mm 0.00 in0.0 mm 0.00 in0.0 mm
06:14 PM 59.8°F15.4°C 48.4°F9.1°C 66% 2.0 mph SE3.2 kmh SE 7.0 mph11.3 kmh 29.79 in1008.8 mb 0.00 in0.0 mm 0.00 in0.0 mm 0.00 in0.0 mm
06:15 PM 59.7°F15.4°C 48.3°F9.1°C 66% Calm Calm 7.0 mph11.3 kmh 29.79 in1008.8 mb 0.00 in0.0 mm 0.00 in0.0 mm 0.00 in0.0 mm
06:18 PM 59.5°F15.3°C 48.2°F9.0°C 66% 2.0 mph SE3.2 kmh SE 7.0 mph11.3 kmh 29.79 in1008.8 mb 0.00 in0.0 mm 0.00 in0.0 mm 0.00 in0.0 mm
06:19 PM 59.4°F15.2°C 48.1°F8.9°C 66% 4.0 mph SE6.4 kmh SE 7.0 mph11.3 kmh 29.79 in1008.8 mb 0.00 in0.0 mm 0.00 in0.0 mm 0.00 in0.0 mm
06:20 PM 59.2°F15.1°C 47.9°F8.8°C 66% 4.0 mph SE6.4 kmh SE 7.0 mph11.3 kmh 29.79 in1008.8 mb 0.00 in0.0 mm 0.00 in0.0 mm 0.00 in0.0 mm
06:23 PM 58.6°F14.8°C 47.7°F8.7°C 67% Calm Calm 7.0 mph11.3 kmh 29.79 in1008.8 mb 0.00 in0.0 mm 0.00 in0.0 mm 0.00 in0.0 mm
06:24 PM 58.5°F14.7°C 48.0°F8.9°C 68% Calm Calm 7.0 mph11.3 kmh 29.79 in1008.8 mb 0.00 in0.0 mm 0.00 in0.0 mm 0.00 in0.0 mm
06:25 PM 58.5°F14.7°C 48.0°F8.9°C 68% Calm Calm 7.0 mph11.3 kmh 29.79 in1008.8 mb 0.00 in0.0 mm 0.00 in0.0 mm 0.00 in0.0 mm
06:28 PM 58.5°F14.7°C 48.0°F8.9°C 68% 1.0 mph SE1.6 kmh SE 7.0 mph11.3 kmh 29.79 in1008.8 mb 0.00 in0.0 mm 0.00 in0.0 mm 0.00 in0.0 mm
06:29 PM 58.6°F14.8°C 48.1°F8.9°C 68% Calm Calm 7.0 mph11.3 kmh 29.79 in1008.8 mb 0.00 in0.0 mm 0.00 in0.0 mm 0.00 in0.0 mm
06:30 PM 58.6°F14.8°C 48.5°F9.2°C 69% Calm Calm 7.0 mph11.3 kmh 29.79 in1008.8 mb 0.00 in0.0 mm 0.00 in0.0 mm 0.00 in0.0 mm
06:33 PM 58.8°F14.9°C 48.3°F9.1°C 68% Calm Calm 7.0 mph11.3 kmh 29.79 in1008.8 mb 0.00 in0.0 mm 0.00 in0.0 mm 0.00 in0.0 mm
06:34 PM 58.9°F14.9°C 48.4°F9.1°C 68% Calm Calm 7.0 mph11.3 kmh 29.79 in1008.8 mb 0.00 in0.0 mm 0.00 in0.0 mm 0.00 in0.0 mm
06:35 PM 58.9°F14.9°C 48.4°F9.1°C 68% Calm Calm 7.0 mph11.3 kmh 29.79 in1008.8 mb 0.00 in0.0 mm 0.00 in0.0 mm 0.00 in0.0 mm
06:38 PM 59.1°F15.1°C 48.6°F9.2°C 68% Calm Calm 7.0 mph11.3 kmh 29.78 in1008.5 mb 0.00 in0.0 mm 0.00 in0.0 mm 0.00 in0.0 mm
06:39 PM 59.1°F15.1°C 49.3°F9.6°C 70% Calm Calm 7.0 mph11.3 kmh 29.78 in1008.5 mb 0.00 in0.0 mm 0.00 in0.0 mm 0.00 in0.0 mm
06:40 PM 59.1°F15.1°C 48.6°F9.2°C 68% Calm Calm 7.0 mph11.3 kmh 29.78 in1008.5 mb 0.00 in0.0 mm 0.00 in0.0 mm 0.00 in0.0 mm
06:43 PM 59.2°F15.1°C 48.7°F9.3°C 68% Calm Calm 7.0 mph11.3 kmh 29.78 in1008.5 mb 0.00 in0.0 mm 0.00 in0.0 mm 0.00 in0.0 mm
06:44 PM 59.2°F15.1°C 48.7°F9.3°C 68% 1.0 mph SE1.6 kmh SE 7.0 mph11.3 kmh 29.78 in1008.5 mb 0.00 in0.0 mm 0.00 in0.0 mm 0.00 in0.0 mm
06:45 PM 59.1°F15.1°C 48.6°F9.2°C 68% 1.0 mph SE1.6 kmh SE 7.0 mph11.3 kmh 29.78 in1008.5 mb 0.00 in0.0 mm 0.00 in0.0 mm 0.00 in0.0 mm
06:48 PM 59.0°F15.0°C 48.5°F9.2°C 68% 1.0 mph SE1.6 kmh SE 7.0 mph11.3 kmh 29.79 in1008.8 mb 0.00 in0.0 mm 0.00 in0.0 mm 0.00 in0.0 mm
06:49 PM 58.9°F14.9°C 48.8°F9.3°C 69% Calm Calm 7.0 mph11.3 kmh 29.79 in1008.8 mb 0.00 in0.0 mm 0.00 in0.0 mm 0.00 in0.0 mm
06:50 PM 58.9°F14.9°C 48.8°F9.3°C 69% Calm Calm 7.0 mph11.3 kmh 29.79 in1008.8 mb 0.00 in0.0 mm 0.00 in0.0 mm 0.00 in0.0 mm
06:53 PM 58.9°F14.9°C 48.8°F9.3°C 69% Calm Calm 7.0 mph11.3 kmh 29.79 in1008.8 mb 0.00 in0.0 mm 0.00 in0.0 mm 0.00 in0.0 mm
06:54 PM 58.9°F14.9°C 48.8°F9.3°C 69% 1.0 mph SE1.6 kmh SE 7.0 mph11.3 kmh 29.79 in1008.8 mb 0.00 in0.0 mm 0.00 in0.0 mm 0.00 in0.0 mm
06:55 PM 58.9°F14.9°C 48.8°F9.3°C 69% 1.0 mph SE1.6 kmh SE 7.0 mph11.3 kmh 29.79 in1008.8 mb 0.00 in0.0 mm 0.00 in0.0 mm 0.00 in0.0 mm
06:58 PM 58.8°F14.9°C 48.7°F9.3°C 69% Calm Calm 7.0 mph11.3 kmh 29.79 in1008.8 mb 0.00 in0.0 mm 0.00 in0.0 mm 0.00 in0.0 mm
06:59 PM 58.8°F14.9°C 48.7°F9.3°C 69% Calm Calm 7.0 mph11.3 kmh 29.79 in1008.8 mb 0.00 in0.0 mm 0.00 in0.0 mm 0.00 in0.0 mm
07:00 PM 58.8°F14.9°C 48.7°F9.3°C 69% Calm Calm -- 29.79 in1008.8 mb 0.00 in0.0 mm 0.00 in0.0 mm 0.00 in0.0 mm
07:03 PM 59.0°F15.0°C 48.9°F9.4°C 69% Calm Calm -- 29.79 in1008.8 mb 0.00 in0.0 mm 0.00 in0.0 mm 0.00 in0.0 mm
07:04 PM 59.1°F15.1°C 49.0°F9.4°C 69% Calm Calm -- 29.79 in1008.8 mb 0.00 in0.0 mm 0.00 in0.0 mm 0.00 in0.0 mm
07:05 PM 59.2°F15.1°C 48.7°F9.3°C 68% Calm Calm -- 29.79 in1008.8 mb 0.00 in0.0 mm 0.00 in0.0 mm 0.00 in0.0 mm
07:08 PM 59.4°F15.2°C 48.9°F9.4°C 68% Calm Calm 2.0 mph3.2 kmh 29.79 in1008.8 mb 0.00 in0.0 mm 0.00 in0.0 mm 0.00 in0.0 mm
07:09 PM 59.4°F15.2°C 48.9°F9.4°C 68% 1.0 mph SE1.6 kmh SE 2.0 mph3.2 kmh 29.79 in1008.8 mb 0.00 in0.0 mm 0.00 in0.0 mm 0.00 in0.0 mm
07:10 PM 59.4°F15.2°C 48.9°F9.4°C 68% 1.0 mph SE1.6 kmh SE 2.0 mph3.2 kmh 29.79 in1008.8 mb 0.00 in0.0 mm 0.00 in0.0 mm 0.00 in0.0 mm
07:13 PM 59.5°F15.3°C 48.9°F9.4°C 68% 1.0 mph SE1.6 kmh SE 2.0 mph3.2 kmh 29.79 in1008.8 mb 0.00 in0.0 mm 0.00 in0.0 mm 0.00 in0.0 mm
07:14 PM 59.4°F15.2°C 48.5°F9.2°C 67% Calm Calm 2.0 mph3.2 kmh 29.79 in1008.8 mb 0.00 in0.0 mm 0.00 in0.0 mm 0.00 in0.0 mm
07:15 PM 59.4°F15.2°C 48.5°F9.2°C 67% Calm Calm 2.0 mph3.2 kmh 29.79 in1008.8 mb 0.00 in0.0 mm 0.00 in0.0 mm 0.00 in0.0 mm
07:18 PM 59.4°F15.2°C 48.9°F9.4°C 68% Calm Calm 4.0 mph6.4 kmh 29.78 in1008.5 mb 0.00 in0.0 mm 0.00 in0.0 mm 0.00 in0.0 mm
07:19 PM 59.3°F15.2°C 48.8°F9.3°C 68% Calm Calm 4.0 mph6.4 kmh 29.78 in1008.5 mb 0.00 in0.0 mm 0.00 in0.0 mm 0.00 in0.0 mm
07:20 PM 59.3°F15.2°C 48.8°F9.3°C 68% 1.0 mph SE1.6 kmh SE 4.0 mph6.4 kmh 29.78 in1008.5 mb 0.00 in0.0 mm 0.00 in0.0 mm 0.00 in0.0 mm
07:23 PM 59.4°F15.2°C 48.9°F9.4°C 68% 1.0 mph SE1.6 kmh SE 4.0 mph6.4 kmh 29.79 in1008.8 mb 0.00 in0.0 mm 0.00 in0.0 mm 0.00 in0.0 mm
07:24 PM 59.4°F15.2°C 48.9°F9.4°C 68% Calm Calm 4.0 mph6.4 kmh 29.79 in1008.8 mb 0.00 in0.0 mm 0.00 in0.0 mm 0.00 in0.0 mm
07:25 PM 59.4°F15.2°C 48.9°F9.4°C 68% Calm Calm 4.0 mph6.4 kmh 29.79 in1008.8 mb 0.00 in0.0 mm 0.00 in0.0 mm 0.00 in0.0 mm
07:28 PM 59.7°F15.4°C 49.1°F9.5°C 68% 2.0 mph SE3.2 kmh SE 4.0 mph6.4 kmh 29.79 in1008.8 mb 0.00 in0.0 mm 0.00 in0.0 mm 0.00 in0.0 mm
07:29 PM 59.8°F15.4°C 49.2°F9.6°C 68% 1.0 mph SE1.6 kmh SE 4.0 mph6.4 kmh 29.79 in1008.8 mb 0.00 in0.0 mm 0.00 in0.0 mm 0.00 in0.0 mm
07:30 PM 59.9°F15.5°C 48.9°F9.4°C 67% Calm Calm 4.0 mph6.4 kmh 29.79 in1008.8 mb 0.00 in0.0 mm 0.00 in0.0 mm 0.00 in0.0 mm
07:33 PM 60.1°F15.6°C 49.1°F9.5°C 67% Calm Calm 4.0 mph6.4 kmh 29.79 in1008.8 mb 0.00 in0.0 mm 0.00 in0.0 mm 0.00 in0.0 mm
07:34 PM 60.2°F15.7°C 49.2°F9.6°C 67% Calm Calm 4.0 mph6.4 kmh 29.79 in1008.8 mb 0.00 in0.0 mm 0.00 in0.0 mm 0.00 in0.0 mm
07:35 PM 60.2°F15.7°C 49.2°F9.6°C 67% Calm Calm 4.0 mph6.4 kmh 29.79 in1008.8 mb 0.00 in0.0 mm 0.00 in0.0 mm 0.00 in0.0 mm
07:38 PM 60.4°F15.8°C 49.8°F9.9°C 68% Calm Calm 4.0 mph6.4 kmh 29.79 in1008.8 mb 0.00 in0.0 mm 0.00 in0.0 mm 0.00 in0.0 mm
07:39 PM 60.5°F15.8°C 49.9°F9.9°C 68% Calm Calm 4.0 mph6.4 kmh 29.79 in1008.8 mb 0.00 in0.0 mm 0.00 in0.0 mm 0.00 in0.0 mm
07:40 PM 60.6°F15.9°C 49.6°F9.8°C 67% Calm Calm 4.0 mph6.4 kmh 29.79 in1008.8 mb 0.00 in0.0 mm 0.00 in0.0 mm 0.00 in0.0 mm
07:43 PM 61.0°F16.1°C 50.0°F10.0°C 67% Calm Calm 4.0 mph6.4 kmh 29.79 in1008.8 mb 0.00 in0.0 mm 0.00 in0.0 mm 0.00 in0.0 mm
07:44 PM 61.1°F16.2°C 50.1°F10.1°C 67% 1.0 mph SE1.6 kmh SE 4.0 mph6.4 kmh 29.79 in1008.8 mb 0.00 in0.0 mm 0.00 in0.0 mm 0.00 in0.0 mm
07:45 PM 61.2°F16.2°C 50.2°F10.1°C 67% Calm Calm 4.0 mph6.4 kmh 29.79 in1008.8 mb 0.00 in0.0 mm 0.00 in0.0 mm 0.00 in0.0 mm
07:48 PM 61.4°F16.3°C 50.4°F10.2°C 67% Calm Calm 4.0 mph6.4 kmh 29.79 in1008.8 mb 0.00 in0.0 mm 0.00 in0.0 mm 0.00 in0.0 mm
07:49 PM 61.5°F16.4°C 50.5°F10.3°C 67% Calm Calm 4.0 mph6.4 kmh 29.78 in1008.5 mb 0.00 in0.0 mm 0.00 in0.0 mm 0.00 in0.0 mm
07:50 PM 61.7°F16.5°C 50.2°F10.1°C 66% Calm Calm 4.0 mph6.4 kmh 29.78 in1008.5 mb 0.00 in0.0 mm 0.00 in0.0 mm 0.00 in0.0 mm
07:53 PM 62.0°F16.7°C 50.5°F10.3°C 66% Calm Calm 4.0 mph6.4 kmh 29.79 in1008.8 mb 0.00 in0.0 mm 0.00 in0.0 mm 0.00 in0.0 mm
07:54 PM 62.1°F16.7°C 50.6°F10.3°C 66% Calm Calm 4.0 mph6.4 kmh 29.79 in1008.8 mb 0.00 in0.0 mm 0.00 in0.0 mm 0.00 in0.0 mm
07:55 PM 62.2°F16.8°C 50.3°F10.2°C 65% Calm Calm 4.0 mph6.4 kmh 29.79 in1008.8 mb 0.00 in0.0 mm 0.00 in0.0 mm 0.00 in0.0 mm
07:58 PM 61.7°F16.5°C 49.0°F9.4°C 63% 2.0 mph SE3.2 kmh SE 5.0 mph8.0 kmh 29.79 in1008.8 mb 0.00 in0.0 mm 0.00 in0.0 mm 0.00 in0.0 mm
07:59 PM 61.3°F16.3°C 48.6°F9.2°C 63% Calm Calm 5.0 mph8.0 kmh 29.79 in1008.8 mb 0.00 in0.0 mm 0.00 in0.0 mm 0.00 in0.0 mm
08:00 PM 61.0°F16.1°C 48.8°F9.3°C 64% Calm Calm -- 29.79 in1008.8 mb 0.00 in0.0 mm 0.00 in0.0 mm 0.00 in0.0 mm
08:03 PM 60.2°F15.7°C 48.4°F9.1°C 65% Calm Calm 5.0 mph8.0 kmh 29.79 in1008.8 mb 0.00 in0.0 mm 0.00 in0.0 mm 0.00 in0.0 mm
08:04 PM 59.8°F15.4°C 48.0°F8.9°C 65% Calm Calm 5.0 mph8.0 kmh 29.79 in1008.8 mb 0.00 in0.0 mm 0.00 in0.0 mm 0.00 in0.0 mm
08:05 PM 59.4°F15.2°C 48.1°F8.9°C 66% Calm Calm 5.0 mph8.0 kmh 29.79 in1008.8 mb 0.00 in0.0 mm 0.00 in0.0 mm 0.00 in0.0 mm
08:08 PM 58.8°F14.9°C 47.9°F8.8°C 67% Calm Calm 5.0 mph8.0 kmh 29.79 in1008.8 mb 0.00 in0.0 mm 0.00 in0.0 mm 0.00 in0.0 mm
08:09 PM 58.7°F14.8°C 48.2°F9.0°C 68% Calm Calm 5.0 mph8.0 kmh 29.79 in1008.8 mb 0.00 in0.0 mm 0.00 in0.0 mm 0.00 in0.0 mm
08:10 PM 58.6°F14.8°C 48.1°F8.9°C 68% Calm Calm 5.0 mph8.0 kmh 29.79 in1008.8 mb 0.00 in0.0 mm 0.00 in0.0 mm 0.00 in0.0 mm
08:13 PM 58.4°F14.7°C 48.3°F9.1°C 69% Calm Calm 5.0 mph8.0 kmh 29.79 in1008.8 mb 0.00 in0.0 mm 0.00 in0.0 mm 0.00 in0.0 mm
08:14 PM 58.2°F14.6°C 48.1°F8.9°C 69% Calm Calm 5.0 mph8.0 kmh 29.79 in1008.8 mb 0.00 in0.0 mm 0.00 in0.0 mm 0.00 in0.0 mm
08:15 PM 58.2°F14.6°C 48.1°F8.9°C 69% Calm Calm 5.0 mph8.0 kmh 29.79 in1008.8 mb 0.00 in0.0 mm 0.00 in0.0 mm 0.00 in0.0 mm
08:18 PM 57.9°F14.4°C 48.2°F9.0°C 70% Calm Calm 5.0 mph8.0 kmh 29.79 in1008.8 mb 0.00 in0.0 mm 0.00 in0.0 mm 0.00 in0.0 mm
08:19 PM 57.9°F14.4°C 48.2°F9.0°C 70% Calm Calm 5.0 mph8.0 kmh 29.79 in1008.8 mb 0.00 in0.0 mm 0.00 in0.0 mm 0.00 in0.0 mm
08:20 PM 57.9°F14.4°C 48.2°F9.0°C 70% Calm Calm 5.0 mph8.0 kmh 29.79 in1008.8 mb 0.00 in0.0 mm 0.00 in0.0 mm 0.00 in0.0 mm
08:23 PM 57.8°F14.3°C 48.1°F8.9°C 70% Calm Calm 5.0 mph8.0 kmh 29.79 in1008.8 mb 0.00 in0.0 mm 0.00 in0.0 mm 0.00 in0.0 mm
08:24 PM 57.8°F14.3°C 48.1°F8.9°C 70% Calm Calm 5.0 mph8.0 kmh 29.79 in1008.8 mb 0.00 in0.0 mm 0.00 in0.0 mm 0.00 in0.0 mm
08:25 PM 57.7°F14.3°C 48.0°F8.9°C 70% Calm Calm 5.0 mph8.0 kmh 29.79 in1008.8 mb 0.00 in0.0 mm 0.00 in0.0 mm 0.00 in0.0 mm
08:28 PM 57.4°F14.1°C 47.7°F8.7°C 70% Calm Calm 5.0 mph8.0 kmh 29.79 in1008.8 mb 0.00 in0.0 mm 0.00 in0.0 mm 0.00 in0.0 mm
08:29 PM 57.3°F14.1°C 47.6°F8.7°C 70% Calm Calm 5.0 mph8.0 kmh 29.79 in1008.8 mb 0.00 in0.0 mm 0.00 in0.0 mm 0.00 in0.0 mm
08:30 PM 57.2°F14.0°C 47.5°F8.6°C 70% Calm Calm 5.0 mph8.0 kmh 29.79 in1008.8 mb 0.00 in0.0 mm 0.00 in0.0 mm 0.00 in0.0 mm
08:33 PM 57.0°F13.9°C 47.7°F8.7°C 71% Calm Calm 5.0 mph8.0 kmh 29.79 in1008.8 mb 0.00 in0.0 mm 0.00 in0.0 mm 0.00 in0.0 mm
08:34 PM 57.0°F13.9°C 47.7°F8.7°C 71% Calm Calm 5.0 mph8.0 kmh 29.79 in1008.8 mb 0.00 in0.0 mm 0.00 in0.0 mm 0.00 in0.0 mm
08:35 PM 57.0°F13.9°C 47.7°F8.7°C 71% Calm Calm 5.0 mph8.0 kmh 29.79 in1008.8 mb 0.00 in0.0 mm 0.00 in0.0 mm 0.00 in0.0 mm
08:38 PM 56.9°F13.8°C 47.6°F8.7°C 71% Calm Calm 5.0 mph8.0 kmh 29.79 in1008.8 mb 0.00 in0.0 mm 0.00 in0.0 mm 0.00 in0.0 mm
08:39 PM 56.8°F13.8°C 47.5°F8.6°C 71% Calm Calm 5.0 mph8.0 kmh 29.79 in1008.8 mb 0.00 in0.0 mm 0.00 in0.0 mm 0.00 in0.0 mm
08:40 PM 56.8°F13.8°C 47.9°F8.8°C 72% Calm Calm 5.0 mph8.0 kmh 29.79 in1008.8 mb 0.00 in0.0 mm 0.00 in0.0 mm 0.00 in0.0 mm
08:43 PM 56.8°F13.8°C 47.9°F8.8°C 72% Calm Calm 5.0 mph8.0 kmh 29.79 in1008.8 mb 0.00 in0.0 mm 0.00 in0.0 mm 0.00 in0.0 mm
08:44 PM 56.8°F13.8°C 47.9°F8.8°C 72% Calm Calm 5.0 mph8.0 kmh 29.79 in1008.8 mb 0.00 in0.0 mm 0.00 in0.0 mm 0.00 in0.0 mm
08:45 PM 56.8°F13.8°C 47.9°F8.8°C 72% 2.0 mph SE3.2 kmh SE 5.0 mph8.0 kmh 29.79 in1008.8 mb 0.00 in0.0 mm 0.00 in0.0 mm 0.00 in0.0 mm
08:48 PM 57.3°F14.1°C 48.4°F9.1°C 72% Calm Calm 5.0 mph8.0 kmh 29.79 in1008.8 mb 0.00 in0.0 mm 0.00 in0.0 mm 0.00 in0.0 mm
08:49 PM 57.5°F14.2°C 48.2°F9.0°C 71% Calm Calm 5.0 mph8.0 kmh 29.79 in1008.8 mb 0.00 in0.0 mm 0.00 in0.0 mm 0.00 in0.0 mm
08:50 PM 57.6°F14.2°C 48.3°F9.1°C 71% 2.0 mph SE3.2 kmh SE 5.0 mph8.0 kmh 29.79 in1008.8 mb 0.00 in0.0 mm 0.00 in0.0 mm 0.00 in0.0 mm
08:53 PM 58.4°F14.7°C 47.9°F8.8°C 68% 1.0 mph SE1.6 kmh SE 8.0 mph12.9 kmh 29.79 in1008.8 mb 0.00 in0.0 mm 0.00 in0.0 mm 0.00 in0.0 mm
08:54 PM 58.8°F14.9°C 47.5°F8.6°C 66% 4.0 mph SE6.4 kmh SE 10.0 mph16.1 kmh 29.80 in1009.1 mb 0.00 in0.0 mm 0.00 in0.0 mm 0.00 in0.0 mm
08:55 PM 59.4°F15.2°C 47.2°F8.4°C 64% 2.0 mph SE3.2 kmh SE 10.0 mph16.1 kmh 29.79 in1008.8 mb 0.00 in0.0 mm 0.00 in0.0 mm 0.00 in0.0 mm
08:58 PM 60.6°F15.9°C 47.1°F8.4°C 61% 1.0 mph SE1.6 kmh SE 11.0 mph17.7 kmh 29.80 in1009.1 mb 0.00 in0.0 mm 0.00 in0.0 mm 0.00 in0.0 mm
08:59 PM 60.8°F16.0°C 46.8°F8.2°C 60% 2.0 mph SE3.2 kmh SE 11.0 mph17.7 kmh 29.80 in1009.1 mb 0.00 in0.0 mm 0.00 in0.0 mm 0.00 in0.0 mm
09:00 PM 61.0°F16.1°C 46.6°F8.1°C 59% 2.0 mph ESE3.2 kmh ESE 4.0 mph6.4 kmh 29.80 in1009.1 mb 0.00 in0.0 mm 0.00 in0.0 mm 0.00 in0.0 mm
09:03 PM 61.2°F16.2°C 46.3°F7.9°C 58% 10.0 mph NE16.1 kmh NE 12.0 mph19.3 kmh 29.80 in1009.1 mb 0.00 in0.0 mm 0.00 in0.0 mm 0.00 in0.0 mm
09:04 PM 61.3°F16.3°C 46.0°F7.8°C 57% 2.0 mph NE3.2 kmh NE 12.0 mph19.3 kmh 29.80 in1009.1 mb 0.00 in0.0 mm 0.00 in0.0 mm 0.00 in0.0 mm
09:05 PM 61.3°F16.3°C 46.0°F7.8°C 57% 5.0 mph NE8.0 kmh NE 12.0 mph19.3 kmh 29.80 in1009.1 mb 0.00 in0.0 mm 0.00 in0.0 mm 0.00 in0.0 mm
09:08 PM 61.3°F16.3°C 45.5°F7.5°C 56% 5.0 mph NE8.0 kmh NE 12.0 mph19.3 kmh 29.80 in1009.1 mb 0.00 in0.0 mm 0.00 in0.0 mm 0.00 in0.0 mm
09:09 PM 61.3°F16.3°C 45.5°F7.5°C 56% 7.0 mph NE11.3 kmh NE 12.0 mph19.3 kmh 29.80 in1009.1 mb 0.00 in0.0 mm 0.00 in0.0 mm 0.00 in0.0 mm
09:10 PM 61.3°F16.3°C 45.5°F7.5°C 56% 3.0 mph NNE4.8 kmh NNE 12.0 mph19.3 kmh 29.80 in1009.1 mb 0.00 in0.0 mm 0.00 in0.0 mm 0.00 in0.0 mm
09:13 PM 61.2°F16.2°C 45.4°F7.4°C 56% 1.0 mph NNE1.6 kmh NNE 12.0 mph19.3 kmh 29.80 in1009.1 mb 0.00 in0.0 mm 0.00 in0.0 mm 0.00 in0.0 mm
09:14 PM 61.2°F16.2°C 45.4°F7.4°C 56% 8.0 mph NNE12.9 kmh NNE 12.0 mph19.3 kmh 29.80 in1009.1 mb 0.00 in0.0 mm 0.00 in0.0 mm 0.00 in0.0 mm
09:15 PM 61.2°F16.2°C 45.4°F7.4°C 56% 7.0 mph NNE11.3 kmh NNE 12.0 mph19.3 kmh 29.80 in1009.1 mb 0.00 in0.0 mm 0.00 in0.0 mm 0.00 in0.0 mm
09:18 PM 61.0°F16.1°C 44.7°F7.1°C 55% 6.0 mph NNE9.7 kmh NNE 12.0 mph19.3 kmh 29.80 in1009.1 mb 0.00 in0.0 mm 0.00 in0.0 mm 0.00 in0.0 mm
09:19 PM 61.0°F16.1°C 44.7°F7.1°C 55% 5.0 mph NNE8.0 kmh NNE 12.0 mph19.3 kmh 29.80 in1009.1 mb 0.00 in0.0 mm 0.00 in0.0 mm 0.00 in0.0 mm
09:20 PM 61.0°F16.1°C 44.7°F7.1°C 55% 6.0 mph NNE9.7 kmh NNE 12.0 mph19.3 kmh 29.80 in1009.1 mb 0.00 in0.0 mm 0.00 in0.0 mm 0.00 in0.0 mm
09:23 PM 60.8°F16.0°C 44.6°F7.0°C 55% Calm Calm 12.0 mph19.3 kmh 29.80 in1009.1 mb 0.00 in0.0 mm 0.00 in0.0 mm 0.00 in0.0 mm
09:24 PM 60.8°F16.0°C 44.6°F7.0°C 55% 5.0 mph N8.0 kmh N 12.0 mph19.3 kmh 29.80 in1009.1 mb 0.00 in0.0 mm 0.00 in0.0 mm 0.00 in0.0 mm
09:25 PM 60.8°F16.0°C 44.6°F7.0°C 55% 2.0 mph N3.2 kmh N 12.0 mph19.3 kmh 29.80 in1009.1 mb 0.00 in0.0 mm 0.00 in0.0 mm 0.00 in0.0 mm
09:28 PM 60.6°F15.9°C 44.4°F6.9°C 55% 9.0 mph N14.5 kmh N 12.0 mph19.3 kmh 29.80 in1009.1 mb 0.00 in0.0 mm 0.00 in0.0 mm 0.00 in0.0 mm
09:29 PM 60.6°F15.9°C 44.4°F6.9°C 55% 2.0 mph N3.2 kmh N 12.0 mph19.3 kmh 29.80 in1009.1 mb 0.00 in0.0 mm 0.00 in0.0 mm 0.00 in0.0 mm
09:30 PM 60.5°F15.8°C 44.3°F6.8°C 55% 1.0 mph N1.6 kmh N 12.0 mph19.3 kmh 29.80 in1009.1 mb 0.00 in0.0 mm 0.00 in0.0 mm 0.00 in0.0 mm
09:33 PM 60.5°F15.8°C 44.3°F6.8°C 55% 5.0 mph N8.0 kmh N 12.0 mph19.3 kmh 29.80 in1009.1 mb 0.00 in0.0 mm 0.00 in0.0 mm 0.00 in0.0 mm
09:34 PM 60.5°F15.8°C 44.3°F6.8°C 55% 4.0 mph N6.4 kmh N 12.0 mph19.3 kmh 29.80 in1009.1 mb 0.00 in0.0 mm 0.00 in0.0 mm 0.00 in0.0 mm
09:35 PM 60.4°F15.8°C 44.2°F6.8°C 55% 4.0 mph N6.4 kmh N 12.0 mph19.3 kmh 29.80 in1009.1 mb 0.00 in0.0 mm 0.00 in0.0 mm 0.00 in0.0 mm
09:38 PM 60.3°F15.7°C 44.1°F6.7°C 55% 4.0 mph N6.4 kmh N 13.0 mph20.9 kmh 29.80 in1009.1 mb 0.00 in0.0 mm 0.00 in0.0 mm 0.00 in0.0 mm
09:39 PM 60.3°F15.7°C 44.1°F6.7°C 55% 3.0 mph N4.8 kmh N 13.0 mph20.9 kmh 29.80 in1009.1 mb 0.00 in0.0 mm 0.00 in0.0 mm 0.00 in0.0 mm
09:40 PM 60.3°F15.7°C 44.1°F6.7°C 55% 7.0 mph N11.3 kmh N 13.0 mph20.9 kmh 29.80 in1009.1 mb 0.00 in0.0 mm 0.00 in0.0 mm 0.00 in0.0 mm
09:43 PM 60.1°F15.6°C 43.4°F6.3°C 54% 4.0 mph N6.4 kmh N 13.0 mph20.9 kmh 29.80 in1009.1 mb 0.00 in0.0 mm 0.00 in0.0 mm 0.00 in0.0 mm
09:44 PM 60.1°F15.6°C 43.4°F6.3°C 54% 4.0 mph N6.4 kmh N 13.0 mph20.9 kmh 29.80 in1009.1 mb 0.00 in0.0 mm 0.00 in0.0 mm 0.00 in0.0 mm
09:45 PM 60.1°F15.6°C 43.4°F6.3°C 54% 2.0 mph N3.2 kmh N 13.0 mph20.9 kmh 29.80 in1009.1 mb 0.00 in0.0 mm 0.00 in0.0 mm 0.00 in0.0 mm
09:48 PM 60.0°F15.6°C 43.3°F6.3°C 54% 4.0 mph N6.4 kmh N 13.0 mph20.9 kmh 29.80 in1009.1 mb 0.00 in0.0 mm 0.00 in0.0 mm 0.00 in0.0 mm
09:49 PM 60.0°F15.6°C 43.3°F6.3°C 54% 2.0 mph N3.2 kmh N 13.0 mph20.9 kmh 29.80 in1009.1 mb 0.00 in0.0 mm 0.00 in0.0 mm 0.00 in0.0 mm
09:50 PM 59.9°F15.5°C 43.7°F6.5°C 55% 4.0 mph N6.4 kmh N 13.0 mph20.9 kmh 29.80 in1009.1 mb 0.00 in0.0 mm 0.00 in0.0 mm 0.00 in0.0 mm
09:53 PM 59.9°F15.5°C 43.7°F6.5°C 55% 6.0 mph N9.7 kmh N 13.0 mph20.9 kmh 29.80 in1009.1 mb 0.00 in0.0 mm 0.00 in0.0 mm 0.00 in0.0 mm
09:54 PM 59.8°F15.4°C 43.6°F6.4°C 55% 3.0 mph N4.8 kmh N 13.0 mph20.9 kmh 29.80 in1009.1 mb 0.00 in0.0 mm 0.00 in0.0 mm 0.00 in0.0 mm
09:55 PM 59.8°F15.4°C 43.1°F6.2°C 54% 7.0 mph N11.3 kmh N 13.0 mph20.9 kmh 29.80 in1009.1 mb 0.00 in0.0 mm 0.00 in0.0 mm 0.00 in0.0 mm
09:58 PM 59.7°F15.4°C 43.1°F6.2°C 54% 7.0 mph NNW11.3 kmh NNW 13.0 mph20.9 kmh 29.80 in1009.1 mb 0.00 in0.0 mm 0.00 in0.0 mm 0.00 in0.0 mm
09:59 PM 59.7°F15.4°C 43.1°F6.2°C 54% 4.0 mph NNW6.4 kmh NNW 13.0 mph20.9 kmh 29.80 in1009.1 mb 0.00 in0.0 mm 0.00 in0.0 mm 0.00 in0.0 mm
10:00 PM 59.7°F15.4°C 43.1°F6.2°C 54% 2.0 mph NNW3.2 kmh NNW 4.0 mph6.4 kmh 29.80 in1009.1 mb 0.00 in0.0 mm 0.00 in0.0 mm 0.00 in0.0 mm
10:03 PM 59.6°F15.3°C 42.5°F5.8°C 53% 8.0 mph N12.9 kmh N 11.0 mph17.7 kmh 29.80 in1009.1 mb 0.00 in0.0 mm 0.00 in0.0 mm 0.00 in0.0 mm
10:04 PM 59.6°F15.3°C 42.5°F5.8°C 53% 3.0 mph N4.8 kmh N 11.0 mph17.7 kmh 29.80 in1009.1 mb 0.00 in0.0 mm 0.00 in0.0 mm 0.00 in0.0 mm
10:05 PM 59.5°F15.3°C 42.4°F5.8°C 53% 2.0 mph N3.2 kmh N 11.0 mph17.7 kmh 29.80 in1009.1 mb 0.00 in0.0 mm 0.00 in0.0 mm 0.00 in0.0 mm
10:08 PM 59.4°F15.2°C 42.3°F5.7°C 53% 4.0 mph N6.4 kmh N 11.0 mph17.7 kmh 29.80 in1009.1 mb 0.00 in0.0 mm 0.00 in0.0 mm 0.00 in0.0 mm
10:09 PM 59.4°F15.2°C 42.3°F5.7°C 53% 4.0 mph N6.4 kmh N 11.0 mph17.7 kmh 29.80 in1009.1 mb 0.00 in0.0 mm 0.00 in0.0 mm 0.00 in0.0 mm
10:10 PM 59.3°F15.2°C 42.2°F5.7°C 53% 3.0 mph N4.8 kmh N 11.0 mph17.7 kmh 29.80 in1009.1 mb 0.00 in0.0 mm 0.00 in0.0 mm 0.00 in0.0 mm
10:13 PM 59.2°F15.1°C 42.1°F5.6°C 53% 6.0 mph N9.7 kmh N 11.0 mph17.7 kmh 29.80 in1009.1 mb 0.00 in0.0 mm 0.00 in0.0 mm 0.00 in0.0 mm
10:14 PM 59.2°F15.1°C 41.6°F5.3°C 52% 3.0 mph N4.8 kmh N 11.0 mph17.7 kmh 29.80 in1009.1 mb 0.00 in0.0 mm 0.00 in0.0 mm 0.00 in0.0 mm
10:15 PM 59.1°F15.1°C 41.5°F5.3°C 52% 1.0 mph N1.6 kmh N 11.0 mph17.7 kmh 29.80 in1009.1 mb 0.00 in0.0 mm 0.00 in0.0 mm 0.00 in0.0 mm
10:18 PM 59.0°F15.0°C 41.4°F5.2°C 52% 4.0 mph N6.4 kmh N 11.0 mph17.7 kmh 29.81 in1009.5 mb 0.00 in0.0 mm 0.00 in0.0 mm 0.00 in0.0 mm
10:19 PM 59.0°F15.0°C 41.4°F5.2°C 52% 8.0 mph N12.9 kmh N 11.0 mph17.7 kmh 29.81 in1009.5 mb 0.00 in0.0 mm 0.00 in0.0 mm 0.00 in0.0 mm
10:20 PM 59.0°F15.0°C 41.4°F5.2°C 52% 2.0 mph N3.2 kmh N 11.0 mph17.7 kmh 29.81 in1009.5 mb 0.00 in0.0 mm 0.00 in0.0 mm 0.00 in0.0 mm
10:23 PM 58.9°F14.9°C 41.3°F5.2°C 52% 2.0 mph N3.2 kmh N 11.0 mph17.7 kmh 29.81 in1009.5 mb 0.00 in0.0 mm 0.00 in0.0 mm 0.00 in0.0 mm
10:24 PM 58.8°F14.9°C 40.7°F4.8°C 51% 7.0 mph NNW11.3 kmh NNW 13.0 mph20.9 kmh 29.81 in1009.5 mb 0.00 in0.0 mm 0.00 in0.0 mm 0.00 in0.0 mm
10:25 PM 58.8°F14.9°C 40.7°F4.8°C 51% 7.0 mph N11.3 kmh N 13.0 mph20.9 kmh 29.81 in1009.5 mb 0.00 in0.0 mm 0.00 in0.0 mm 0.00 in0.0 mm
10:28 PM 58.7°F14.8°C 40.6°F4.8°C 51% 4.0 mph NNW6.4 kmh NNW 13.0 mph20.9 kmh 29.81 in1009.5 mb 0.00 in0.0 mm 0.00 in0.0 mm 0.00 in0.0 mm
10:29 PM 58.7°F14.8°C 40.6°F4.8°C 51% 3.0 mph NNW4.8 kmh NNW 13.0 mph20.9 kmh 29.81 in1009.5 mb 0.00 in0.0 mm 0.00 in0.0 mm 0.00 in0.0 mm
10:30 PM 58.7°F14.8°C 40.6°F4.8°C 51% 3.0 mph N4.8 kmh N 13.0 mph20.9 kmh 29.81 in1009.5 mb 0.00 in0.0 mm 0.00 in0.0 mm 0.00 in0.0 mm
10:33 PM 58.5°F14.7°C 40.5°F4.7°C 51% 5.0 mph NNW8.0 kmh NNW 13.0 mph20.9 kmh 29.81 in1009.5 mb 0.00 in0.0 mm 0.00 in0.0 mm 0.00 in0.0 mm
10:34 PM 58.5°F14.7°C 40.5°F4.7°C 51% 9.0 mph NNW14.5 kmh NNW 13.0 mph20.9 kmh 29.81 in1009.5 mb 0.00 in0.0 mm 0.00 in0.0 mm 0.00 in0.0 mm
10:35 PM 58.5°F14.7°C 40.5°F4.7°C 51% 8.0 mph N12.9 kmh N 13.0 mph20.9 kmh 29.81 in1009.5 mb 0.00 in0.0 mm 0.00 in0.0 mm 0.00 in0.0 mm
10:38 PM 58.3°F14.6°C 40.8°F4.9°C 52% 3.0 mph N4.8 kmh N 13.0 mph20.9 kmh 29.81 in1009.5 mb 0.00 in0.0 mm 0.00 in0.0 mm 0.00 in0.0 mm
10:39 PM 58.3°F14.6°C 40.8°F4.9°C 52% 6.0 mph N9.7 kmh N 13.0 mph20.9 kmh 29.81 in1009.5 mb 0.00 in0.0 mm 0.00 in0.0 mm 0.00 in0.0 mm
10:40 PM 58.3°F14.6°C 40.8°F4.9°C 52% 5.0 mph N8.0 kmh N 13.0 mph20.9 kmh 29.81 in1009.5 mb 0.00 in0.0 mm 0.00 in0.0 mm 0.00 in0.0 mm
10:43 PM 58.1°F14.5°C 40.6°F4.8°C 52% 4.0 mph N6.4 kmh N 13.0 mph20.9 kmh 29.81 in1009.5 mb 0.00 in0.0 mm 0.00 in0.0 mm 0.00 in0.0 mm
10:44 PM 58.1°F14.5°C 40.6°F4.8°C 52% 9.0 mph N14.5 kmh N 13.0 mph20.9 kmh 29.81 in1009.5 mb 0.00 in0.0 mm 0.00 in0.0 mm 0.00 in0.0 mm
10:45 PM 58.1°F14.5°C 40.6°F4.8°C 52% 3.0 mph N4.8 kmh N 13.0 mph20.9 kmh 29.81 in1009.5 mb 0.00 in0.0 mm 0.00 in0.0 mm 0.00 in0.0 mm
10:48 PM 57.9°F14.4°C 40.4°F4.7°C 52% 1.0 mph N1.6 kmh N 13.0 mph20.9 kmh 29.81 in1009.5 mb 0.00 in0.0 mm 0.00 in0.0 mm 0.00 in0.0 mm
10:49 PM 57.9°F14.4°C 40.4°F4.7°C 52% 4.0 mph N6.4 kmh N 13.0 mph20.9 kmh 29.81 in1009.5 mb 0.00 in0.0 mm 0.00 in0.0 mm 0.00 in0.0 mm
10:50 PM 57.9°F14.4°C 40.4°F4.7°C 52% 9.0 mph NNW14.5 kmh NNW 13.0 mph20.9 kmh 29.81 in1009.5 mb 0.00 in0.0 mm 0.00 in0.0 mm 0.00 in0.0 mm
10:53 PM 57.8°F14.3°C 40.3°F4.6°C 52% 8.0 mph NNW12.9 kmh NNW 13.0 mph20.9 kmh 29.81 in1009.5 mb 0.00 in0.0 mm 0.00 in0.0 mm 0.00 in0.0 mm
10:54 PM 57.8°F14.3°C 40.3°F4.6°C 52% 6.0 mph NNW9.7 kmh NNW 13.0 mph20.9 kmh 29.81 in1009.5 mb 0.00 in0.0 mm 0.00 in0.0 mm 0.00 in0.0 mm
10:55 PM 57.8°F14.3°C 40.3°F4.6°C 52% 7.0 mph NNW11.3 kmh NNW 13.0 mph20.9 kmh 29.81 in1009.5 mb 0.00 in0.0 mm 0.00 in0.0 mm 0.00 in0.0 mm
10:58 PM 57.8°F14.3°C 40.3°F4.6°C 52% 9.0 mph N14.5 kmh N 13.0 mph20.9 kmh 29.81 in1009.5 mb 0.00 in0.0 mm 0.00 in0.0 mm 0.00 in0.0 mm
10:59 PM 57.7°F14.3°C 40.2°F4.6°C 52% 7.0 mph NNW11.3 kmh NNW 13.0 mph20.9 kmh 29.81 in1009.5 mb 0.00 in0.0 mm 0.00 in0.0 mm 0.00 in0.0 mm
11:00 PM 57.7°F14.3°C 40.2°F4.6°C 52% 8.0 mph NNW12.9 kmh NNW 9.0 mph14.5 kmh 29.81 in1009.5 mb 0.00 in0.0 mm 0.00 in0.0 mm 0.00 in0.0 mm
11:03 PM 57.7°F14.3°C 40.2°F4.6°C 52% 7.0 mph N11.3 kmh N 10.0 mph16.1 kmh 29.81 in1009.5 mb 0.00 in0.0 mm 0.00 in0.0 mm 0.00 in0.0 mm
11:04 PM 57.7°F14.3°C 40.2°F4.6°C 52% 9.0 mph N14.5 kmh N 11.0 mph17.7 kmh 29.81 in1009.5 mb 0.00 in0.0 mm 0.00 in0.0 mm 0.00 in0.0 mm
11:05 PM 57.6°F14.2°C 40.1°F4.5°C 52% 10.0 mph N16.1 kmh N 11.0 mph17.7 kmh 29.81 in1009.5 mb 0.00 in0.0 mm 0.00 in0.0 mm 0.00 in0.0 mm
11:08 PM 57.6°F14.2°C 40.1°F4.5°C 52% 12.0 mph NNW19.3 kmh NNW 14.0 mph22.5 kmh 29.81 in1009.5 mb 0.00 in0.0 mm 0.00 in0.0 mm 0.00 in0.0 mm
11:09 PM 57.6°F14.2°C 40.1°F4.5°C 52% 2.0 mph NNW3.2 kmh NNW 14.0 mph22.5 kmh 29.81 in1009.5 mb 0.00 in0.0 mm 0.00 in0.0 mm 0.00 in0.0 mm
11:10 PM 57.6°F14.2°C 40.1°F4.5°C 52% 8.0 mph N12.9 kmh N 14.0 mph22.5 kmh 29.81 in1009.5 mb 0.00 in0.0 mm 0.00 in0.0 mm 0.00 in0.0 mm
11:13 PM 57.5°F14.2°C 40.0°F4.4°C 52% 4.0 mph NNW6.4 kmh NNW 14.0 mph22.5 kmh 29.81 in1009.5 mb 0.00 in0.0 mm 0.00 in0.0 mm 0.00 in0.0 mm
11:14 PM 57.5°F14.2°C 40.0°F4.4°C 52% 2.0 mph N3.2 kmh N 14.0 mph22.5 kmh 29.81 in1009.5 mb 0.00 in0.0 mm 0.00 in0.0 mm 0.00 in0.0 mm
11:15 PM 57.4°F14.1°C 39.9°F4.4°C 52% 3.0 mph NNW4.8 kmh NNW 14.0 mph22.5 kmh 29.81 in1009.5 mb 0.00 in0.0 mm 0.00 in0.0 mm 0.00 in0.0 mm
11:18 PM 57.3°F14.1°C 39.8°F4.3°C 52% 5.0 mph N8.0 kmh N 14.0 mph22.5 kmh 29.81 in1009.5 mb 0.00 in0.0 mm 0.00 in0.0 mm 0.00 in0.0 mm
11:19 PM 57.3°F14.1°C 39.8°F4.3°C 52% 2.0 mph N3.2 kmh N 14.0 mph22.5 kmh 29.81 in1009.5 mb 0.00 in0.0 mm 0.00 in0.0 mm 0.00 in0.0 mm
11:20 PM 57.3°F14.1°C 40.3°F4.6°C 53% 4.0 mph N6.4 kmh N 14.0 mph22.5 kmh 29.81 in1009.5 mb 0.00 in0.0 mm 0.00 in0.0 mm 0.00 in0.0 mm
11:23 PM 57.2°F14.0°C 40.2°F4.6°C 53% 7.0 mph N11.3 kmh N 14.0 mph22.5 kmh 29.81 in1009.5 mb 0.00 in0.0 mm 0.00 in0.0 mm 0.00 in0.0 mm
11:24 PM 57.2°F14.0°C 40.2°F4.6°C 53% 5.0 mph NNW8.0 kmh NNW 14.0 mph22.5 kmh 29.81 in1009.5 mb 0.00 in0.0 mm 0.00 in0.0 mm 0.00 in0.0 mm
11:25 PM 57.1°F13.9°C 40.2°F4.6°C 53% 11.0 mph N17.7 kmh N 14.0 mph22.5 kmh 29.81 in1009.5 mb 0.00 in0.0 mm 0.00 in0.0 mm 0.00 in0.0 mm
11:28 PM 57.1°F13.9°C 40.2°F4.6°C 53% 6.0 mph N9.7 kmh N 14.0 mph22.5 kmh 29.81 in1009.5 mb 0.00 in0.0 mm 0.00 in0.0 mm 0.00 in0.0 mm
11:29 PM 57.0°F13.9°C 40.1°F4.5°C 53% 2.0 mph N3.2 kmh N 14.0 mph22.5 kmh 29.81 in1009.5 mb 0.00 in0.0 mm 0.00 in0.0 mm 0.00 in0.0 mm
11:30 PM 57.0°F13.9°C 40.1°F4.5°C 53% 6.0 mph N9.7 kmh N 14.0 mph22.5 kmh 29.81 in1009.5 mb 0.00 in0.0 mm 0.00 in0.0 mm 0.00 in0.0 mm
11:33 PM 56.9°F13.8°C 40.0°F4.4°C 53% 10.0 mph NNW16.1 kmh NNW 14.0 mph22.5 kmh 29.81 in1009.5 mb 0.00 in0.0 mm 0.00 in0.0 mm 0.00 in0.0 mm
11:34 PM 56.9°F13.8°C 40.4°F4.7°C 54% 4.0 mph NW6.4 kmh NW 14.0 mph22.5 kmh 29.81 in1009.5 mb 0.00 in0.0 mm 0.00 in0.0 mm 0.00 in0.0 mm
11:35 PM 56.9°F13.8°C 40.4°F4.7°C 54% 3.0 mph N4.8 kmh N 14.0 mph22.5 kmh 29.81 in1009.5 mb 0.00 in0.0 mm 0.00 in0.0 mm 0.00 in0.0 mm
11:38 PM 56.8°F13.8°C 40.4°F4.7°C 54% 4.0 mph N6.4 kmh N 14.0 mph22.5 kmh 29.81 in1009.5 mb 0.00 in0.0 mm 0.00 in0.0 mm 0.00 in0.0 mm
11:39 PM 56.7°F13.7°C 40.3°F4.6°C 54% 7.0 mph N11.3 kmh N 14.0 mph22.5 kmh 29.81 in1009.5 mb 0.00 in0.0 mm 0.00 in0.0 mm 0.00 in0.0 mm
11:40 PM 56.7°F13.7°C 40.3°F4.6°C 54% 7.0 mph NNE11.3 kmh NNE 14.0 mph22.5 kmh 29.80 in1009.1 mb 0.00 in0.0 mm 0.00 in0.0 mm 0.00 in0.0 mm
11:43 PM 56.5°F13.6°C 40.1°F4.5°C 54% 5.0 mph N8.0 kmh N 14.0 mph22.5 kmh 29.81 in1009.5 mb 0.00 in0.0 mm 0.00 in0.0 mm 0.00 in0.0 mm
11:44 PM 56.5°F13.6°C 40.1°F4.5°C 54% 3.0 mph N4.8 kmh N 14.0 mph22.5 kmh 29.81 in1009.5 mb 0.00 in0.0 mm 0.00 in0.0 mm 0.00 in0.0 mm
11:45 PM 56.5°F13.6°C 40.1°F4.5°C 54% 3.0 mph NNW4.8 kmh NNW 14.0 mph22.5 kmh 29.81 in1009.5 mb 0.00 in0.0 mm 0.00 in0.0 mm 0.00 in0.0 mm
11:48 PM 56.4°F13.6°C 40.5°F4.7°C 55% 9.0 mph N14.5 kmh N 14.0 mph22.5 kmh 29.81 in1009.5 mb 0.00 in0.0 mm 0.00 in0.0 mm 0.00 in0.0 mm
11:49 PM 56.4°F13.6°C 40.5°F4.7°C 55% 6.0 mph N9.7 kmh N 14.0 mph22.5 kmh 29.81 in1009.5 mb 0.00 in0.0 mm 0.00 in0.0 mm 0.00 in0.0 mm
11:50 PM 56.3°F13.5°C 40.4°F4.7°C 55% 6.0 mph N9.7 kmh N 14.0 mph22.5 kmh 29.81 in1009.5 mb 0.00 in0.0 mm 0.00 in0.0 mm 0.00 in0.0 mm
11:53 PM 56.3°F13.5°C 40.4°F4.7°C 55% 6.0 mph N9.7 kmh N 14.0 mph22.5 kmh 29.81 in1009.5 mb 0.00 in0.0 mm 0.00 in0.0 mm 0.00 in0.0 mm
11:54 PM 56.3°F13.5°C 40.4°F4.7°C 55% 2.0 mph N3.2 kmh N 14.0 mph22.5 kmh 29.81 in1009.5 mb 0.00 in0.0 mm 0.00 in0.0 mm 0.00 in0.0 mm
11:55 PM 56.2°F13.4°C 40.3°F4.6°C 55% 7.0 mph N11.3 kmh N 14.0 mph22.5 kmh 29.81 in1009.5 mb 0.00 in0.0 mm 0.00 in0.0 mm 0.00 in0.0 mm
11:58 PM 56.1°F13.4°C 40.2°F4.6°C 55% 1.0 mph N1.6 kmh N 14.0 mph22.5 kmh 29.80 in1009.1 mb 0.00 in0.0 mm 0.00 in0.0 mm 0.00 in0.0 mm
11:59 PM 56.1°F13.4°C 40.2°F4.6°C 55% 4.0 mph N6.4 kmh N 14.0 mph22.5 kmh 29.80 in1009.1 mb 0.00 in0.0 mm 0.00 in0.0 mm 0.00 in0.0 mm